<?xml version="1.0" encoding="UTF-8" standalone="no" ?>
<gpx xmlns="http://www.topografix.com/GPX/1/1" xmlns:xsi="http://www.w3.org/2001/XMLSchema-instance" xsi:schemaLocation="http://www.topografix.com/GPX/1/1 http://www.topografix.com/GPX/1/1/gpx.xsd" version="1.1" creator="VisuGPX - https://www.visugpx.com">
  <metadata>
    <name>Lac de la Thuile</name>
    <desc><![CDATA[Chignin Curienne La Thuile]]></desc>
  </metadata>
  <trk>
    <name><![CDATA[2014-11-22 09:58]]></name>
    <desc><![CDATA[<h1>OruxMaps</h1><br /><hr align="center" width="480" style="height: 2px; width: 517px"/><h2>Nom: 2014-11-22 09:58</h2><br /><p>Temps de départ: 11/22/2014 09:58</p><p>Temps d'arrivée: 11/22/2014 14:18</p><p>Distance: 46,7 km (04:19)</p><p>Temps déplacement: 03:29</p><p>Vitesse moyenne: 10,8 km/h</p><p>Vitesse moyenne: 13,4 km/h</p><p>Vitess Max.: 49,5 km/h</p><p>Altitude minimale: 205 m</p><p>Altitude maximale: 1021 m</p><p>Vitesse d'élévation: 538 m/h</p><p>Vitesse de descente: -959 m/h</p><p>Gain Altitude: 1234 m</p><p>Perte Altitude: -1215 m</p><p>Temps d'élévation: 02:17</p><p>Temps de descente: 01:16</p><hr align="center" width="480" style="height: 2px; width: 517px"/>]]></desc>
    <trkseg>
      <trkpt lat="45.4292" lon="5.98386">
        <ele>330</ele>
        <time>2014-11-22T08:58:35Z</time>
      </trkpt>
      <trkpt lat="45.42923" lon="5.98361">
        <ele>330</ele>
        <time>2014-11-22T09:01:43Z</time>
      </trkpt>
      <trkpt lat="45.42933" lon="5.98338">
        <ele>330</ele>
        <time>2014-11-22T09:01:50Z</time>
      </trkpt>
      <trkpt lat="45.42944" lon="5.9831">
        <ele>330</ele>
        <time>2014-11-22T09:01:55Z</time>
      </trkpt>
      <trkpt lat="45.42959" lon="5.98293">
        <ele>330</ele>
        <time>2014-11-22T09:01:59Z</time>
      </trkpt>
      <trkpt lat="45.42975" lon="5.98271">
        <ele>330</ele>
        <time>2014-11-22T09:02:04Z</time>
      </trkpt>
      <trkpt lat="45.42986" lon="5.98249">
        <ele>329</ele>
        <time>2014-11-22T09:02:09Z</time>
      </trkpt>
      <trkpt lat="45.42999" lon="5.98227">
        <ele>329</ele>
        <time>2014-11-22T09:02:14Z</time>
      </trkpt>
      <trkpt lat="45.43011" lon="5.98207">
        <ele>329</ele>
        <time>2014-11-22T09:02:19Z</time>
      </trkpt>
      <trkpt lat="45.43025" lon="5.98187">
        <ele>329</ele>
        <time>2014-11-22T09:02:24Z</time>
      </trkpt>
      <trkpt lat="45.43038" lon="5.98165">
        <ele>330</ele>
        <time>2014-11-22T09:02:30Z</time>
      </trkpt>
      <trkpt lat="45.43055" lon="5.98156">
        <ele>331</ele>
        <time>2014-11-22T09:02:37Z</time>
      </trkpt>
      <trkpt lat="45.43076" lon="5.98155">
        <ele>331</ele>
        <time>2014-11-22T09:02:43Z</time>
      </trkpt>
      <trkpt lat="45.43095" lon="5.98155">
        <ele>332</ele>
        <time>2014-11-22T09:02:48Z</time>
      </trkpt>
      <trkpt lat="45.43113" lon="5.98154">
        <ele>332</ele>
        <time>2014-11-22T09:02:53Z</time>
      </trkpt>
      <trkpt lat="45.43131" lon="5.98155">
        <ele>332</ele>
        <time>2014-11-22T09:02:58Z</time>
      </trkpt>
      <trkpt lat="45.43148" lon="5.98142">
        <ele>332</ele>
        <time>2014-11-22T09:03:04Z</time>
      </trkpt>
      <trkpt lat="45.43167" lon="5.98143">
        <ele>332</ele>
        <time>2014-11-22T09:03:11Z</time>
      </trkpt>
      <trkpt lat="45.43183" lon="5.98132">
        <ele>334</ele>
        <time>2014-11-22T09:03:22Z</time>
      </trkpt>
      <trkpt lat="45.43199" lon="5.98145">
        <ele>334</ele>
        <time>2014-11-22T09:03:40Z</time>
      </trkpt>
      <trkpt lat="45.43217" lon="5.9815">
        <ele>335</ele>
        <time>2014-11-22T09:03:46Z</time>
      </trkpt>
      <trkpt lat="45.43237" lon="5.98151">
        <ele>335</ele>
        <time>2014-11-22T09:03:52Z</time>
      </trkpt>
      <trkpt lat="45.43256" lon="5.98144">
        <ele>337</ele>
        <time>2014-11-22T09:03:58Z</time>
      </trkpt>
      <trkpt lat="45.43274" lon="5.98147">
        <ele>337</ele>
        <time>2014-11-22T09:04:05Z</time>
      </trkpt>
      <trkpt lat="45.43294" lon="5.98155">
        <ele>338</ele>
        <time>2014-11-22T09:04:12Z</time>
      </trkpt>
      <trkpt lat="45.43311" lon="5.98165">
        <ele>338</ele>
        <time>2014-11-22T09:04:33Z</time>
      </trkpt>
      <trkpt lat="45.43328" lon="5.98179">
        <ele>338</ele>
        <time>2014-11-22T09:04:42Z</time>
      </trkpt>
      <trkpt lat="45.43347" lon="5.98183">
        <ele>339</ele>
        <time>2014-11-22T09:04:49Z</time>
      </trkpt>
      <trkpt lat="45.43365" lon="5.98194">
        <ele>340</ele>
        <time>2014-11-22T09:04:55Z</time>
      </trkpt>
      <trkpt lat="45.43383" lon="5.98201">
        <ele>340</ele>
        <time>2014-11-22T09:05:01Z</time>
      </trkpt>
      <trkpt lat="45.4339" lon="5.98176">
        <ele>341</ele>
        <time>2014-11-22T09:05:07Z</time>
      </trkpt>
      <trkpt lat="45.43397" lon="5.98149">
        <ele>343</ele>
        <time>2014-11-22T09:05:13Z</time>
      </trkpt>
      <trkpt lat="45.43404" lon="5.98123">
        <ele>343</ele>
        <time>2014-11-22T09:05:19Z</time>
      </trkpt>
      <trkpt lat="45.43412" lon="5.98096">
        <ele>344</ele>
        <time>2014-11-22T09:05:26Z</time>
      </trkpt>
      <trkpt lat="45.43418" lon="5.98071">
        <ele>347</ele>
        <time>2014-11-22T09:05:32Z</time>
      </trkpt>
      <trkpt lat="45.43425" lon="5.98045">
        <ele>348</ele>
        <time>2014-11-22T09:05:38Z</time>
      </trkpt>
      <trkpt lat="45.43429" lon="5.9802">
        <ele>349</ele>
        <time>2014-11-22T09:05:44Z</time>
      </trkpt>
      <trkpt lat="45.43435" lon="5.97995">
        <ele>351</ele>
        <time>2014-11-22T09:05:50Z</time>
      </trkpt>
      <trkpt lat="45.43441" lon="5.97971">
        <ele>352</ele>
        <time>2014-11-22T09:05:56Z</time>
      </trkpt>
      <trkpt lat="45.43449" lon="5.97943">
        <ele>352</ele>
        <time>2014-11-22T09:06:03Z</time>
      </trkpt>
      <trkpt lat="45.43452" lon="5.97915">
        <ele>356</ele>
        <time>2014-11-22T09:06:10Z</time>
      </trkpt>
      <trkpt lat="45.43458" lon="5.97888">
        <ele>356</ele>
        <time>2014-11-22T09:06:17Z</time>
      </trkpt>
      <trkpt lat="45.43459" lon="5.97862">
        <ele>357</ele>
        <time>2014-11-22T09:06:23Z</time>
      </trkpt>
      <trkpt lat="45.43458" lon="5.97835">
        <ele>358</ele>
        <time>2014-11-22T09:06:30Z</time>
      </trkpt>
      <trkpt lat="45.43479" lon="5.97829">
        <ele>360</ele>
        <time>2014-11-22T09:06:39Z</time>
      </trkpt>
      <trkpt lat="45.43498" lon="5.97842">
        <ele>358</ele>
        <time>2014-11-22T09:06:44Z</time>
      </trkpt>
      <trkpt lat="45.43517" lon="5.97844">
        <ele>357</ele>
        <time>2014-11-22T09:06:49Z</time>
      </trkpt>
      <trkpt lat="45.43536" lon="5.97843">
        <ele>357</ele>
        <time>2014-11-22T09:06:54Z</time>
      </trkpt>
      <trkpt lat="45.43558" lon="5.97843">
        <ele>357</ele>
        <time>2014-11-22T09:06:59Z</time>
      </trkpt>
      <trkpt lat="45.43578" lon="5.97844">
        <ele>358</ele>
        <time>2014-11-22T09:07:04Z</time>
      </trkpt>
      <trkpt lat="45.43599" lon="5.9784">
        <ele>358</ele>
        <time>2014-11-22T09:07:09Z</time>
      </trkpt>
      <trkpt lat="45.43619" lon="5.97842">
        <ele>358</ele>
        <time>2014-11-22T09:07:13Z</time>
      </trkpt>
      <trkpt lat="45.43637" lon="5.97844">
        <ele>359</ele>
        <time>2014-11-22T09:07:17Z</time>
      </trkpt>
      <trkpt lat="45.43659" lon="5.97849">
        <ele>359</ele>
        <time>2014-11-22T09:07:22Z</time>
      </trkpt>
      <trkpt lat="45.43678" lon="5.97862">
        <ele>361</ele>
        <time>2014-11-22T09:07:28Z</time>
      </trkpt>
      <trkpt lat="45.43697" lon="5.97865">
        <ele>361</ele>
        <time>2014-11-22T09:07:34Z</time>
      </trkpt>
      <trkpt lat="45.43715" lon="5.97877">
        <ele>361</ele>
        <time>2014-11-22T09:07:40Z</time>
      </trkpt>
      <trkpt lat="45.43731" lon="5.9789">
        <ele>362</ele>
        <time>2014-11-22T09:07:45Z</time>
      </trkpt>
      <trkpt lat="45.43746" lon="5.97903">
        <ele>362</ele>
        <time>2014-11-22T09:07:50Z</time>
      </trkpt>
      <trkpt lat="45.43765" lon="5.97914">
        <ele>363</ele>
        <time>2014-11-22T09:07:56Z</time>
      </trkpt>
      <trkpt lat="45.43785" lon="5.97923">
        <ele>363</ele>
        <time>2014-11-22T09:08:02Z</time>
      </trkpt>
      <trkpt lat="45.43805" lon="5.97933">
        <ele>363</ele>
        <time>2014-11-22T09:08:08Z</time>
      </trkpt>
      <trkpt lat="45.43824" lon="5.97943">
        <ele>363</ele>
        <time>2014-11-22T09:08:14Z</time>
      </trkpt>
      <trkpt lat="45.43844" lon="5.97954">
        <ele>366</ele>
        <time>2014-11-22T09:08:20Z</time>
      </trkpt>
      <trkpt lat="45.43862" lon="5.97964">
        <ele>366</ele>
        <time>2014-11-22T09:08:25Z</time>
      </trkpt>
      <trkpt lat="45.43878" lon="5.97977">
        <ele>366</ele>
        <time>2014-11-22T09:08:30Z</time>
      </trkpt>
      <trkpt lat="45.43897" lon="5.97989">
        <ele>367</ele>
        <time>2014-11-22T09:08:35Z</time>
      </trkpt>
      <trkpt lat="45.43918" lon="5.98">
        <ele>367</ele>
        <time>2014-11-22T09:08:40Z</time>
      </trkpt>
      <trkpt lat="45.43937" lon="5.98007">
        <ele>364</ele>
        <time>2014-11-22T09:08:44Z</time>
      </trkpt>
      <trkpt lat="45.43956" lon="5.98011">
        <ele>363</ele>
        <time>2014-11-22T09:08:48Z</time>
      </trkpt>
      <trkpt lat="45.43975" lon="5.98017">
        <ele>363</ele>
        <time>2014-11-22T09:08:52Z</time>
      </trkpt>
      <trkpt lat="45.43995" lon="5.98023">
        <ele>362</ele>
        <time>2014-11-22T09:08:56Z</time>
      </trkpt>
      <trkpt lat="45.44018" lon="5.9803">
        <ele>361</ele>
        <time>2014-11-22T09:09:00Z</time>
      </trkpt>
      <trkpt lat="45.44036" lon="5.98035">
        <ele>361</ele>
        <time>2014-11-22T09:09:03Z</time>
      </trkpt>
      <trkpt lat="45.44054" lon="5.98039">
        <ele>361</ele>
        <time>2014-11-22T09:09:06Z</time>
      </trkpt>
      <trkpt lat="45.44073" lon="5.9804">
        <ele>361</ele>
        <time>2014-11-22T09:09:09Z</time>
      </trkpt>
      <trkpt lat="45.44091" lon="5.98036">
        <ele>361</ele>
        <time>2014-11-22T09:09:12Z</time>
      </trkpt>
      <trkpt lat="45.44114" lon="5.9803">
        <ele>361</ele>
        <time>2014-11-22T09:09:16Z</time>
      </trkpt>
      <trkpt lat="45.44135" lon="5.98026">
        <ele>360</ele>
        <time>2014-11-22T09:09:20Z</time>
      </trkpt>
      <trkpt lat="45.44156" lon="5.98023">
        <ele>360</ele>
        <time>2014-11-22T09:09:24Z</time>
      </trkpt>
      <trkpt lat="45.44178" lon="5.98023">
        <ele>360</ele>
        <time>2014-11-22T09:09:28Z</time>
      </trkpt>
      <trkpt lat="45.44202" lon="5.98026">
        <ele>359</ele>
        <time>2014-11-22T09:09:32Z</time>
      </trkpt>
      <trkpt lat="45.44226" lon="5.9803">
        <ele>359</ele>
        <time>2014-11-22T09:09:36Z</time>
      </trkpt>
      <trkpt lat="45.44248" lon="5.98037">
        <ele>359</ele>
        <time>2014-11-22T09:09:40Z</time>
      </trkpt>
      <trkpt lat="45.44269" lon="5.98045">
        <ele>360</ele>
        <time>2014-11-22T09:09:44Z</time>
      </trkpt>
      <trkpt lat="45.44288" lon="5.98054">
        <ele>360</ele>
        <time>2014-11-22T09:09:48Z</time>
      </trkpt>
      <trkpt lat="45.44307" lon="5.98064">
        <ele>360</ele>
        <time>2014-11-22T09:09:52Z</time>
      </trkpt>
      <trkpt lat="45.44325" lon="5.98073">
        <ele>360</ele>
        <time>2014-11-22T09:09:56Z</time>
      </trkpt>
      <trkpt lat="45.44342" lon="5.98082">
        <ele>362</ele>
        <time>2014-11-22T09:10:01Z</time>
      </trkpt>
      <trkpt lat="45.44359" lon="5.98098">
        <ele>361</ele>
        <time>2014-11-22T09:10:07Z</time>
      </trkpt>
      <trkpt lat="45.44376" lon="5.98114">
        <ele>362</ele>
        <time>2014-11-22T09:10:12Z</time>
      </trkpt>
      <trkpt lat="45.44391" lon="5.98129">
        <ele>362</ele>
        <time>2014-11-22T09:10:17Z</time>
      </trkpt>
      <trkpt lat="45.44408" lon="5.98144">
        <ele>362</ele>
        <time>2014-11-22T09:10:22Z</time>
      </trkpt>
      <trkpt lat="45.44424" lon="5.98159">
        <ele>364</ele>
        <time>2014-11-22T09:10:27Z</time>
      </trkpt>
      <trkpt lat="45.44442" lon="5.98174">
        <ele>363</ele>
        <time>2014-11-22T09:10:32Z</time>
      </trkpt>
      <trkpt lat="45.44459" lon="5.98192">
        <ele>363</ele>
        <time>2014-11-22T09:10:37Z</time>
      </trkpt>
      <trkpt lat="45.44473" lon="5.98207">
        <ele>363</ele>
        <time>2014-11-22T09:10:41Z</time>
      </trkpt>
      <trkpt lat="45.4449" lon="5.98217">
        <ele>363</ele>
        <time>2014-11-22T09:10:45Z</time>
      </trkpt>
      <trkpt lat="45.44508" lon="5.98221">
        <ele>366</ele>
        <time>2014-11-22T09:10:49Z</time>
      </trkpt>
      <trkpt lat="45.44528" lon="5.9823">
        <ele>366</ele>
        <time>2014-11-22T09:10:54Z</time>
      </trkpt>
      <trkpt lat="45.44543" lon="5.98246">
        <ele>365</ele>
        <time>2014-11-22T09:10:59Z</time>
      </trkpt>
      <trkpt lat="45.44557" lon="5.98264">
        <ele>361</ele>
        <time>2014-11-22T09:11:03Z</time>
      </trkpt>
      <trkpt lat="45.44575" lon="5.9828">
        <ele>361</ele>
        <time>2014-11-22T09:11:07Z</time>
      </trkpt>
      <trkpt lat="45.44594" lon="5.98293">
        <ele>362</ele>
        <time>2014-11-22T09:11:11Z</time>
      </trkpt>
      <trkpt lat="45.44613" lon="5.98307">
        <ele>361</ele>
        <time>2014-11-22T09:11:15Z</time>
      </trkpt>
      <trkpt lat="45.44631" lon="5.98322">
        <ele>361</ele>
        <time>2014-11-22T09:11:19Z</time>
      </trkpt>
      <trkpt lat="45.44652" lon="5.98335">
        <ele>358</ele>
        <time>2014-11-22T09:11:23Z</time>
      </trkpt>
      <trkpt lat="45.44669" lon="5.98346">
        <ele>360</ele>
        <time>2014-11-22T09:11:27Z</time>
      </trkpt>
      <trkpt lat="45.44685" lon="5.98357">
        <ele>361</ele>
        <time>2014-11-22T09:11:31Z</time>
      </trkpt>
      <trkpt lat="45.44706" lon="5.98367">
        <ele>361</ele>
        <time>2014-11-22T09:11:36Z</time>
      </trkpt>
      <trkpt lat="45.44725" lon="5.98376">
        <ele>362</ele>
        <time>2014-11-22T09:11:41Z</time>
      </trkpt>
      <trkpt lat="45.44745" lon="5.98382">
        <ele>362</ele>
        <time>2014-11-22T09:11:47Z</time>
      </trkpt>
      <trkpt lat="45.44764" lon="5.98384">
        <ele>368</ele>
        <time>2014-11-22T09:11:53Z</time>
      </trkpt>
      <trkpt lat="45.44784" lon="5.98384">
        <ele>370</ele>
        <time>2014-11-22T09:12:00Z</time>
      </trkpt>
      <trkpt lat="45.44804" lon="5.98377">
        <ele>371</ele>
        <time>2014-11-22T09:12:08Z</time>
      </trkpt>
      <trkpt lat="45.44822" lon="5.98377">
        <ele>372</ele>
        <time>2014-11-22T09:12:16Z</time>
      </trkpt>
      <trkpt lat="45.44841" lon="5.98381">
        <ele>381</ele>
        <time>2014-11-22T09:12:25Z</time>
      </trkpt>
      <trkpt lat="45.44861" lon="5.98388">
        <ele>382</ele>
        <time>2014-11-22T09:12:32Z</time>
      </trkpt>
      <trkpt lat="45.44879" lon="5.98398">
        <ele>383</ele>
        <time>2014-11-22T09:12:39Z</time>
      </trkpt>
      <trkpt lat="45.44896" lon="5.98413">
        <ele>384</ele>
        <time>2014-11-22T09:12:47Z</time>
      </trkpt>
      <trkpt lat="45.44912" lon="5.98429">
        <ele>382</ele>
        <time>2014-11-22T09:12:55Z</time>
      </trkpt>
      <trkpt lat="45.44929" lon="5.98441">
        <ele>386</ele>
        <time>2014-11-22T09:13:03Z</time>
      </trkpt>
      <trkpt lat="45.44948" lon="5.98439">
        <ele>386</ele>
        <time>2014-11-22T09:13:11Z</time>
      </trkpt>
      <trkpt lat="45.44967" lon="5.98438">
        <ele>386</ele>
        <time>2014-11-22T09:13:18Z</time>
      </trkpt>
      <trkpt lat="45.44985" lon="5.98434">
        <ele>387</ele>
        <time>2014-11-22T09:13:25Z</time>
      </trkpt>
      <trkpt lat="45.45003" lon="5.98444">
        <ele>391</ele>
        <time>2014-11-22T09:13:33Z</time>
      </trkpt>
      <trkpt lat="45.45023" lon="5.98446">
        <ele>392</ele>
        <time>2014-11-22T09:13:41Z</time>
      </trkpt>
      <trkpt lat="45.45042" lon="5.98443">
        <ele>392</ele>
        <time>2014-11-22T09:13:49Z</time>
      </trkpt>
      <trkpt lat="45.4506" lon="5.98444">
        <ele>393</ele>
        <time>2014-11-22T09:13:55Z</time>
      </trkpt>
      <trkpt lat="45.4508" lon="5.98448">
        <ele>394</ele>
        <time>2014-11-22T09:14:03Z</time>
      </trkpt>
      <trkpt lat="45.45098" lon="5.98456">
        <ele>400</ele>
        <time>2014-11-22T09:14:11Z</time>
      </trkpt>
      <trkpt lat="45.45116" lon="5.98466">
        <ele>400</ele>
        <time>2014-11-22T09:14:20Z</time>
      </trkpt>
      <trkpt lat="45.45133" lon="5.98476">
        <ele>401</ele>
        <time>2014-11-22T09:14:29Z</time>
      </trkpt>
      <trkpt lat="45.4515" lon="5.98483">
        <ele>402</ele>
        <time>2014-11-22T09:14:38Z</time>
      </trkpt>
      <trkpt lat="45.4517" lon="5.98488">
        <ele>405</ele>
        <time>2014-11-22T09:14:48Z</time>
      </trkpt>
      <trkpt lat="45.45188" lon="5.98498">
        <ele>406</ele>
        <time>2014-11-22T09:14:57Z</time>
      </trkpt>
      <trkpt lat="45.45207" lon="5.98508">
        <ele>402</ele>
        <time>2014-11-22T09:15:07Z</time>
      </trkpt>
      <trkpt lat="45.45224" lon="5.9852">
        <ele>402</ele>
        <time>2014-11-22T09:15:16Z</time>
      </trkpt>
      <trkpt lat="45.45243" lon="5.9852">
        <ele>402</ele>
        <time>2014-11-22T09:15:35Z</time>
      </trkpt>
      <trkpt lat="45.45265" lon="5.98506">
        <ele>398</ele>
        <time>2014-11-22T09:15:40Z</time>
      </trkpt>
      <trkpt lat="45.45287" lon="5.985">
        <ele>394</ele>
        <time>2014-11-22T09:15:43Z</time>
      </trkpt>
      <trkpt lat="45.45308" lon="5.98498">
        <ele>401</ele>
        <time>2014-11-22T09:15:46Z</time>
      </trkpt>
      <trkpt lat="45.45329" lon="5.98503">
        <ele>391</ele>
        <time>2014-11-22T09:15:49Z</time>
      </trkpt>
      <trkpt lat="45.45349" lon="5.98506">
        <ele>385</ele>
        <time>2014-11-22T09:15:53Z</time>
      </trkpt>
      <trkpt lat="45.45366" lon="5.98487">
        <ele>391</ele>
        <time>2014-11-22T09:16:02Z</time>
      </trkpt>
      <trkpt lat="45.45382" lon="5.98505">
        <ele>381</ele>
        <time>2014-11-22T09:16:07Z</time>
      </trkpt>
      <trkpt lat="45.45395" lon="5.98523">
        <ele>379</ele>
        <time>2014-11-22T09:16:10Z</time>
      </trkpt>
      <trkpt lat="45.45411" lon="5.98539">
        <ele>378</ele>
        <time>2014-11-22T09:16:13Z</time>
      </trkpt>
      <trkpt lat="45.45432" lon="5.98552">
        <ele>370</ele>
        <time>2014-11-22T09:16:17Z</time>
      </trkpt>
      <trkpt lat="45.4545" lon="5.98551">
        <ele>369</ele>
        <time>2014-11-22T09:16:21Z</time>
      </trkpt>
      <trkpt lat="45.45471" lon="5.98554">
        <ele>367</ele>
        <time>2014-11-22T09:16:25Z</time>
      </trkpt>
      <trkpt lat="45.45489" lon="5.98572">
        <ele>364</ele>
        <time>2014-11-22T09:16:28Z</time>
      </trkpt>
      <trkpt lat="45.45508" lon="5.98589">
        <ele>357</ele>
        <time>2014-11-22T09:16:31Z</time>
      </trkpt>
      <trkpt lat="45.45525" lon="5.98607">
        <ele>354</ele>
        <time>2014-11-22T09:16:34Z</time>
      </trkpt>
      <trkpt lat="45.45538" lon="5.98627">
        <ele>352</ele>
        <time>2014-11-22T09:16:37Z</time>
      </trkpt>
      <trkpt lat="45.45553" lon="5.98646">
        <ele>351</ele>
        <time>2014-11-22T09:16:40Z</time>
      </trkpt>
      <trkpt lat="45.45566" lon="5.98666">
        <ele>349</ele>
        <time>2014-11-22T09:16:43Z</time>
      </trkpt>
      <trkpt lat="45.45576" lon="5.98688">
        <ele>348</ele>
        <time>2014-11-22T09:16:48Z</time>
      </trkpt>
      <trkpt lat="45.45577" lon="5.98715">
        <ele>348</ele>
        <time>2014-11-22T09:16:56Z</time>
      </trkpt>
      <trkpt lat="45.45583" lon="5.98741">
        <ele>346</ele>
        <time>2014-11-22T09:17:03Z</time>
      </trkpt>
      <trkpt lat="45.45587" lon="5.98768">
        <ele>340</ele>
        <time>2014-11-22T09:17:07Z</time>
      </trkpt>
      <trkpt lat="45.45591" lon="5.98794">
        <ele>337</ele>
        <time>2014-11-22T09:17:10Z</time>
      </trkpt>
      <trkpt lat="45.45595" lon="5.98823">
        <ele>337</ele>
        <time>2014-11-22T09:17:13Z</time>
      </trkpt>
      <trkpt lat="45.45598" lon="5.98856">
        <ele>334</ele>
        <time>2014-11-22T09:17:17Z</time>
      </trkpt>
      <trkpt lat="45.45602" lon="5.98883">
        <ele>333</ele>
        <time>2014-11-22T09:17:20Z</time>
      </trkpt>
      <trkpt lat="45.45605" lon="5.98913">
        <ele>333</ele>
        <time>2014-11-22T09:17:23Z</time>
      </trkpt>
      <trkpt lat="45.45609" lon="5.98945">
        <ele>329</ele>
        <time>2014-11-22T09:17:26Z</time>
      </trkpt>
      <trkpt lat="45.45613" lon="5.9898">
        <ele>328</ele>
        <time>2014-11-22T09:17:29Z</time>
      </trkpt>
      <trkpt lat="45.45618" lon="5.99017">
        <ele>324</ele>
        <time>2014-11-22T09:17:32Z</time>
      </trkpt>
      <trkpt lat="45.45621" lon="5.99043">
        <ele>323</ele>
        <time>2014-11-22T09:17:34Z</time>
      </trkpt>
      <trkpt lat="45.45624" lon="5.99069">
        <ele>322</ele>
        <time>2014-11-22T09:17:36Z</time>
      </trkpt>
      <trkpt lat="45.45627" lon="5.99095">
        <ele>319</ele>
        <time>2014-11-22T09:17:38Z</time>
      </trkpt>
      <trkpt lat="45.45631" lon="5.99124">
        <ele>318</ele>
        <time>2014-11-22T09:17:41Z</time>
      </trkpt>
      <trkpt lat="45.45647" lon="5.99136">
        <ele>318</ele>
        <time>2014-11-22T09:17:51Z</time>
      </trkpt>
      <trkpt lat="45.45665" lon="5.99131">
        <ele>318</ele>
        <time>2014-11-22T09:17:56Z</time>
      </trkpt>
      <trkpt lat="45.45687" lon="5.99126">
        <ele>315</ele>
        <time>2014-11-22T09:18:01Z</time>
      </trkpt>
      <trkpt lat="45.45703" lon="5.99139">
        <ele>314</ele>
        <time>2014-11-22T09:18:07Z</time>
      </trkpt>
      <trkpt lat="45.45708" lon="5.99165">
        <ele>314</ele>
        <time>2014-11-22T09:18:11Z</time>
      </trkpt>
      <trkpt lat="45.45713" lon="5.99194">
        <ele>311</ele>
        <time>2014-11-22T09:18:15Z</time>
      </trkpt>
      <trkpt lat="45.4572" lon="5.99226">
        <ele>310</ele>
        <time>2014-11-22T09:18:19Z</time>
      </trkpt>
      <trkpt lat="45.45724" lon="5.99251">
        <ele>308</ele>
        <time>2014-11-22T09:18:22Z</time>
      </trkpt>
      <trkpt lat="45.45729" lon="5.99276">
        <ele>308</ele>
        <time>2014-11-22T09:18:25Z</time>
      </trkpt>
      <trkpt lat="45.45735" lon="5.99303">
        <ele>307</ele>
        <time>2014-11-22T09:18:28Z</time>
      </trkpt>
      <trkpt lat="45.45742" lon="5.99335">
        <ele>305</ele>
        <time>2014-11-22T09:18:32Z</time>
      </trkpt>
      <trkpt lat="45.45746" lon="5.9936">
        <ele>306</ele>
        <time>2014-11-22T09:18:35Z</time>
      </trkpt>
      <trkpt lat="45.45751" lon="5.99386">
        <ele>303</ele>
        <time>2014-11-22T09:18:38Z</time>
      </trkpt>
      <trkpt lat="45.45756" lon="5.99414">
        <ele>303</ele>
        <time>2014-11-22T09:18:41Z</time>
      </trkpt>
      <trkpt lat="45.45761" lon="5.99442">
        <ele>301</ele>
        <time>2014-11-22T09:18:44Z</time>
      </trkpt>
      <trkpt lat="45.45767" lon="5.99471">
        <ele>300</ele>
        <time>2014-11-22T09:18:47Z</time>
      </trkpt>
      <trkpt lat="45.45772" lon="5.99501">
        <ele>298</ele>
        <time>2014-11-22T09:18:50Z</time>
      </trkpt>
      <trkpt lat="45.45778" lon="5.99529">
        <ele>297</ele>
        <time>2014-11-22T09:18:53Z</time>
      </trkpt>
      <trkpt lat="45.45783" lon="5.99556">
        <ele>296</ele>
        <time>2014-11-22T09:18:56Z</time>
      </trkpt>
      <trkpt lat="45.4579" lon="5.99581">
        <ele>296</ele>
        <time>2014-11-22T09:19:00Z</time>
      </trkpt>
      <trkpt lat="45.45809" lon="5.99576">
        <ele>296</ele>
        <time>2014-11-22T09:19:05Z</time>
      </trkpt>
      <trkpt lat="45.45827" lon="5.99568">
        <ele>295</ele>
        <time>2014-11-22T09:19:09Z</time>
      </trkpt>
      <trkpt lat="45.45846" lon="5.99557">
        <ele>294</ele>
        <time>2014-11-22T09:19:13Z</time>
      </trkpt>
      <trkpt lat="45.45867" lon="5.99546">
        <ele>294</ele>
        <time>2014-11-22T09:19:17Z</time>
      </trkpt>
      <trkpt lat="45.45888" lon="5.99534">
        <ele>294</ele>
        <time>2014-11-22T09:19:21Z</time>
      </trkpt>
      <trkpt lat="45.45909" lon="5.99523">
        <ele>294</ele>
        <time>2014-11-22T09:19:25Z</time>
      </trkpt>
      <trkpt lat="45.45928" lon="5.99512">
        <ele>292</ele>
        <time>2014-11-22T09:19:29Z</time>
      </trkpt>
      <trkpt lat="45.45947" lon="5.99501">
        <ele>292</ele>
        <time>2014-11-22T09:19:33Z</time>
      </trkpt>
      <trkpt lat="45.45964" lon="5.99489">
        <ele>292</ele>
        <time>2014-11-22T09:19:37Z</time>
      </trkpt>
      <trkpt lat="45.45983" lon="5.9948">
        <ele>292</ele>
        <time>2014-11-22T09:19:43Z</time>
      </trkpt>
      <trkpt lat="45.45996" lon="5.99463">
        <ele>292</ele>
        <time>2014-11-22T09:19:48Z</time>
      </trkpt>
      <trkpt lat="45.46013" lon="5.99453">
        <ele>290</ele>
        <time>2014-11-22T09:19:52Z</time>
      </trkpt>
      <trkpt lat="45.46034" lon="5.99443">
        <ele>290</ele>
        <time>2014-11-22T09:19:56Z</time>
      </trkpt>
      <trkpt lat="45.46056" lon="5.99436">
        <ele>290</ele>
        <time>2014-11-22T09:20:00Z</time>
      </trkpt>
      <trkpt lat="45.46078" lon="5.9943">
        <ele>290</ele>
        <time>2014-11-22T09:20:04Z</time>
      </trkpt>
      <trkpt lat="45.46101" lon="5.99423">
        <ele>289</ele>
        <time>2014-11-22T09:20:08Z</time>
      </trkpt>
      <trkpt lat="45.46123" lon="5.99416">
        <ele>290</ele>
        <time>2014-11-22T09:20:12Z</time>
      </trkpt>
      <trkpt lat="45.46145" lon="5.99409">
        <ele>290</ele>
        <time>2014-11-22T09:20:16Z</time>
      </trkpt>
      <trkpt lat="45.46165" lon="5.99402">
        <ele>289</ele>
        <time>2014-11-22T09:20:20Z</time>
      </trkpt>
      <trkpt lat="45.46184" lon="5.99393">
        <ele>289</ele>
        <time>2014-11-22T09:20:24Z</time>
      </trkpt>
      <trkpt lat="45.46201" lon="5.99379">
        <ele>289</ele>
        <time>2014-11-22T09:20:28Z</time>
      </trkpt>
      <trkpt lat="45.46219" lon="5.99369">
        <ele>289</ele>
        <time>2014-11-22T09:20:32Z</time>
      </trkpt>
      <trkpt lat="45.46238" lon="5.9936">
        <ele>289</ele>
        <time>2014-11-22T09:20:36Z</time>
      </trkpt>
      <trkpt lat="45.46258" lon="5.99351">
        <ele>287</ele>
        <time>2014-11-22T09:20:40Z</time>
      </trkpt>
      <trkpt lat="45.46275" lon="5.9933">
        <ele>287</ele>
        <time>2014-11-22T09:20:44Z</time>
      </trkpt>
      <trkpt lat="45.46284" lon="5.99302">
        <ele>286</ele>
        <time>2014-11-22T09:20:48Z</time>
      </trkpt>
      <trkpt lat="45.46292" lon="5.99276">
        <ele>286</ele>
        <time>2014-11-22T09:20:53Z</time>
      </trkpt>
      <trkpt lat="45.46305" lon="5.99255">
        <ele>286</ele>
        <time>2014-11-22T09:20:58Z</time>
      </trkpt>
      <trkpt lat="45.46319" lon="5.99233">
        <ele>286</ele>
        <time>2014-11-22T09:21:04Z</time>
      </trkpt>
      <trkpt lat="45.46332" lon="5.99209">
        <ele>286</ele>
        <time>2014-11-22T09:21:10Z</time>
      </trkpt>
      <trkpt lat="45.46347" lon="5.99187">
        <ele>285</ele>
        <time>2014-11-22T09:21:16Z</time>
      </trkpt>
      <trkpt lat="45.4636" lon="5.99167">
        <ele>285</ele>
        <time>2014-11-22T09:21:21Z</time>
      </trkpt>
      <trkpt lat="45.46373" lon="5.99145">
        <ele>287</ele>
        <time>2014-11-22T09:21:26Z</time>
      </trkpt>
      <trkpt lat="45.46385" lon="5.99122">
        <ele>287</ele>
        <time>2014-11-22T09:21:31Z</time>
      </trkpt>
      <trkpt lat="45.46398" lon="5.99099">
        <ele>287</ele>
        <time>2014-11-22T09:21:37Z</time>
      </trkpt>
      <trkpt lat="45.46413" lon="5.99116">
        <ele>287</ele>
        <time>2014-11-22T09:21:45Z</time>
      </trkpt>
      <trkpt lat="45.46427" lon="5.99134">
        <ele>285</ele>
        <time>2014-11-22T09:21:49Z</time>
      </trkpt>
      <trkpt lat="45.46442" lon="5.9915">
        <ele>285</ele>
        <time>2014-11-22T09:21:53Z</time>
      </trkpt>
      <trkpt lat="45.46455" lon="5.9917">
        <ele>284</ele>
        <time>2014-11-22T09:21:57Z</time>
      </trkpt>
      <trkpt lat="45.46465" lon="5.99196">
        <ele>284</ele>
        <time>2014-11-22T09:22:01Z</time>
      </trkpt>
      <trkpt lat="45.46475" lon="5.99223">
        <ele>283</ele>
        <time>2014-11-22T09:22:05Z</time>
      </trkpt>
      <trkpt lat="45.46486" lon="5.99246">
        <ele>283</ele>
        <time>2014-11-22T09:22:09Z</time>
      </trkpt>
      <trkpt lat="45.46498" lon="5.99268">
        <ele>283</ele>
        <time>2014-11-22T09:22:13Z</time>
      </trkpt>
      <trkpt lat="45.46512" lon="5.9929">
        <ele>281</ele>
        <time>2014-11-22T09:22:17Z</time>
      </trkpt>
      <trkpt lat="45.46521" lon="5.99312">
        <ele>281</ele>
        <time>2014-11-22T09:22:22Z</time>
      </trkpt>
      <trkpt lat="45.46543" lon="5.99318">
        <ele>280</ele>
        <time>2014-11-22T09:22:29Z</time>
      </trkpt>
      <trkpt lat="45.46556" lon="5.99336">
        <ele>279</ele>
        <time>2014-11-22T09:22:33Z</time>
      </trkpt>
      <trkpt lat="45.46568" lon="5.99362">
        <ele>278</ele>
        <time>2014-11-22T09:22:37Z</time>
      </trkpt>
      <trkpt lat="45.46577" lon="5.99385">
        <ele>278</ele>
        <time>2014-11-22T09:22:40Z</time>
      </trkpt>
      <trkpt lat="45.46584" lon="5.9941">
        <ele>277</ele>
        <time>2014-11-22T09:22:43Z</time>
      </trkpt>
      <trkpt lat="45.46588" lon="5.99439">
        <ele>277</ele>
        <time>2014-11-22T09:22:46Z</time>
      </trkpt>
      <trkpt lat="45.46591" lon="5.99468">
        <ele>276</ele>
        <time>2014-11-22T09:22:49Z</time>
      </trkpt>
      <trkpt lat="45.46595" lon="5.99497">
        <ele>276</ele>
        <time>2014-11-22T09:22:52Z</time>
      </trkpt>
      <trkpt lat="45.466" lon="5.99525">
        <ele>275</ele>
        <time>2014-11-22T09:22:55Z</time>
      </trkpt>
      <trkpt lat="45.46608" lon="5.99552">
        <ele>274</ele>
        <time>2014-11-22T09:22:58Z</time>
      </trkpt>
      <trkpt lat="45.46619" lon="5.99576">
        <ele>274</ele>
        <time>2014-11-22T09:23:01Z</time>
      </trkpt>
      <trkpt lat="45.46633" lon="5.99598">
        <ele>273</ele>
        <time>2014-11-22T09:23:04Z</time>
      </trkpt>
      <trkpt lat="45.46647" lon="5.9962">
        <ele>273</ele>
        <time>2014-11-22T09:23:07Z</time>
      </trkpt>
      <trkpt lat="45.46659" lon="5.99645">
        <ele>272</ele>
        <time>2014-11-22T09:23:10Z</time>
      </trkpt>
      <trkpt lat="45.46669" lon="5.99672">
        <ele>272</ele>
        <time>2014-11-22T09:23:13Z</time>
      </trkpt>
      <trkpt lat="45.46675" lon="5.99702">
        <ele>272</ele>
        <time>2014-11-22T09:23:16Z</time>
      </trkpt>
      <trkpt lat="45.4668" lon="5.99732">
        <ele>272</ele>
        <time>2014-11-22T09:23:19Z</time>
      </trkpt>
      <trkpt lat="45.46685" lon="5.99762">
        <ele>272</ele>
        <time>2014-11-22T09:23:22Z</time>
      </trkpt>
      <trkpt lat="45.46691" lon="5.99792">
        <ele>271</ele>
        <time>2014-11-22T09:23:25Z</time>
      </trkpt>
      <trkpt lat="45.46698" lon="5.99821">
        <ele>271</ele>
        <time>2014-11-22T09:23:28Z</time>
      </trkpt>
      <trkpt lat="45.46706" lon="5.99848">
        <ele>270</ele>
        <time>2014-11-22T09:23:31Z</time>
      </trkpt>
      <trkpt lat="45.46715" lon="5.99875">
        <ele>270</ele>
        <time>2014-11-22T09:23:34Z</time>
      </trkpt>
      <trkpt lat="45.46725" lon="5.99901">
        <ele>269</ele>
        <time>2014-11-22T09:23:37Z</time>
      </trkpt>
      <trkpt lat="45.46736" lon="5.99927">
        <ele>269</ele>
        <time>2014-11-22T09:23:40Z</time>
      </trkpt>
      <trkpt lat="45.46747" lon="5.99951">
        <ele>269</ele>
        <time>2014-11-22T09:23:43Z</time>
      </trkpt>
      <trkpt lat="45.46759" lon="5.99974">
        <ele>269</ele>
        <time>2014-11-22T09:23:46Z</time>
      </trkpt>
      <trkpt lat="45.4677" lon="5.99996">
        <ele>269</ele>
        <time>2014-11-22T09:23:49Z</time>
      </trkpt>
      <trkpt lat="45.4678" lon="6.0002">
        <ele>268</ele>
        <time>2014-11-22T09:23:52Z</time>
      </trkpt>
      <trkpt lat="45.46787" lon="6.00046">
        <ele>268</ele>
        <time>2014-11-22T09:23:55Z</time>
      </trkpt>
      <trkpt lat="45.46793" lon="6.00072">
        <ele>267</ele>
        <time>2014-11-22T09:23:58Z</time>
      </trkpt>
      <trkpt lat="45.46798" lon="6.00097">
        <ele>267</ele>
        <time>2014-11-22T09:24:01Z</time>
      </trkpt>
      <trkpt lat="45.46803" lon="6.00123">
        <ele>267</ele>
        <time>2014-11-22T09:24:04Z</time>
      </trkpt>
      <trkpt lat="45.46807" lon="6.00149">
        <ele>267</ele>
        <time>2014-11-22T09:24:07Z</time>
      </trkpt>
      <trkpt lat="45.4681" lon="6.00176">
        <ele>267</ele>
        <time>2014-11-22T09:24:10Z</time>
      </trkpt>
      <trkpt lat="45.46815" lon="6.00202">
        <ele>267</ele>
        <time>2014-11-22T09:24:13Z</time>
      </trkpt>
      <trkpt lat="45.46822" lon="6.00227">
        <ele>267</ele>
        <time>2014-11-22T09:24:16Z</time>
      </trkpt>
      <trkpt lat="45.46832" lon="6.00249">
        <ele>266</ele>
        <time>2014-11-22T09:24:19Z</time>
      </trkpt>
      <trkpt lat="45.46844" lon="6.00269">
        <ele>265</ele>
        <time>2014-11-22T09:24:22Z</time>
      </trkpt>
      <trkpt lat="45.46859" lon="6.00288">
        <ele>265</ele>
        <time>2014-11-22T09:24:25Z</time>
      </trkpt>
      <trkpt lat="45.46873" lon="6.00306">
        <ele>264</ele>
        <time>2014-11-22T09:24:28Z</time>
      </trkpt>
      <trkpt lat="45.46887" lon="6.00325">
        <ele>264</ele>
        <time>2014-11-22T09:24:31Z</time>
      </trkpt>
      <trkpt lat="45.46901" lon="6.00344">
        <ele>264</ele>
        <time>2014-11-22T09:24:34Z</time>
      </trkpt>
      <trkpt lat="45.46915" lon="6.00363">
        <ele>264</ele>
        <time>2014-11-22T09:24:37Z</time>
      </trkpt>
      <trkpt lat="45.46929" lon="6.00382">
        <ele>264</ele>
        <time>2014-11-22T09:24:40Z</time>
      </trkpt>
      <trkpt lat="45.46943" lon="6.00403">
        <ele>264</ele>
        <time>2014-11-22T09:24:43Z</time>
      </trkpt>
      <trkpt lat="45.46953" lon="6.00426">
        <ele>263</ele>
        <time>2014-11-22T09:24:46Z</time>
      </trkpt>
      <trkpt lat="45.46963" lon="6.00449">
        <ele>263</ele>
        <time>2014-11-22T09:24:49Z</time>
      </trkpt>
      <trkpt lat="45.46972" lon="6.00473">
        <ele>263</ele>
        <time>2014-11-22T09:24:52Z</time>
      </trkpt>
      <trkpt lat="45.46982" lon="6.00495">
        <ele>263</ele>
        <time>2014-11-22T09:24:55Z</time>
      </trkpt>
      <trkpt lat="45.46993" lon="6.00516">
        <ele>263</ele>
        <time>2014-11-22T09:24:58Z</time>
      </trkpt>
      <trkpt lat="45.47007" lon="6.00533">
        <ele>262</ele>
        <time>2014-11-22T09:25:01Z</time>
      </trkpt>
      <trkpt lat="45.47023" lon="6.00548">
        <ele>262</ele>
        <time>2014-11-22T09:25:04Z</time>
      </trkpt>
      <trkpt lat="45.47038" lon="6.00562">
        <ele>262</ele>
        <time>2014-11-22T09:25:07Z</time>
      </trkpt>
      <trkpt lat="45.47054" lon="6.00575">
        <ele>262</ele>
        <time>2014-11-22T09:25:10Z</time>
      </trkpt>
      <trkpt lat="45.47076" lon="6.00588">
        <ele>262</ele>
        <time>2014-11-22T09:25:14Z</time>
      </trkpt>
      <trkpt lat="45.47094" lon="6.00598">
        <ele>261</ele>
        <time>2014-11-22T09:25:17Z</time>
      </trkpt>
      <trkpt lat="45.47112" lon="6.00606">
        <ele>261</ele>
        <time>2014-11-22T09:25:20Z</time>
      </trkpt>
      <trkpt lat="45.4713" lon="6.00612">
        <ele>261</ele>
        <time>2014-11-22T09:25:23Z</time>
      </trkpt>
      <trkpt lat="45.47152" lon="6.0062">
        <ele>260</ele>
        <time>2014-11-22T09:25:27Z</time>
      </trkpt>
      <trkpt lat="45.47172" lon="6.00632">
        <ele>260</ele>
        <time>2014-11-22T09:25:31Z</time>
      </trkpt>
      <trkpt lat="45.47189" lon="6.00645">
        <ele>260</ele>
        <time>2014-11-22T09:25:35Z</time>
      </trkpt>
      <trkpt lat="45.47207" lon="6.0066">
        <ele>260</ele>
        <time>2014-11-22T09:25:40Z</time>
      </trkpt>
      <trkpt lat="45.47226" lon="6.00678">
        <ele>260</ele>
        <time>2014-11-22T09:25:45Z</time>
      </trkpt>
      <trkpt lat="45.47242" lon="6.00696">
        <ele>260</ele>
        <time>2014-11-22T09:25:50Z</time>
      </trkpt>
      <trkpt lat="45.47257" lon="6.00711">
        <ele>260</ele>
        <time>2014-11-22T09:25:54Z</time>
      </trkpt>
      <trkpt lat="45.47273" lon="6.00728">
        <ele>260</ele>
        <time>2014-11-22T09:25:58Z</time>
      </trkpt>
      <trkpt lat="45.47289" lon="6.00745">
        <ele>260</ele>
        <time>2014-11-22T09:26:12Z</time>
      </trkpt>
      <trkpt lat="45.47305" lon="6.00759">
        <ele>260</ele>
        <time>2014-11-22T09:26:17Z</time>
      </trkpt>
      <trkpt lat="45.47322" lon="6.00776">
        <ele>260</ele>
        <time>2014-11-22T09:26:21Z</time>
      </trkpt>
      <trkpt lat="45.4734" lon="6.00791">
        <ele>260</ele>
        <time>2014-11-22T09:26:25Z</time>
      </trkpt>
      <trkpt lat="45.47358" lon="6.00807">
        <ele>260</ele>
        <time>2014-11-22T09:26:29Z</time>
      </trkpt>
      <trkpt lat="45.47377" lon="6.00821">
        <ele>260</ele>
        <time>2014-11-22T09:26:33Z</time>
      </trkpt>
      <trkpt lat="45.47397" lon="6.00836">
        <ele>259</ele>
        <time>2014-11-22T09:26:37Z</time>
      </trkpt>
      <trkpt lat="45.47418" lon="6.00852">
        <ele>259</ele>
        <time>2014-11-22T09:26:41Z</time>
      </trkpt>
      <trkpt lat="45.47438" lon="6.00867">
        <ele>259</ele>
        <time>2014-11-22T09:26:45Z</time>
      </trkpt>
      <trkpt lat="45.47457" lon="6.00883">
        <ele>259</ele>
        <time>2014-11-22T09:26:49Z</time>
      </trkpt>
      <trkpt lat="45.47477" lon="6.00897">
        <ele>259</ele>
        <time>2014-11-22T09:26:53Z</time>
      </trkpt>
      <trkpt lat="45.47497" lon="6.00913">
        <ele>259</ele>
        <time>2014-11-22T09:26:57Z</time>
      </trkpt>
      <trkpt lat="45.47517" lon="6.00927">
        <ele>259</ele>
        <time>2014-11-22T09:27:01Z</time>
      </trkpt>
      <trkpt lat="45.47538" lon="6.00942">
        <ele>259</ele>
        <time>2014-11-22T09:27:05Z</time>
      </trkpt>
      <trkpt lat="45.47558" lon="6.00957">
        <ele>259</ele>
        <time>2014-11-22T09:27:09Z</time>
      </trkpt>
      <trkpt lat="45.47578" lon="6.00973">
        <ele>259</ele>
        <time>2014-11-22T09:27:13Z</time>
      </trkpt>
      <trkpt lat="45.47599" lon="6.00989">
        <ele>259</ele>
        <time>2014-11-22T09:27:17Z</time>
      </trkpt>
      <trkpt lat="45.47619" lon="6.01005">
        <ele>260</ele>
        <time>2014-11-22T09:27:21Z</time>
      </trkpt>
      <trkpt lat="45.4764" lon="6.01021">
        <ele>260</ele>
        <time>2014-11-22T09:27:25Z</time>
      </trkpt>
      <trkpt lat="45.47659" lon="6.01036">
        <ele>260</ele>
        <time>2014-11-22T09:27:29Z</time>
      </trkpt>
      <trkpt lat="45.47678" lon="6.01052">
        <ele>261</ele>
        <time>2014-11-22T09:27:33Z</time>
      </trkpt>
      <trkpt lat="45.47697" lon="6.01066">
        <ele>261</ele>
        <time>2014-11-22T09:27:37Z</time>
      </trkpt>
      <trkpt lat="45.47715" lon="6.01082">
        <ele>261</ele>
        <time>2014-11-22T09:27:41Z</time>
      </trkpt>
      <trkpt lat="45.47736" lon="6.01098">
        <ele>260</ele>
        <time>2014-11-22T09:27:45Z</time>
      </trkpt>
      <trkpt lat="45.47755" lon="6.01114">
        <ele>260</ele>
        <time>2014-11-22T09:27:49Z</time>
      </trkpt>
      <trkpt lat="45.47775" lon="6.01129">
        <ele>259</ele>
        <time>2014-11-22T09:27:53Z</time>
      </trkpt>
      <trkpt lat="45.47794" lon="6.01143">
        <ele>259</ele>
        <time>2014-11-22T09:27:57Z</time>
      </trkpt>
      <trkpt lat="45.47814" lon="6.01158">
        <ele>259</ele>
        <time>2014-11-22T09:28:01Z</time>
      </trkpt>
      <trkpt lat="45.47834" lon="6.01174">
        <ele>258</ele>
        <time>2014-11-22T09:28:05Z</time>
      </trkpt>
      <trkpt lat="45.47855" lon="6.01188">
        <ele>258</ele>
        <time>2014-11-22T09:28:09Z</time>
      </trkpt>
      <trkpt lat="45.47874" lon="6.01203">
        <ele>258</ele>
        <time>2014-11-22T09:28:13Z</time>
      </trkpt>
      <trkpt lat="45.47893" lon="6.01217">
        <ele>258</ele>
        <time>2014-11-22T09:28:17Z</time>
      </trkpt>
      <trkpt lat="45.47912" lon="6.01232">
        <ele>258</ele>
        <time>2014-11-22T09:28:21Z</time>
      </trkpt>
      <trkpt lat="45.47931" lon="6.01247">
        <ele>259</ele>
        <time>2014-11-22T09:28:25Z</time>
      </trkpt>
      <trkpt lat="45.47949" lon="6.01264">
        <ele>259</ele>
        <time>2014-11-22T09:28:29Z</time>
      </trkpt>
      <trkpt lat="45.47965" lon="6.01285">
        <ele>259</ele>
        <time>2014-11-22T09:28:33Z</time>
      </trkpt>
      <trkpt lat="45.4798" lon="6.01309">
        <ele>259</ele>
        <time>2014-11-22T09:28:37Z</time>
      </trkpt>
      <trkpt lat="45.47993" lon="6.01331">
        <ele>259</ele>
        <time>2014-11-22T09:28:41Z</time>
      </trkpt>
      <trkpt lat="45.48007" lon="6.01356">
        <ele>259</ele>
        <time>2014-11-22T09:28:45Z</time>
      </trkpt>
      <trkpt lat="45.4802" lon="6.0138">
        <ele>259</ele>
        <time>2014-11-22T09:28:49Z</time>
      </trkpt>
      <trkpt lat="45.48034" lon="6.01405">
        <ele>259</ele>
        <time>2014-11-22T09:28:53Z</time>
      </trkpt>
      <trkpt lat="45.48047" lon="6.01429">
        <ele>260</ele>
        <time>2014-11-22T09:28:57Z</time>
      </trkpt>
      <trkpt lat="45.48061" lon="6.01453">
        <ele>260</ele>
        <time>2014-11-22T09:29:01Z</time>
      </trkpt>
      <trkpt lat="45.48077" lon="6.01475">
        <ele>260</ele>
        <time>2014-11-22T09:29:05Z</time>
      </trkpt>
      <trkpt lat="45.48095" lon="6.01493">
        <ele>261</ele>
        <time>2014-11-22T09:29:09Z</time>
      </trkpt>
      <trkpt lat="45.48114" lon="6.01512">
        <ele>260</ele>
        <time>2014-11-22T09:29:13Z</time>
      </trkpt>
      <trkpt lat="45.48133" lon="6.0153">
        <ele>260</ele>
        <time>2014-11-22T09:29:17Z</time>
      </trkpt>
      <trkpt lat="45.48151" lon="6.01549">
        <ele>260</ele>
        <time>2014-11-22T09:29:21Z</time>
      </trkpt>
      <trkpt lat="45.48169" lon="6.01568">
        <ele>259</ele>
        <time>2014-11-22T09:29:25Z</time>
      </trkpt>
      <trkpt lat="45.48187" lon="6.01586">
        <ele>259</ele>
        <time>2014-11-22T09:29:29Z</time>
      </trkpt>
      <trkpt lat="45.48206" lon="6.01605">
        <ele>259</ele>
        <time>2014-11-22T09:29:33Z</time>
      </trkpt>
      <trkpt lat="45.48224" lon="6.01624">
        <ele>260</ele>
        <time>2014-11-22T09:29:37Z</time>
      </trkpt>
      <trkpt lat="45.48243" lon="6.01642">
        <ele>259</ele>
        <time>2014-11-22T09:29:41Z</time>
      </trkpt>
      <trkpt lat="45.48261" lon="6.01661">
        <ele>259</ele>
        <time>2014-11-22T09:29:45Z</time>
      </trkpt>
      <trkpt lat="45.4828" lon="6.01679">
        <ele>260</ele>
        <time>2014-11-22T09:29:49Z</time>
      </trkpt>
      <trkpt lat="45.48298" lon="6.01698">
        <ele>260</ele>
        <time>2014-11-22T09:29:53Z</time>
      </trkpt>
      <trkpt lat="45.48316" lon="6.01717">
        <ele>260</ele>
        <time>2014-11-22T09:29:57Z</time>
      </trkpt>
      <trkpt lat="45.48334" lon="6.01739">
        <ele>260</ele>
        <time>2014-11-22T09:30:01Z</time>
      </trkpt>
      <trkpt lat="45.48349" lon="6.01763">
        <ele>260</ele>
        <time>2014-11-22T09:30:05Z</time>
      </trkpt>
      <trkpt lat="45.48364" lon="6.01789">
        <ele>260</ele>
        <time>2014-11-22T09:30:09Z</time>
      </trkpt>
      <trkpt lat="45.48382" lon="6.01809">
        <ele>260</ele>
        <time>2014-11-22T09:30:13Z</time>
      </trkpt>
      <trkpt lat="45.48404" lon="6.01821">
        <ele>261</ele>
        <time>2014-11-22T09:30:17Z</time>
      </trkpt>
      <trkpt lat="45.48426" lon="6.01832">
        <ele>261</ele>
        <time>2014-11-22T09:30:21Z</time>
      </trkpt>
      <trkpt lat="45.48447" lon="6.01846">
        <ele>261</ele>
        <time>2014-11-22T09:30:25Z</time>
      </trkpt>
      <trkpt lat="45.48467" lon="6.01863">
        <ele>261</ele>
        <time>2014-11-22T09:30:29Z</time>
      </trkpt>
      <trkpt lat="45.48486" lon="6.01882">
        <ele>261</ele>
        <time>2014-11-22T09:30:33Z</time>
      </trkpt>
      <trkpt lat="45.48504" lon="6.019">
        <ele>261</ele>
        <time>2014-11-22T09:30:37Z</time>
      </trkpt>
      <trkpt lat="45.48523" lon="6.0192">
        <ele>261</ele>
        <time>2014-11-22T09:30:41Z</time>
      </trkpt>
      <trkpt lat="45.48542" lon="6.01937">
        <ele>260</ele>
        <time>2014-11-22T09:30:45Z</time>
      </trkpt>
      <trkpt lat="45.48561" lon="6.01956">
        <ele>260</ele>
        <time>2014-11-22T09:30:49Z</time>
      </trkpt>
      <trkpt lat="45.4858" lon="6.01976">
        <ele>260</ele>
        <time>2014-11-22T09:30:53Z</time>
      </trkpt>
      <trkpt lat="45.48599" lon="6.01995">
        <ele>260</ele>
        <time>2014-11-22T09:30:57Z</time>
      </trkpt>
      <trkpt lat="45.48618" lon="6.02014">
        <ele>261</ele>
        <time>2014-11-22T09:31:01Z</time>
      </trkpt>
      <trkpt lat="45.48637" lon="6.02033">
        <ele>261</ele>
        <time>2014-11-22T09:31:05Z</time>
      </trkpt>
      <trkpt lat="45.48652" lon="6.02048">
        <ele>261</ele>
        <time>2014-11-22T09:31:08Z</time>
      </trkpt>
      <trkpt lat="45.48672" lon="6.02067">
        <ele>262</ele>
        <time>2014-11-22T09:31:12Z</time>
      </trkpt>
      <trkpt lat="45.48691" lon="6.02085">
        <ele>261</ele>
        <time>2014-11-22T09:31:16Z</time>
      </trkpt>
      <trkpt lat="45.48709" lon="6.021">
        <ele>261</ele>
        <time>2014-11-22T09:31:20Z</time>
      </trkpt>
      <trkpt lat="45.48727" lon="6.02116">
        <ele>261</ele>
        <time>2014-11-22T09:31:24Z</time>
      </trkpt>
      <trkpt lat="45.48747" lon="6.02129">
        <ele>261</ele>
        <time>2014-11-22T09:31:28Z</time>
      </trkpt>
      <trkpt lat="45.48768" lon="6.02137">
        <ele>261</ele>
        <time>2014-11-22T09:31:32Z</time>
      </trkpt>
      <trkpt lat="45.48788" lon="6.02145">
        <ele>261</ele>
        <time>2014-11-22T09:31:36Z</time>
      </trkpt>
      <trkpt lat="45.48808" lon="6.02153">
        <ele>261</ele>
        <time>2014-11-22T09:31:40Z</time>
      </trkpt>
      <trkpt lat="45.48828" lon="6.0216">
        <ele>261</ele>
        <time>2014-11-22T09:31:44Z</time>
      </trkpt>
      <trkpt lat="45.48848" lon="6.02168">
        <ele>262</ele>
        <time>2014-11-22T09:31:48Z</time>
      </trkpt>
      <trkpt lat="45.48865" lon="6.02179">
        <ele>262</ele>
        <time>2014-11-22T09:31:52Z</time>
      </trkpt>
      <trkpt lat="45.48883" lon="6.02195">
        <ele>262</ele>
        <time>2014-11-22T09:31:57Z</time>
      </trkpt>
      <trkpt lat="45.48899" lon="6.02213">
        <ele>262</ele>
        <time>2014-11-22T09:32:02Z</time>
      </trkpt>
      <trkpt lat="45.48913" lon="6.02232">
        <ele>263</ele>
        <time>2014-11-22T09:32:07Z</time>
      </trkpt>
      <trkpt lat="45.48925" lon="6.02255">
        <ele>263</ele>
        <time>2014-11-22T09:32:12Z</time>
      </trkpt>
      <trkpt lat="45.48938" lon="6.02279">
        <ele>262</ele>
        <time>2014-11-22T09:32:17Z</time>
      </trkpt>
      <trkpt lat="45.48947" lon="6.02303">
        <ele>262</ele>
        <time>2014-11-22T09:32:23Z</time>
      </trkpt>
      <trkpt lat="45.48957" lon="6.02326">
        <ele>262</ele>
        <time>2014-11-22T09:32:28Z</time>
      </trkpt>
      <trkpt lat="45.48968" lon="6.02353">
        <ele>262</ele>
        <time>2014-11-22T09:32:33Z</time>
      </trkpt>
      <trkpt lat="45.48979" lon="6.0238">
        <ele>262</ele>
        <time>2014-11-22T09:32:38Z</time>
      </trkpt>
      <trkpt lat="45.48988" lon="6.02403">
        <ele>262</ele>
        <time>2014-11-22T09:32:42Z</time>
      </trkpt>
      <trkpt lat="45.49001" lon="6.02425">
        <ele>262</ele>
        <time>2014-11-22T09:32:46Z</time>
      </trkpt>
      <trkpt lat="45.49016" lon="6.02447">
        <ele>262</ele>
        <time>2014-11-22T09:32:50Z</time>
      </trkpt>
      <trkpt lat="45.49035" lon="6.02469">
        <ele>262</ele>
        <time>2014-11-22T09:32:54Z</time>
      </trkpt>
      <trkpt lat="45.4905" lon="6.02487">
        <ele>262</ele>
        <time>2014-11-22T09:32:57Z</time>
      </trkpt>
      <trkpt lat="45.49067" lon="6.02507">
        <ele>263</ele>
        <time>2014-11-22T09:33:00Z</time>
      </trkpt>
      <trkpt lat="45.49085" lon="6.02528">
        <ele>263</ele>
        <time>2014-11-22T09:33:03Z</time>
      </trkpt>
      <trkpt lat="45.49103" lon="6.02548">
        <ele>263</ele>
        <time>2014-11-22T09:33:06Z</time>
      </trkpt>
      <trkpt lat="45.49122" lon="6.02568">
        <ele>263</ele>
        <time>2014-11-22T09:33:09Z</time>
      </trkpt>
      <trkpt lat="45.49139" lon="6.02586">
        <ele>262</ele>
        <time>2014-11-22T09:33:12Z</time>
      </trkpt>
      <trkpt lat="45.49154" lon="6.02603">
        <ele>262</ele>
        <time>2014-11-22T09:33:15Z</time>
      </trkpt>
      <trkpt lat="45.49169" lon="6.02619">
        <ele>262</ele>
        <time>2014-11-22T09:33:18Z</time>
      </trkpt>
      <trkpt lat="45.49187" lon="6.0264">
        <ele>261</ele>
        <time>2014-11-22T09:33:22Z</time>
      </trkpt>
      <trkpt lat="45.49205" lon="6.0266">
        <ele>261</ele>
        <time>2014-11-22T09:33:26Z</time>
      </trkpt>
      <trkpt lat="45.49223" lon="6.0268">
        <ele>261</ele>
        <time>2014-11-22T09:33:30Z</time>
      </trkpt>
      <trkpt lat="45.4924" lon="6.027">
        <ele>261</ele>
        <time>2014-11-22T09:33:34Z</time>
      </trkpt>
      <trkpt lat="45.49257" lon="6.0272">
        <ele>262</ele>
        <time>2014-11-22T09:33:38Z</time>
      </trkpt>
      <trkpt lat="45.49274" lon="6.02739">
        <ele>262</ele>
        <time>2014-11-22T09:33:42Z</time>
      </trkpt>
      <trkpt lat="45.49291" lon="6.02759">
        <ele>263</ele>
        <time>2014-11-22T09:33:46Z</time>
      </trkpt>
      <trkpt lat="45.49309" lon="6.02778">
        <ele>263</ele>
        <time>2014-11-22T09:33:50Z</time>
      </trkpt>
      <trkpt lat="45.49324" lon="6.02795">
        <ele>263</ele>
        <time>2014-11-22T09:33:54Z</time>
      </trkpt>
      <trkpt lat="45.49343" lon="6.02803">
        <ele>263</ele>
        <time>2014-11-22T09:33:59Z</time>
      </trkpt>
      <trkpt lat="45.49362" lon="6.0279">
        <ele>263</ele>
        <time>2014-11-22T09:34:04Z</time>
      </trkpt>
      <trkpt lat="45.49381" lon="6.02778">
        <ele>263</ele>
        <time>2014-11-22T09:34:08Z</time>
      </trkpt>
      <trkpt lat="45.49401" lon="6.02767">
        <ele>263</ele>
        <time>2014-11-22T09:34:12Z</time>
      </trkpt>
      <trkpt lat="45.49422" lon="6.02754">
        <ele>263</ele>
        <time>2014-11-22T09:34:16Z</time>
      </trkpt>
      <trkpt lat="45.49444" lon="6.0274">
        <ele>262</ele>
        <time>2014-11-22T09:34:20Z</time>
      </trkpt>
      <trkpt lat="45.49461" lon="6.02727">
        <ele>262</ele>
        <time>2014-11-22T09:34:24Z</time>
      </trkpt>
      <trkpt lat="45.4948" lon="6.0271">
        <ele>262</ele>
        <time>2014-11-22T09:34:28Z</time>
      </trkpt>
      <trkpt lat="45.495" lon="6.02694">
        <ele>262</ele>
        <time>2014-11-22T09:34:32Z</time>
      </trkpt>
      <trkpt lat="45.49519" lon="6.02677">
        <ele>262</ele>
        <time>2014-11-22T09:34:36Z</time>
      </trkpt>
      <trkpt lat="45.49539" lon="6.02659">
        <ele>262</ele>
        <time>2014-11-22T09:34:40Z</time>
      </trkpt>
      <trkpt lat="45.49558" lon="6.02639">
        <ele>262</ele>
        <time>2014-11-22T09:34:44Z</time>
      </trkpt>
      <trkpt lat="45.49577" lon="6.0262">
        <ele>262</ele>
        <time>2014-11-22T09:34:48Z</time>
      </trkpt>
      <trkpt lat="45.49592" lon="6.02605">
        <ele>261</ele>
        <time>2014-11-22T09:34:51Z</time>
      </trkpt>
      <trkpt lat="45.49612" lon="6.02587">
        <ele>261</ele>
        <time>2014-11-22T09:34:55Z</time>
      </trkpt>
      <trkpt lat="45.49632" lon="6.0257">
        <ele>261</ele>
        <time>2014-11-22T09:34:59Z</time>
      </trkpt>
      <trkpt lat="45.49651" lon="6.02553">
        <ele>260</ele>
        <time>2014-11-22T09:35:03Z</time>
      </trkpt>
      <trkpt lat="45.49668" lon="6.02538">
        <ele>260</ele>
        <time>2014-11-22T09:35:07Z</time>
      </trkpt>
      <trkpt lat="45.49685" lon="6.02521">
        <ele>261</ele>
        <time>2014-11-22T09:35:12Z</time>
      </trkpt>
      <trkpt lat="45.49699" lon="6.02503">
        <ele>261</ele>
        <time>2014-11-22T09:35:21Z</time>
      </trkpt>
      <trkpt lat="45.49683" lon="6.02521">
        <ele>261</ele>
        <time>2014-11-22T09:35:28Z</time>
      </trkpt>
      <trkpt lat="45.49667" lon="6.02543">
        <ele>260</ele>
        <time>2014-11-22T09:35:33Z</time>
      </trkpt>
      <trkpt lat="45.4968" lon="6.02569">
        <ele>260</ele>
        <time>2014-11-22T09:35:38Z</time>
      </trkpt>
      <trkpt lat="45.49695" lon="6.02588">
        <ele>260</ele>
        <time>2014-11-22T09:35:42Z</time>
      </trkpt>
      <trkpt lat="45.4971" lon="6.02609">
        <ele>261</ele>
        <time>2014-11-22T09:35:46Z</time>
      </trkpt>
      <trkpt lat="45.49724" lon="6.02634">
        <ele>261</ele>
        <time>2014-11-22T09:35:50Z</time>
      </trkpt>
      <trkpt lat="45.49735" lon="6.0266">
        <ele>262</ele>
        <time>2014-11-22T09:35:54Z</time>
      </trkpt>
      <trkpt lat="45.49745" lon="6.02686">
        <ele>262</ele>
        <time>2014-11-22T09:35:58Z</time>
      </trkpt>
      <trkpt lat="45.49756" lon="6.02711">
        <ele>264</ele>
        <time>2014-11-22T09:36:02Z</time>
      </trkpt>
      <trkpt lat="45.49768" lon="6.02737">
        <ele>264</ele>
        <time>2014-11-22T09:36:06Z</time>
      </trkpt>
      <trkpt lat="45.49778" lon="6.02762">
        <ele>264</ele>
        <time>2014-11-22T09:36:10Z</time>
      </trkpt>
      <trkpt lat="45.49789" lon="6.02788">
        <ele>264</ele>
        <time>2014-11-22T09:36:14Z</time>
      </trkpt>
      <trkpt lat="45.49799" lon="6.02815">
        <ele>264</ele>
        <time>2014-11-22T09:36:18Z</time>
      </trkpt>
      <trkpt lat="45.49807" lon="6.02843">
        <ele>265</ele>
        <time>2014-11-22T09:36:22Z</time>
      </trkpt>
      <trkpt lat="45.49813" lon="6.02872">
        <ele>265</ele>
        <time>2014-11-22T09:36:26Z</time>
      </trkpt>
      <trkpt lat="45.49816" lon="6.02899">
        <ele>265</ele>
        <time>2014-11-22T09:36:30Z</time>
      </trkpt>
      <trkpt lat="45.49836" lon="6.02908">
        <ele>268</ele>
        <time>2014-11-22T09:36:35Z</time>
      </trkpt>
      <trkpt lat="45.49856" lon="6.02913">
        <ele>271</ele>
        <time>2014-11-22T09:36:40Z</time>
      </trkpt>
      <trkpt lat="45.49871" lon="6.02932">
        <ele>275</ele>
        <time>2014-11-22T09:36:47Z</time>
      </trkpt>
      <trkpt lat="45.49874" lon="6.02961">
        <ele>275</ele>
        <time>2014-11-22T09:36:54Z</time>
      </trkpt>
      <trkpt lat="45.49873" lon="6.02988">
        <ele>275</ele>
        <time>2014-11-22T09:37:01Z</time>
      </trkpt>
      <trkpt lat="45.49874" lon="6.03015">
        <ele>276</ele>
        <time>2014-11-22T09:37:08Z</time>
      </trkpt>
      <trkpt lat="45.49875" lon="6.03042">
        <ele>276</ele>
        <time>2014-11-22T09:37:15Z</time>
      </trkpt>
      <trkpt lat="45.49877" lon="6.03071">
        <ele>277</ele>
        <time>2014-11-22T09:37:22Z</time>
      </trkpt>
      <trkpt lat="45.49876" lon="6.03099">
        <ele>277</ele>
        <time>2014-11-22T09:37:29Z</time>
      </trkpt>
      <trkpt lat="45.4987" lon="6.03126">
        <ele>277</ele>
        <time>2014-11-22T09:37:36Z</time>
      </trkpt>
      <trkpt lat="45.49887" lon="6.03111">
        <ele>278</ele>
        <time>2014-11-22T09:37:51Z</time>
      </trkpt>
      <trkpt lat="45.49893" lon="6.03084">
        <ele>280</ele>
        <time>2014-11-22T09:37:58Z</time>
      </trkpt>
      <trkpt lat="45.499" lon="6.03058">
        <ele>279</ele>
        <time>2014-11-22T09:38:05Z</time>
      </trkpt>
      <trkpt lat="45.49908" lon="6.03032">
        <ele>279</ele>
        <time>2014-11-22T09:38:13Z</time>
      </trkpt>
      <trkpt lat="45.49918" lon="6.03008">
        <ele>285</ele>
        <time>2014-11-22T09:38:21Z</time>
      </trkpt>
      <trkpt lat="45.49927" lon="6.02984">
        <ele>285</ele>
        <time>2014-11-22T09:38:33Z</time>
      </trkpt>
      <trkpt lat="45.49927" lon="6.03013">
        <ele>285</ele>
        <time>2014-11-22T09:38:50Z</time>
      </trkpt>
      <trkpt lat="45.49923" lon="6.0304">
        <ele>286</ele>
        <time>2014-11-22T09:38:56Z</time>
      </trkpt>
      <trkpt lat="45.49919" lon="6.03068">
        <ele>286</ele>
        <time>2014-11-22T09:39:03Z</time>
      </trkpt>
      <trkpt lat="45.49915" lon="6.03094">
        <ele>283</ele>
        <time>2014-11-22T09:39:09Z</time>
      </trkpt>
      <trkpt lat="45.4991" lon="6.03121">
        <ele>280</ele>
        <time>2014-11-22T09:39:16Z</time>
      </trkpt>
      <trkpt lat="45.49913" lon="6.03147">
        <ele>281</ele>
        <time>2014-11-22T09:39:24Z</time>
      </trkpt>
      <trkpt lat="45.49911" lon="6.03119">
        <ele>280</ele>
        <time>2014-11-22T09:41:43Z</time>
      </trkpt>
      <trkpt lat="45.49915" lon="6.03088">
        <ele>284</ele>
        <time>2014-11-22T09:41:48Z</time>
      </trkpt>
      <trkpt lat="45.4992" lon="6.03059">
        <ele>286</ele>
        <time>2014-11-22T09:41:53Z</time>
      </trkpt>
      <trkpt lat="45.49924" lon="6.03027">
        <ele>286</ele>
        <time>2014-11-22T09:41:58Z</time>
      </trkpt>
      <trkpt lat="45.49925" lon="6.02998">
        <ele>285</ele>
        <time>2014-11-22T09:42:02Z</time>
      </trkpt>
      <trkpt lat="45.49937" lon="6.02976">
        <ele>286</ele>
        <time>2014-11-22T09:42:07Z</time>
      </trkpt>
      <trkpt lat="45.49954" lon="6.02966">
        <ele>286</ele>
        <time>2014-11-22T09:42:12Z</time>
      </trkpt>
      <trkpt lat="45.49973" lon="6.02952">
        <ele>287</ele>
        <time>2014-11-22T09:42:17Z</time>
      </trkpt>
      <trkpt lat="45.49989" lon="6.02937">
        <ele>287</ele>
        <time>2014-11-22T09:42:21Z</time>
      </trkpt>
      <trkpt lat="45.50005" lon="6.02922">
        <ele>289</ele>
        <time>2014-11-22T09:42:25Z</time>
      </trkpt>
      <trkpt lat="45.50024" lon="6.02907">
        <ele>289</ele>
        <time>2014-11-22T09:42:29Z</time>
      </trkpt>
      <trkpt lat="45.50042" lon="6.0289">
        <ele>288</ele>
        <time>2014-11-22T09:42:33Z</time>
      </trkpt>
      <trkpt lat="45.50059" lon="6.02873">
        <ele>288</ele>
        <time>2014-11-22T09:42:37Z</time>
      </trkpt>
      <trkpt lat="45.50076" lon="6.02852">
        <ele>287</ele>
        <time>2014-11-22T09:42:41Z</time>
      </trkpt>
      <trkpt lat="45.5009" lon="6.02836">
        <ele>286</ele>
        <time>2014-11-22T09:42:44Z</time>
      </trkpt>
      <trkpt lat="45.50103" lon="6.02817">
        <ele>286</ele>
        <time>2014-11-22T09:42:47Z</time>
      </trkpt>
      <trkpt lat="45.50118" lon="6.02801">
        <ele>286</ele>
        <time>2014-11-22T09:42:50Z</time>
      </trkpt>
      <trkpt lat="45.50136" lon="6.02785">
        <ele>286</ele>
        <time>2014-11-22T09:42:54Z</time>
      </trkpt>
      <trkpt lat="45.50145" lon="6.02758">
        <ele>286</ele>
        <time>2014-11-22T09:42:58Z</time>
      </trkpt>
      <trkpt lat="45.50158" lon="6.02735">
        <ele>285</ele>
        <time>2014-11-22T09:43:02Z</time>
      </trkpt>
      <trkpt lat="45.50173" lon="6.02714">
        <ele>284</ele>
        <time>2014-11-22T09:43:06Z</time>
      </trkpt>
      <trkpt lat="45.50189" lon="6.02695">
        <ele>284</ele>
        <time>2014-11-22T09:43:10Z</time>
      </trkpt>
      <trkpt lat="45.50207" lon="6.02678">
        <ele>284</ele>
        <time>2014-11-22T09:43:14Z</time>
      </trkpt>
      <trkpt lat="45.50226" lon="6.02664">
        <ele>284</ele>
        <time>2014-11-22T09:43:18Z</time>
      </trkpt>
      <trkpt lat="45.50244" lon="6.02651">
        <ele>284</ele>
        <time>2014-11-22T09:43:22Z</time>
      </trkpt>
      <trkpt lat="45.50264" lon="6.0264">
        <ele>285</ele>
        <time>2014-11-22T09:43:26Z</time>
      </trkpt>
      <trkpt lat="45.50283" lon="6.02632">
        <ele>285</ele>
        <time>2014-11-22T09:43:30Z</time>
      </trkpt>
      <trkpt lat="45.50301" lon="6.02626">
        <ele>286</ele>
        <time>2014-11-22T09:43:34Z</time>
      </trkpt>
      <trkpt lat="45.50322" lon="6.02618">
        <ele>286</ele>
        <time>2014-11-22T09:43:39Z</time>
      </trkpt>
      <trkpt lat="45.50343" lon="6.02612">
        <ele>289</ele>
        <time>2014-11-22T09:43:44Z</time>
      </trkpt>
      <trkpt lat="45.50364" lon="6.02606">
        <ele>290</ele>
        <time>2014-11-22T09:43:49Z</time>
      </trkpt>
      <trkpt lat="45.50385" lon="6.02599">
        <ele>290</ele>
        <time>2014-11-22T09:43:54Z</time>
      </trkpt>
      <trkpt lat="45.50406" lon="6.02591">
        <ele>292</ele>
        <time>2014-11-22T09:43:59Z</time>
      </trkpt>
      <trkpt lat="45.50426" lon="6.02583">
        <ele>293</ele>
        <time>2014-11-22T09:44:04Z</time>
      </trkpt>
      <trkpt lat="45.50446" lon="6.02572">
        <ele>293</ele>
        <time>2014-11-22T09:44:09Z</time>
      </trkpt>
      <trkpt lat="45.50464" lon="6.02558">
        <ele>293</ele>
        <time>2014-11-22T09:44:14Z</time>
      </trkpt>
      <trkpt lat="45.50482" lon="6.02542">
        <ele>294</ele>
        <time>2014-11-22T09:44:19Z</time>
      </trkpt>
      <trkpt lat="45.50499" lon="6.02524">
        <ele>294</ele>
        <time>2014-11-22T09:44:24Z</time>
      </trkpt>
      <trkpt lat="45.50513" lon="6.02507">
        <ele>294</ele>
        <time>2014-11-22T09:44:28Z</time>
      </trkpt>
      <trkpt lat="45.50528" lon="6.02489">
        <ele>293</ele>
        <time>2014-11-22T09:44:32Z</time>
      </trkpt>
      <trkpt lat="45.50542" lon="6.02471">
        <ele>292</ele>
        <time>2014-11-22T09:44:36Z</time>
      </trkpt>
      <trkpt lat="45.50558" lon="6.02453">
        <ele>292</ele>
        <time>2014-11-22T09:44:40Z</time>
      </trkpt>
      <trkpt lat="45.50574" lon="6.0244">
        <ele>292</ele>
        <time>2014-11-22T09:44:43Z</time>
      </trkpt>
      <trkpt lat="45.50594" lon="6.02428">
        <ele>291</ele>
        <time>2014-11-22T09:44:46Z</time>
      </trkpt>
      <trkpt lat="45.50614" lon="6.02419">
        <ele>290</ele>
        <time>2014-11-22T09:44:49Z</time>
      </trkpt>
      <trkpt lat="45.50635" lon="6.0241">
        <ele>289</ele>
        <time>2014-11-22T09:44:52Z</time>
      </trkpt>
      <trkpt lat="45.50656" lon="6.02401">
        <ele>288</ele>
        <time>2014-11-22T09:44:55Z</time>
      </trkpt>
      <trkpt lat="45.50677" lon="6.02389">
        <ele>287</ele>
        <time>2014-11-22T09:44:58Z</time>
      </trkpt>
      <trkpt lat="45.50698" lon="6.02376">
        <ele>287</ele>
        <time>2014-11-22T09:45:01Z</time>
      </trkpt>
      <trkpt lat="45.50717" lon="6.02367">
        <ele>286</ele>
        <time>2014-11-22T09:45:05Z</time>
      </trkpt>
      <trkpt lat="45.50737" lon="6.02368">
        <ele>286</ele>
        <time>2014-11-22T09:45:34Z</time>
      </trkpt>
      <trkpt lat="45.50751" lon="6.02349">
        <ele>286</ele>
        <time>2014-11-22T09:45:39Z</time>
      </trkpt>
      <trkpt lat="45.50763" lon="6.02327">
        <ele>286</ele>
        <time>2014-11-22T09:45:44Z</time>
      </trkpt>
      <trkpt lat="45.50777" lon="6.02306">
        <ele>286</ele>
        <time>2014-11-22T09:45:49Z</time>
      </trkpt>
      <trkpt lat="45.50795" lon="6.02309">
        <ele>287</ele>
        <time>2014-11-22T09:45:55Z</time>
      </trkpt>
      <trkpt lat="45.50817" lon="6.02318">
        <ele>287</ele>
        <time>2014-11-22T09:46:01Z</time>
      </trkpt>
      <trkpt lat="45.50839" lon="6.0232">
        <ele>287</ele>
        <time>2014-11-22T09:46:05Z</time>
      </trkpt>
      <trkpt lat="45.50858" lon="6.02306">
        <ele>286</ele>
        <time>2014-11-22T09:46:09Z</time>
      </trkpt>
      <trkpt lat="45.50875" lon="6.0229">
        <ele>286</ele>
        <time>2014-11-22T09:46:13Z</time>
      </trkpt>
      <trkpt lat="45.50892" lon="6.02278">
        <ele>286</ele>
        <time>2014-11-22T09:46:17Z</time>
      </trkpt>
      <trkpt lat="45.5091" lon="6.02263">
        <ele>285</ele>
        <time>2014-11-22T09:46:22Z</time>
      </trkpt>
      <trkpt lat="45.50928" lon="6.02252">
        <ele>285</ele>
        <time>2014-11-22T09:46:27Z</time>
      </trkpt>
      <trkpt lat="45.50949" lon="6.02246">
        <ele>286</ele>
        <time>2014-11-22T09:46:32Z</time>
      </trkpt>
      <trkpt lat="45.50971" lon="6.02243">
        <ele>287</ele>
        <time>2014-11-22T09:46:37Z</time>
      </trkpt>
      <trkpt lat="45.50991" lon="6.02236">
        <ele>286</ele>
        <time>2014-11-22T09:46:42Z</time>
      </trkpt>
      <trkpt lat="45.5101" lon="6.0222">
        <ele>289</ele>
        <time>2014-11-22T09:46:47Z</time>
      </trkpt>
      <trkpt lat="45.51027" lon="6.02205">
        <ele>289</ele>
        <time>2014-11-22T09:46:52Z</time>
      </trkpt>
      <trkpt lat="45.51044" lon="6.02188">
        <ele>290</ele>
        <time>2014-11-22T09:46:57Z</time>
      </trkpt>
      <trkpt lat="45.51061" lon="6.02176">
        <ele>290</ele>
        <time>2014-11-22T09:47:02Z</time>
      </trkpt>
      <trkpt lat="45.5108" lon="6.02168">
        <ele>291</ele>
        <time>2014-11-22T09:47:08Z</time>
      </trkpt>
      <trkpt lat="45.51098" lon="6.02155">
        <ele>294</ele>
        <time>2014-11-22T09:47:15Z</time>
      </trkpt>
      <trkpt lat="45.51114" lon="6.02143">
        <ele>296</ele>
        <time>2014-11-22T09:47:23Z</time>
      </trkpt>
      <trkpt lat="45.51131" lon="6.02135">
        <ele>297</ele>
        <time>2014-11-22T09:47:30Z</time>
      </trkpt>
      <trkpt lat="45.51151" lon="6.02127">
        <ele>298</ele>
        <time>2014-11-22T09:47:37Z</time>
      </trkpt>
      <trkpt lat="45.51169" lon="6.02118">
        <ele>307</ele>
        <time>2014-11-22T09:47:45Z</time>
      </trkpt>
      <trkpt lat="45.51187" lon="6.0211">
        <ele>307</ele>
        <time>2014-11-22T09:47:54Z</time>
      </trkpt>
      <trkpt lat="45.51206" lon="6.02103">
        <ele>309</ele>
        <time>2014-11-22T09:48:04Z</time>
      </trkpt>
      <trkpt lat="45.51225" lon="6.02094">
        <ele>311</ele>
        <time>2014-11-22T09:48:14Z</time>
      </trkpt>
      <trkpt lat="45.51242" lon="6.02082">
        <ele>312</ele>
        <time>2014-11-22T09:48:23Z</time>
      </trkpt>
      <trkpt lat="45.51259" lon="6.0207">
        <ele>316</ele>
        <time>2014-11-22T09:48:32Z</time>
      </trkpt>
      <trkpt lat="45.51274" lon="6.02055">
        <ele>317</ele>
        <time>2014-11-22T09:48:41Z</time>
      </trkpt>
      <trkpt lat="45.51293" lon="6.02059">
        <ele>318</ele>
        <time>2014-11-22T09:49:18Z</time>
      </trkpt>
      <trkpt lat="45.51311" lon="6.02061">
        <ele>319</ele>
        <time>2014-11-22T09:56:09Z</time>
      </trkpt>
      <trkpt lat="45.51329" lon="6.02062">
        <ele>321</ele>
        <time>2014-11-22T09:56:19Z</time>
      </trkpt>
      <trkpt lat="45.51348" lon="6.02055">
        <ele>328</ele>
        <time>2014-11-22T09:56:28Z</time>
      </trkpt>
      <trkpt lat="45.51364" lon="6.02042">
        <ele>328</ele>
        <time>2014-11-22T09:56:37Z</time>
      </trkpt>
      <trkpt lat="45.5138" lon="6.02028">
        <ele>329</ele>
        <time>2014-11-22T09:56:46Z</time>
      </trkpt>
      <trkpt lat="45.51398" lon="6.02013">
        <ele>330</ele>
        <time>2014-11-22T09:56:55Z</time>
      </trkpt>
      <trkpt lat="45.51415" lon="6.02">
        <ele>331</ele>
        <time>2014-11-22T09:57:03Z</time>
      </trkpt>
      <trkpt lat="45.51432" lon="6.01986">
        <ele>334</ele>
        <time>2014-11-22T09:57:11Z</time>
      </trkpt>
      <trkpt lat="45.51449" lon="6.01973">
        <ele>336</ele>
        <time>2014-11-22T09:57:19Z</time>
      </trkpt>
      <trkpt lat="45.51467" lon="6.01959">
        <ele>337</ele>
        <time>2014-11-22T09:57:28Z</time>
      </trkpt>
      <trkpt lat="45.51483" lon="6.01944">
        <ele>338</ele>
        <time>2014-11-22T09:57:37Z</time>
      </trkpt>
      <trkpt lat="45.51498" lon="6.01926">
        <ele>340</ele>
        <time>2014-11-22T09:57:46Z</time>
      </trkpt>
      <trkpt lat="45.51513" lon="6.01909">
        <ele>343</ele>
        <time>2014-11-22T09:57:54Z</time>
      </trkpt>
      <trkpt lat="45.51532" lon="6.01898">
        <ele>344</ele>
        <time>2014-11-22T09:58:03Z</time>
      </trkpt>
      <trkpt lat="45.51548" lon="6.01887">
        <ele>345</ele>
        <time>2014-11-22T09:58:11Z</time>
      </trkpt>
      <trkpt lat="45.51567" lon="6.0188">
        <ele>346</ele>
        <time>2014-11-22T09:58:19Z</time>
      </trkpt>
      <trkpt lat="45.51585" lon="6.01873">
        <ele>352</ele>
        <time>2014-11-22T09:58:26Z</time>
      </trkpt>
      <trkpt lat="45.51602" lon="6.01863">
        <ele>351</ele>
        <time>2014-11-22T09:58:33Z</time>
      </trkpt>
      <trkpt lat="45.51619" lon="6.01852">
        <ele>352</ele>
        <time>2014-11-22T09:58:40Z</time>
      </trkpt>
      <trkpt lat="45.51638" lon="6.01843">
        <ele>352</ele>
        <time>2014-11-22T09:58:48Z</time>
      </trkpt>
      <trkpt lat="45.51656" lon="6.01836">
        <ele>352</ele>
        <time>2014-11-22T09:58:54Z</time>
      </trkpt>
      <trkpt lat="45.51673" lon="6.01825">
        <ele>350</ele>
        <time>2014-11-22T09:58:59Z</time>
      </trkpt>
      <trkpt lat="45.51693" lon="6.01826">
        <ele>350</ele>
        <time>2014-11-22T09:59:07Z</time>
      </trkpt>
      <trkpt lat="45.51712" lon="6.01833">
        <ele>351</ele>
        <time>2014-11-22T09:59:16Z</time>
      </trkpt>
      <trkpt lat="45.51729" lon="6.0184">
        <ele>358</ele>
        <time>2014-11-22T09:59:25Z</time>
      </trkpt>
      <trkpt lat="45.51746" lon="6.01853">
        <ele>358</ele>
        <time>2014-11-22T09:59:36Z</time>
      </trkpt>
      <trkpt lat="45.51763" lon="6.01843">
        <ele>362</ele>
        <time>2014-11-22T09:59:44Z</time>
      </trkpt>
      <trkpt lat="45.51782" lon="6.01837">
        <ele>365</ele>
        <time>2014-11-22T09:59:51Z</time>
      </trkpt>
      <trkpt lat="45.51801" lon="6.0183">
        <ele>360</ele>
        <time>2014-11-22T10:00:00Z</time>
      </trkpt>
      <trkpt lat="45.51818" lon="6.01824">
        <ele>363</ele>
        <time>2014-11-22T10:00:09Z</time>
      </trkpt>
      <trkpt lat="45.51838" lon="6.01821">
        <ele>369</ele>
        <time>2014-11-22T10:00:20Z</time>
      </trkpt>
      <trkpt lat="45.51856" lon="6.01817">
        <ele>370</ele>
        <time>2014-11-22T10:00:31Z</time>
      </trkpt>
      <trkpt lat="45.51874" lon="6.01808">
        <ele>372</ele>
        <time>2014-11-22T10:00:42Z</time>
      </trkpt>
      <trkpt lat="45.51891" lon="6.01795">
        <ele>373</ele>
        <time>2014-11-22T10:00:53Z</time>
      </trkpt>
      <trkpt lat="45.51908" lon="6.01781">
        <ele>373</ele>
        <time>2014-11-22T10:01:05Z</time>
      </trkpt>
      <trkpt lat="45.51922" lon="6.01763">
        <ele>379</ele>
        <time>2014-11-22T10:01:16Z</time>
      </trkpt>
      <trkpt lat="45.51936" lon="6.01746">
        <ele>376</ele>
        <time>2014-11-22T10:01:26Z</time>
      </trkpt>
      <trkpt lat="45.51951" lon="6.01731">
        <ele>378</ele>
        <time>2014-11-22T10:01:35Z</time>
      </trkpt>
      <trkpt lat="45.51966" lon="6.01715">
        <ele>378</ele>
        <time>2014-11-22T10:01:44Z</time>
      </trkpt>
      <trkpt lat="45.51982" lon="6.01699">
        <ele>379</ele>
        <time>2014-11-22T10:01:53Z</time>
      </trkpt>
      <trkpt lat="45.51997" lon="6.01684">
        <ele>380</ele>
        <time>2014-11-22T10:02:02Z</time>
      </trkpt>
      <trkpt lat="45.52012" lon="6.01665">
        <ele>381</ele>
        <time>2014-11-22T10:02:11Z</time>
      </trkpt>
      <trkpt lat="45.52024" lon="6.01645">
        <ele>381</ele>
        <time>2014-11-22T10:02:18Z</time>
      </trkpt>
      <trkpt lat="45.52038" lon="6.01627">
        <ele>381</ele>
        <time>2014-11-22T10:02:24Z</time>
      </trkpt>
      <trkpt lat="45.52053" lon="6.0161">
        <ele>381</ele>
        <time>2014-11-22T10:02:30Z</time>
      </trkpt>
      <trkpt lat="45.5207" lon="6.016">
        <ele>382</ele>
        <time>2014-11-22T10:02:35Z</time>
      </trkpt>
      <trkpt lat="45.52088" lon="6.01592">
        <ele>384</ele>
        <time>2014-11-22T10:02:40Z</time>
      </trkpt>
      <trkpt lat="45.52108" lon="6.01582">
        <ele>381</ele>
        <time>2014-11-22T10:02:46Z</time>
      </trkpt>
      <trkpt lat="45.52127" lon="6.0158">
        <ele>381</ele>
        <time>2014-11-22T10:02:52Z</time>
      </trkpt>
      <trkpt lat="45.52147" lon="6.01579">
        <ele>382</ele>
        <time>2014-11-22T10:03:00Z</time>
      </trkpt>
      <trkpt lat="45.52165" lon="6.01577">
        <ele>384</ele>
        <time>2014-11-22T10:03:08Z</time>
      </trkpt>
      <trkpt lat="45.52183" lon="6.01586">
        <ele>392</ele>
        <time>2014-11-22T10:03:18Z</time>
      </trkpt>
      <trkpt lat="45.52201" lon="6.01592">
        <ele>396</ele>
        <time>2014-11-22T10:03:30Z</time>
      </trkpt>
      <trkpt lat="45.52215" lon="6.01574">
        <ele>392</ele>
        <time>2014-11-22T10:03:41Z</time>
      </trkpt>
      <trkpt lat="45.52223" lon="6.01545">
        <ele>391</ele>
        <time>2014-11-22T10:03:47Z</time>
      </trkpt>
      <trkpt lat="45.52232" lon="6.01518">
        <ele>390</ele>
        <time>2014-11-22T10:03:51Z</time>
      </trkpt>
      <trkpt lat="45.52242" lon="6.01489">
        <ele>388</ele>
        <time>2014-11-22T10:03:55Z</time>
      </trkpt>
      <trkpt lat="45.52254" lon="6.01459">
        <ele>390</ele>
        <time>2014-11-22T10:03:59Z</time>
      </trkpt>
      <trkpt lat="45.52264" lon="6.0143">
        <ele>388</ele>
        <time>2014-11-22T10:04:03Z</time>
      </trkpt>
      <trkpt lat="45.52278" lon="6.01403">
        <ele>383</ele>
        <time>2014-11-22T10:04:07Z</time>
      </trkpt>
      <trkpt lat="45.52294" lon="6.01389">
        <ele>383</ele>
        <time>2014-11-22T10:04:10Z</time>
      </trkpt>
      <trkpt lat="45.5231" lon="6.01377">
        <ele>383</ele>
        <time>2014-11-22T10:04:13Z</time>
      </trkpt>
      <trkpt lat="45.52329" lon="6.01365">
        <ele>383</ele>
        <time>2014-11-22T10:04:17Z</time>
      </trkpt>
      <trkpt lat="45.52346" lon="6.0135">
        <ele>386</ele>
        <time>2014-11-22T10:04:21Z</time>
      </trkpt>
      <trkpt lat="45.52361" lon="6.01335">
        <ele>386</ele>
        <time>2014-11-22T10:04:24Z</time>
      </trkpt>
      <trkpt lat="45.52379" lon="6.01323">
        <ele>381</ele>
        <time>2014-11-22T10:04:27Z</time>
      </trkpt>
      <trkpt lat="45.52396" lon="6.01315">
        <ele>382</ele>
        <time>2014-11-22T10:04:33Z</time>
      </trkpt>
      <trkpt lat="45.52404" lon="6.0129">
        <ele>380</ele>
        <time>2014-11-22T10:04:47Z</time>
      </trkpt>
      <trkpt lat="45.52421" lon="6.01275">
        <ele>383</ele>
        <time>2014-11-22T10:04:53Z</time>
      </trkpt>
      <trkpt lat="45.52438" lon="6.01266">
        <ele>383</ele>
        <time>2014-11-22T10:04:58Z</time>
      </trkpt>
      <trkpt lat="45.52456" lon="6.0126">
        <ele>385</ele>
        <time>2014-11-22T10:05:08Z</time>
      </trkpt>
      <trkpt lat="45.52473" lon="6.01247">
        <ele>382</ele>
        <time>2014-11-22T10:05:18Z</time>
      </trkpt>
      <trkpt lat="45.52489" lon="6.01235">
        <ele>383</ele>
        <time>2014-11-22T10:05:26Z</time>
      </trkpt>
      <trkpt lat="45.52502" lon="6.01215">
        <ele>389</ele>
        <time>2014-11-22T10:05:35Z</time>
      </trkpt>
      <trkpt lat="45.52514" lon="6.01193">
        <ele>388</ele>
        <time>2014-11-22T10:05:43Z</time>
      </trkpt>
      <trkpt lat="45.52528" lon="6.01172">
        <ele>387</ele>
        <time>2014-11-22T10:05:50Z</time>
      </trkpt>
      <trkpt lat="45.52544" lon="6.01155">
        <ele>383</ele>
        <time>2014-11-22T10:05:56Z</time>
      </trkpt>
      <trkpt lat="45.52561" lon="6.0114">
        <ele>384</ele>
        <time>2014-11-22T10:06:02Z</time>
      </trkpt>
      <trkpt lat="45.52582" lon="6.01131">
        <ele>384</ele>
        <time>2014-11-22T10:06:08Z</time>
      </trkpt>
      <trkpt lat="45.526" lon="6.01128">
        <ele>387</ele>
        <time>2014-11-22T10:06:13Z</time>
      </trkpt>
      <trkpt lat="45.52621" lon="6.0113">
        <ele>387</ele>
        <time>2014-11-22T10:06:19Z</time>
      </trkpt>
      <trkpt lat="45.5264" lon="6.01133">
        <ele>387</ele>
        <time>2014-11-22T10:06:25Z</time>
      </trkpt>
      <trkpt lat="45.52661" lon="6.01138">
        <ele>387</ele>
        <time>2014-11-22T10:06:31Z</time>
      </trkpt>
      <trkpt lat="45.52682" lon="6.01143">
        <ele>388</ele>
        <time>2014-11-22T10:06:36Z</time>
      </trkpt>
      <trkpt lat="45.527" lon="6.0115">
        <ele>388</ele>
        <time>2014-11-22T10:06:40Z</time>
      </trkpt>
      <trkpt lat="45.52718" lon="6.01156">
        <ele>388</ele>
        <time>2014-11-22T10:06:44Z</time>
      </trkpt>
      <trkpt lat="45.52739" lon="6.01158">
        <ele>389</ele>
        <time>2014-11-22T10:06:49Z</time>
      </trkpt>
      <trkpt lat="45.52758" lon="6.01159">
        <ele>391</ele>
        <time>2014-11-22T10:06:54Z</time>
      </trkpt>
      <trkpt lat="45.52778" lon="6.0116">
        <ele>391</ele>
        <time>2014-11-22T10:07:00Z</time>
      </trkpt>
      <trkpt lat="45.52798" lon="6.01161">
        <ele>391</ele>
        <time>2014-11-22T10:07:06Z</time>
      </trkpt>
      <trkpt lat="45.52818" lon="6.01164">
        <ele>392</ele>
        <time>2014-11-22T10:07:13Z</time>
      </trkpt>
      <trkpt lat="45.52839" lon="6.01167">
        <ele>397</ele>
        <time>2014-11-22T10:07:19Z</time>
      </trkpt>
      <trkpt lat="45.52858" lon="6.01175">
        <ele>402</ele>
        <time>2014-11-22T10:07:24Z</time>
      </trkpt>
      <trkpt lat="45.52878" lon="6.01174">
        <ele>404</ele>
        <time>2014-11-22T10:07:31Z</time>
      </trkpt>
      <trkpt lat="45.52896" lon="6.01167">
        <ele>404</ele>
        <time>2014-11-22T10:07:38Z</time>
      </trkpt>
      <trkpt lat="45.52913" lon="6.0116">
        <ele>401</ele>
        <time>2014-11-22T10:07:48Z</time>
      </trkpt>
      <trkpt lat="45.5293" lon="6.01152">
        <ele>405</ele>
        <time>2014-11-22T10:07:57Z</time>
      </trkpt>
      <trkpt lat="45.52949" lon="6.01143">
        <ele>406</ele>
        <time>2014-11-22T10:08:07Z</time>
      </trkpt>
      <trkpt lat="45.52966" lon="6.01132">
        <ele>407</ele>
        <time>2014-11-22T10:08:16Z</time>
      </trkpt>
      <trkpt lat="45.52983" lon="6.01123">
        <ele>407</ele>
        <time>2014-11-22T10:08:25Z</time>
      </trkpt>
      <trkpt lat="45.53002" lon="6.01114">
        <ele>414</ele>
        <time>2014-11-22T10:08:35Z</time>
      </trkpt>
      <trkpt lat="45.53019" lon="6.01105">
        <ele>414</ele>
        <time>2014-11-22T10:08:44Z</time>
      </trkpt>
      <trkpt lat="45.53038" lon="6.011">
        <ele>416</ele>
        <time>2014-11-22T10:08:54Z</time>
      </trkpt>
      <trkpt lat="45.53057" lon="6.01099">
        <ele>417</ele>
        <time>2014-11-22T10:09:04Z</time>
      </trkpt>
      <trkpt lat="45.53076" lon="6.01096">
        <ele>417</ele>
        <time>2014-11-22T10:09:13Z</time>
      </trkpt>
      <trkpt lat="45.53095" lon="6.01092">
        <ele>423</ele>
        <time>2014-11-22T10:09:20Z</time>
      </trkpt>
      <trkpt lat="45.53113" lon="6.01086">
        <ele>427</ele>
        <time>2014-11-22T10:09:26Z</time>
      </trkpt>
      <trkpt lat="45.5313" lon="6.01076">
        <ele>419</ele>
        <time>2014-11-22T10:09:32Z</time>
      </trkpt>
      <trkpt lat="45.53148" lon="6.01063">
        <ele>420</ele>
        <time>2014-11-22T10:09:39Z</time>
      </trkpt>
      <trkpt lat="45.53166" lon="6.01056">
        <ele>420</ele>
        <time>2014-11-22T10:09:46Z</time>
      </trkpt>
      <trkpt lat="45.53185" lon="6.01049">
        <ele>427</ele>
        <time>2014-11-22T10:09:54Z</time>
      </trkpt>
      <trkpt lat="45.53204" lon="6.01043">
        <ele>427</ele>
        <time>2014-11-22T10:10:02Z</time>
      </trkpt>
      <trkpt lat="45.53222" lon="6.01036">
        <ele>428</ele>
        <time>2014-11-22T10:10:09Z</time>
      </trkpt>
      <trkpt lat="45.5324" lon="6.01025">
        <ele>428</ele>
        <time>2014-11-22T10:10:16Z</time>
      </trkpt>
      <trkpt lat="45.53257" lon="6.01016">
        <ele>432</ele>
        <time>2014-11-22T10:10:22Z</time>
      </trkpt>
      <trkpt lat="45.53277" lon="6.01003">
        <ele>433</ele>
        <time>2014-11-22T10:10:27Z</time>
      </trkpt>
      <trkpt lat="45.53295" lon="6.00993">
        <ele>427</ele>
        <time>2014-11-22T10:10:32Z</time>
      </trkpt>
      <trkpt lat="45.53315" lon="6.0098">
        <ele>428</ele>
        <time>2014-11-22T10:10:37Z</time>
      </trkpt>
      <trkpt lat="45.53331" lon="6.00967">
        <ele>428</ele>
        <time>2014-11-22T10:10:42Z</time>
      </trkpt>
      <trkpt lat="45.53347" lon="6.00949">
        <ele>431</ele>
        <time>2014-11-22T10:10:48Z</time>
      </trkpt>
      <trkpt lat="45.53365" lon="6.00944">
        <ele>431</ele>
        <time>2014-11-22T10:10:54Z</time>
      </trkpt>
      <trkpt lat="45.53386" lon="6.00941">
        <ele>431</ele>
        <time>2014-11-22T10:10:59Z</time>
      </trkpt>
      <trkpt lat="45.53406" lon="6.00939">
        <ele>431</ele>
        <time>2014-11-22T10:11:03Z</time>
      </trkpt>
      <trkpt lat="45.5343" lon="6.00936">
        <ele>432</ele>
        <time>2014-11-22T10:11:07Z</time>
      </trkpt>
      <trkpt lat="45.5345" lon="6.00929">
        <ele>432</ele>
        <time>2014-11-22T10:11:10Z</time>
      </trkpt>
      <trkpt lat="45.53469" lon="6.00917">
        <ele>431</ele>
        <time>2014-11-22T10:11:13Z</time>
      </trkpt>
      <trkpt lat="45.53489" lon="6.00906">
        <ele>426</ele>
        <time>2014-11-22T10:11:16Z</time>
      </trkpt>
      <trkpt lat="45.53506" lon="6.00895">
        <ele>427</ele>
        <time>2014-11-22T10:11:19Z</time>
      </trkpt>
      <trkpt lat="45.53522" lon="6.00878">
        <ele>426</ele>
        <time>2014-11-22T10:11:22Z</time>
      </trkpt>
      <trkpt lat="45.53536" lon="6.00858">
        <ele>426</ele>
        <time>2014-11-22T10:11:25Z</time>
      </trkpt>
      <trkpt lat="45.53551" lon="6.00837">
        <ele>425</ele>
        <time>2014-11-22T10:11:28Z</time>
      </trkpt>
      <trkpt lat="45.53567" lon="6.0082">
        <ele>422</ele>
        <time>2014-11-22T10:11:31Z</time>
      </trkpt>
      <trkpt lat="45.53587" lon="6.00801">
        <ele>422</ele>
        <time>2014-11-22T10:11:35Z</time>
      </trkpt>
      <trkpt lat="45.53603" lon="6.00786">
        <ele>422</ele>
        <time>2014-11-22T10:11:39Z</time>
      </trkpt>
      <trkpt lat="45.53623" lon="6.00771">
        <ele>422</ele>
        <time>2014-11-22T10:11:44Z</time>
      </trkpt>
      <trkpt lat="45.5364" lon="6.0076">
        <ele>422</ele>
        <time>2014-11-22T10:11:48Z</time>
      </trkpt>
      <trkpt lat="45.53656" lon="6.0075">
        <ele>420</ele>
        <time>2014-11-22T10:11:52Z</time>
      </trkpt>
      <trkpt lat="45.53675" lon="6.00734">
        <ele>420</ele>
        <time>2014-11-22T10:11:57Z</time>
      </trkpt>
      <trkpt lat="45.5369" lon="6.00718">
        <ele>420</ele>
        <time>2014-11-22T10:12:01Z</time>
      </trkpt>
      <trkpt lat="45.53704" lon="6.00701">
        <ele>420</ele>
        <time>2014-11-22T10:12:05Z</time>
      </trkpt>
      <trkpt lat="45.53719" lon="6.00684">
        <ele>420</ele>
        <time>2014-11-22T10:12:09Z</time>
      </trkpt>
      <trkpt lat="45.53735" lon="6.00669">
        <ele>419</ele>
        <time>2014-11-22T10:12:13Z</time>
      </trkpt>
      <trkpt lat="45.53752" lon="6.00657">
        <ele>419</ele>
        <time>2014-11-22T10:12:17Z</time>
      </trkpt>
      <trkpt lat="45.53769" lon="6.00646">
        <ele>419</ele>
        <time>2014-11-22T10:12:21Z</time>
      </trkpt>
      <trkpt lat="45.53787" lon="6.00636">
        <ele>420</ele>
        <time>2014-11-22T10:12:25Z</time>
      </trkpt>
      <trkpt lat="45.53804" lon="6.00628">
        <ele>420</ele>
        <time>2014-11-22T10:12:29Z</time>
      </trkpt>
      <trkpt lat="45.53824" lon="6.00618">
        <ele>420</ele>
        <time>2014-11-22T10:12:33Z</time>
      </trkpt>
      <trkpt lat="45.53846" lon="6.00608">
        <ele>419</ele>
        <time>2014-11-22T10:12:37Z</time>
      </trkpt>
      <trkpt lat="45.53863" lon="6.00599">
        <ele>419</ele>
        <time>2014-11-22T10:12:40Z</time>
      </trkpt>
      <trkpt lat="45.53881" lon="6.0059">
        <ele>419</ele>
        <time>2014-11-22T10:12:43Z</time>
      </trkpt>
      <trkpt lat="45.53897" lon="6.00577">
        <ele>419</ele>
        <time>2014-11-22T10:12:46Z</time>
      </trkpt>
      <trkpt lat="45.53913" lon="6.00565">
        <ele>419</ele>
        <time>2014-11-22T10:12:49Z</time>
      </trkpt>
      <trkpt lat="45.53932" lon="6.0055">
        <ele>418</ele>
        <time>2014-11-22T10:12:53Z</time>
      </trkpt>
      <trkpt lat="45.5395" lon="6.00537">
        <ele>418</ele>
        <time>2014-11-22T10:12:57Z</time>
      </trkpt>
      <trkpt lat="45.53968" lon="6.00527">
        <ele>418</ele>
        <time>2014-11-22T10:13:01Z</time>
      </trkpt>
      <trkpt lat="45.53985" lon="6.00539">
        <ele>418</ele>
        <time>2014-11-22T10:13:07Z</time>
      </trkpt>
      <trkpt lat="45.53987" lon="6.00566">
        <ele>417</ele>
        <time>2014-11-22T10:13:12Z</time>
      </trkpt>
      <trkpt lat="45.53988" lon="6.00595">
        <ele>418</ele>
        <time>2014-11-22T10:13:17Z</time>
      </trkpt>
      <trkpt lat="45.5399" lon="6.00623">
        <ele>418</ele>
        <time>2014-11-22T10:13:23Z</time>
      </trkpt>
      <trkpt lat="45.53993" lon="6.00653">
        <ele>418</ele>
        <time>2014-11-22T10:13:29Z</time>
      </trkpt>
      <trkpt lat="45.53995" lon="6.00682">
        <ele>422</ele>
        <time>2014-11-22T10:13:35Z</time>
      </trkpt>
      <trkpt lat="45.54" lon="6.00708">
        <ele>425</ele>
        <time>2014-11-22T10:13:42Z</time>
      </trkpt>
      <trkpt lat="45.5401" lon="6.00732">
        <ele>431</ele>
        <time>2014-11-22T10:13:50Z</time>
      </trkpt>
      <trkpt lat="45.54026" lon="6.00748">
        <ele>431</ele>
        <time>2014-11-22T10:13:59Z</time>
      </trkpt>
      <trkpt lat="45.54044" lon="6.00749">
        <ele>432</ele>
        <time>2014-11-22T10:14:08Z</time>
      </trkpt>
      <trkpt lat="45.54064" lon="6.00747">
        <ele>435</ele>
        <time>2014-11-22T10:14:16Z</time>
      </trkpt>
      <trkpt lat="45.54082" lon="6.00743">
        <ele>438</ele>
        <time>2014-11-22T10:14:25Z</time>
      </trkpt>
      <trkpt lat="45.54101" lon="6.00739">
        <ele>441</ele>
        <time>2014-11-22T10:14:34Z</time>
      </trkpt>
      <trkpt lat="45.5412" lon="6.00738">
        <ele>442</ele>
        <time>2014-11-22T10:14:43Z</time>
      </trkpt>
      <trkpt lat="45.54138" lon="6.00728">
        <ele>444</ele>
        <time>2014-11-22T10:14:52Z</time>
      </trkpt>
      <trkpt lat="45.54154" lon="6.00715">
        <ele>443</ele>
        <time>2014-11-22T10:15:01Z</time>
      </trkpt>
      <trkpt lat="45.54171" lon="6.00704">
        <ele>451</ele>
        <time>2014-11-22T10:15:09Z</time>
      </trkpt>
      <trkpt lat="45.54188" lon="6.00693">
        <ele>450</ele>
        <time>2014-11-22T10:15:18Z</time>
      </trkpt>
      <trkpt lat="45.54203" lon="6.00673">
        <ele>450</ele>
        <time>2014-11-22T10:15:26Z</time>
      </trkpt>
      <trkpt lat="45.5422" lon="6.00662">
        <ele>442</ele>
        <time>2014-11-22T10:15:35Z</time>
      </trkpt>
      <trkpt lat="45.54238" lon="6.00655">
        <ele>445</ele>
        <time>2014-11-22T10:15:44Z</time>
      </trkpt>
      <trkpt lat="45.54257" lon="6.00649">
        <ele>449</ele>
        <time>2014-11-22T10:15:53Z</time>
      </trkpt>
      <trkpt lat="45.54275" lon="6.00645">
        <ele>449</ele>
        <time>2014-11-22T10:16:01Z</time>
      </trkpt>
      <trkpt lat="45.54294" lon="6.0064">
        <ele>450</ele>
        <time>2014-11-22T10:16:10Z</time>
      </trkpt>
      <trkpt lat="45.54313" lon="6.00639">
        <ele>451</ele>
        <time>2014-11-22T10:16:18Z</time>
      </trkpt>
      <trkpt lat="45.54301" lon="6.00661">
        <ele>452</ele>
        <time>2014-11-22T10:16:30Z</time>
      </trkpt>
      <trkpt lat="45.54286" lon="6.00676">
        <ele>461</ele>
        <time>2014-11-22T10:16:38Z</time>
      </trkpt>
      <trkpt lat="45.5427" lon="6.00695">
        <ele>461</ele>
        <time>2014-11-22T10:16:47Z</time>
      </trkpt>
      <trkpt lat="45.54261" lon="6.00719">
        <ele>464</ele>
        <time>2014-11-22T10:16:56Z</time>
      </trkpt>
      <trkpt lat="45.54279" lon="6.00721">
        <ele>465</ele>
        <time>2014-11-22T10:17:06Z</time>
      </trkpt>
      <trkpt lat="45.54294" lon="6.00708">
        <ele>464</ele>
        <time>2014-11-22T10:17:13Z</time>
      </trkpt>
      <trkpt lat="45.54312" lon="6.00698">
        <ele>464</ele>
        <time>2014-11-22T10:17:21Z</time>
      </trkpt>
      <trkpt lat="45.5433" lon="6.00692">
        <ele>464</ele>
        <time>2014-11-22T10:17:29Z</time>
      </trkpt>
      <trkpt lat="45.5435" lon="6.00689">
        <ele>472</ele>
        <time>2014-11-22T10:17:38Z</time>
      </trkpt>
      <trkpt lat="45.54368" lon="6.00689">
        <ele>474</ele>
        <time>2014-11-22T10:17:46Z</time>
      </trkpt>
      <trkpt lat="45.54387" lon="6.00685">
        <ele>476</ele>
        <time>2014-11-22T10:17:54Z</time>
      </trkpt>
      <trkpt lat="45.54406" lon="6.00684">
        <ele>477</ele>
        <time>2014-11-22T10:18:02Z</time>
      </trkpt>
      <trkpt lat="45.54424" lon="6.00679">
        <ele>484</ele>
        <time>2014-11-22T10:18:11Z</time>
      </trkpt>
      <trkpt lat="45.54439" lon="6.00661">
        <ele>479</ele>
        <time>2014-11-22T10:18:19Z</time>
      </trkpt>
      <trkpt lat="45.54448" lon="6.00637">
        <ele>479</ele>
        <time>2014-11-22T10:18:27Z</time>
      </trkpt>
      <trkpt lat="45.54452" lon="6.00609">
        <ele>477</ele>
        <time>2014-11-22T10:18:35Z</time>
      </trkpt>
      <trkpt lat="45.54462" lon="6.00588">
        <ele>478</ele>
        <time>2014-11-22T10:18:43Z</time>
      </trkpt>
      <trkpt lat="45.54479" lon="6.00573">
        <ele>472</ele>
        <time>2014-11-22T10:18:52Z</time>
      </trkpt>
      <trkpt lat="45.54497" lon="6.00562">
        <ele>473</ele>
        <time>2014-11-22T10:19:01Z</time>
      </trkpt>
      <trkpt lat="45.54516" lon="6.00557">
        <ele>482</ele>
        <time>2014-11-22T10:19:11Z</time>
      </trkpt>
      <trkpt lat="45.54534" lon="6.00559">
        <ele>483</ele>
        <time>2014-11-22T10:19:20Z</time>
      </trkpt>
      <trkpt lat="45.54552" lon="6.00567">
        <ele>486</ele>
        <time>2014-11-22T10:19:29Z</time>
      </trkpt>
      <trkpt lat="45.54572" lon="6.00573">
        <ele>490</ele>
        <time>2014-11-22T10:19:39Z</time>
      </trkpt>
      <trkpt lat="45.5459" lon="6.00577">
        <ele>497</ele>
        <time>2014-11-22T10:19:48Z</time>
      </trkpt>
      <trkpt lat="45.54609" lon="6.00581">
        <ele>498</ele>
        <time>2014-11-22T10:19:57Z</time>
      </trkpt>
      <trkpt lat="45.54629" lon="6.00583">
        <ele>505</ele>
        <time>2014-11-22T10:20:06Z</time>
      </trkpt>
      <trkpt lat="45.54647" lon="6.00588">
        <ele>504</ele>
        <time>2014-11-22T10:20:14Z</time>
      </trkpt>
      <trkpt lat="45.54665" lon="6.00598">
        <ele>504</ele>
        <time>2014-11-22T10:20:22Z</time>
      </trkpt>
      <trkpt lat="45.54681" lon="6.0061">
        <ele>512</ele>
        <time>2014-11-22T10:20:30Z</time>
      </trkpt>
      <trkpt lat="45.54694" lon="6.00631">
        <ele>515</ele>
        <time>2014-11-22T10:20:38Z</time>
      </trkpt>
      <trkpt lat="45.54706" lon="6.00655">
        <ele>516</ele>
        <time>2014-11-22T10:20:46Z</time>
      </trkpt>
      <trkpt lat="45.54721" lon="6.00673">
        <ele>523</ele>
        <time>2014-11-22T10:20:55Z</time>
      </trkpt>
      <trkpt lat="45.54739" lon="6.00682">
        <ele>522</ele>
        <time>2014-11-22T10:21:04Z</time>
      </trkpt>
      <trkpt lat="45.54756" lon="6.00674">
        <ele>520</ele>
        <time>2014-11-22T10:21:12Z</time>
      </trkpt>
      <trkpt lat="45.54758" lon="6.00646">
        <ele>528</ele>
        <time>2014-11-22T10:21:19Z</time>
      </trkpt>
      <trkpt lat="45.54776" lon="6.00656">
        <ele>531</ele>
        <time>2014-11-22T10:21:38Z</time>
      </trkpt>
      <trkpt lat="45.54782" lon="6.00682">
        <ele>529</ele>
        <time>2014-11-22T10:21:46Z</time>
      </trkpt>
      <trkpt lat="45.54792" lon="6.00704">
        <ele>531</ele>
        <time>2014-11-22T10:21:54Z</time>
      </trkpt>
      <trkpt lat="45.54805" lon="6.00722">
        <ele>532</ele>
        <time>2014-11-22T10:22:03Z</time>
      </trkpt>
      <trkpt lat="45.54819" lon="6.00743">
        <ele>532</ele>
        <time>2014-11-22T10:22:13Z</time>
      </trkpt>
      <trkpt lat="45.5483" lon="6.00766">
        <ele>536</ele>
        <time>2014-11-22T10:22:22Z</time>
      </trkpt>
      <trkpt lat="45.54835" lon="6.00741">
        <ele>539</ele>
        <time>2014-11-22T10:22:33Z</time>
      </trkpt>
      <trkpt lat="45.54825" lon="6.00719">
        <ele>533</ele>
        <time>2014-11-22T10:22:41Z</time>
      </trkpt>
      <trkpt lat="45.54814" lon="6.00697">
        <ele>534</ele>
        <time>2014-11-22T10:22:49Z</time>
      </trkpt>
      <trkpt lat="45.54802" lon="6.00678">
        <ele>534</ele>
        <time>2014-11-22T10:22:57Z</time>
      </trkpt>
      <trkpt lat="45.54792" lon="6.00656">
        <ele>537</ele>
        <time>2014-11-22T10:23:05Z</time>
      </trkpt>
      <trkpt lat="45.54808" lon="6.00668">
        <ele>536</ele>
        <time>2014-11-22T10:23:22Z</time>
      </trkpt>
      <trkpt lat="45.5482" lon="6.00688">
        <ele>537</ele>
        <time>2014-11-22T10:23:30Z</time>
      </trkpt>
      <trkpt lat="45.54832" lon="6.00708">
        <ele>534</ele>
        <time>2014-11-22T10:23:39Z</time>
      </trkpt>
      <trkpt lat="45.54845" lon="6.00727">
        <ele>548</ele>
        <time>2014-11-22T10:23:48Z</time>
      </trkpt>
      <trkpt lat="45.54855" lon="6.00749">
        <ele>547</ele>
        <time>2014-11-22T10:23:57Z</time>
      </trkpt>
      <trkpt lat="45.54865" lon="6.00771">
        <ele>546</ele>
        <time>2014-11-22T10:24:06Z</time>
      </trkpt>
      <trkpt lat="45.5488" lon="6.00789">
        <ele>549</ele>
        <time>2014-11-22T10:24:14Z</time>
      </trkpt>
      <trkpt lat="45.54893" lon="6.0081">
        <ele>551</ele>
        <time>2014-11-22T10:24:22Z</time>
      </trkpt>
      <trkpt lat="45.54905" lon="6.00828">
        <ele>552</ele>
        <time>2014-11-22T10:24:30Z</time>
      </trkpt>
      <trkpt lat="45.54917" lon="6.00847">
        <ele>559</ele>
        <time>2014-11-22T10:24:38Z</time>
      </trkpt>
      <trkpt lat="45.54929" lon="6.00868">
        <ele>563</ele>
        <time>2014-11-22T10:24:49Z</time>
      </trkpt>
      <trkpt lat="45.54946" lon="6.00878">
        <ele>565</ele>
        <time>2014-11-22T10:24:57Z</time>
      </trkpt>
      <trkpt lat="45.5496" lon="6.00896">
        <ele>566</ele>
        <time>2014-11-22T10:25:07Z</time>
      </trkpt>
      <trkpt lat="45.54971" lon="6.00918">
        <ele>568</ele>
        <time>2014-11-22T10:25:16Z</time>
      </trkpt>
      <trkpt lat="45.54982" lon="6.00941">
        <ele>569</ele>
        <time>2014-11-22T10:25:25Z</time>
      </trkpt>
      <trkpt lat="45.54995" lon="6.00961">
        <ele>569</ele>
        <time>2014-11-22T10:25:34Z</time>
      </trkpt>
      <trkpt lat="45.55009" lon="6.0098">
        <ele>578</ele>
        <time>2014-11-22T10:25:43Z</time>
      </trkpt>
      <trkpt lat="45.55022" lon="6.01002">
        <ele>576</ele>
        <time>2014-11-22T10:25:52Z</time>
      </trkpt>
      <trkpt lat="45.55026" lon="6.0103">
        <ele>578</ele>
        <time>2014-11-22T10:26:02Z</time>
      </trkpt>
      <trkpt lat="45.55022" lon="6.01056">
        <ele>579</ele>
        <time>2014-11-22T10:26:11Z</time>
      </trkpt>
      <trkpt lat="45.55022" lon="6.01082">
        <ele>579</ele>
        <time>2014-11-22T10:26:20Z</time>
      </trkpt>
      <trkpt lat="45.55028" lon="6.01107">
        <ele>581</ele>
        <time>2014-11-22T10:26:28Z</time>
      </trkpt>
      <trkpt lat="45.55035" lon="6.01131">
        <ele>582</ele>
        <time>2014-11-22T10:26:36Z</time>
      </trkpt>
      <trkpt lat="45.55043" lon="6.01155">
        <ele>582</ele>
        <time>2014-11-22T10:26:45Z</time>
      </trkpt>
      <trkpt lat="45.55049" lon="6.01181">
        <ele>583</ele>
        <time>2014-11-22T10:26:55Z</time>
      </trkpt>
      <trkpt lat="45.55055" lon="6.01208">
        <ele>582</ele>
        <time>2014-11-22T10:27:05Z</time>
      </trkpt>
      <trkpt lat="45.55061" lon="6.01232">
        <ele>582</ele>
        <time>2014-11-22T10:27:14Z</time>
      </trkpt>
      <trkpt lat="45.55071" lon="6.01255">
        <ele>581</ele>
        <time>2014-11-22T10:27:22Z</time>
      </trkpt>
      <trkpt lat="45.55081" lon="6.01279">
        <ele>582</ele>
        <time>2014-11-22T10:27:30Z</time>
      </trkpt>
      <trkpt lat="45.55094" lon="6.013">
        <ele>585</ele>
        <time>2014-11-22T10:27:39Z</time>
      </trkpt>
      <trkpt lat="45.55107" lon="6.01318">
        <ele>585</ele>
        <time>2014-11-22T10:27:47Z</time>
      </trkpt>
      <trkpt lat="45.5512" lon="6.01337">
        <ele>585</ele>
        <time>2014-11-22T10:27:55Z</time>
      </trkpt>
      <trkpt lat="45.55132" lon="6.0136">
        <ele>586</ele>
        <time>2014-11-22T10:28:04Z</time>
      </trkpt>
      <trkpt lat="45.55146" lon="6.0138">
        <ele>586</ele>
        <time>2014-11-22T10:28:13Z</time>
      </trkpt>
      <trkpt lat="45.55159" lon="6.01399">
        <ele>587</ele>
        <time>2014-11-22T10:28:21Z</time>
      </trkpt>
      <trkpt lat="45.55172" lon="6.01421">
        <ele>588</ele>
        <time>2014-11-22T10:28:30Z</time>
      </trkpt>
      <trkpt lat="45.55184" lon="6.01443">
        <ele>589</ele>
        <time>2014-11-22T10:28:39Z</time>
      </trkpt>
      <trkpt lat="45.55195" lon="6.01464">
        <ele>589</ele>
        <time>2014-11-22T10:28:47Z</time>
      </trkpt>
      <trkpt lat="45.55209" lon="6.01485">
        <ele>590</ele>
        <time>2014-11-22T10:28:55Z</time>
      </trkpt>
      <trkpt lat="45.55223" lon="6.01502">
        <ele>591</ele>
        <time>2014-11-22T10:29:02Z</time>
      </trkpt>
      <trkpt lat="45.55236" lon="6.01521">
        <ele>591</ele>
        <time>2014-11-22T10:29:09Z</time>
      </trkpt>
      <trkpt lat="45.55249" lon="6.01542">
        <ele>592</ele>
        <time>2014-11-22T10:29:17Z</time>
      </trkpt>
      <trkpt lat="45.55262" lon="6.01563">
        <ele>593</ele>
        <time>2014-11-22T10:29:26Z</time>
      </trkpt>
      <trkpt lat="45.5528" lon="6.01571">
        <ele>593</ele>
        <time>2014-11-22T10:29:33Z</time>
      </trkpt>
      <trkpt lat="45.55295" lon="6.01586">
        <ele>596</ele>
        <time>2014-11-22T10:29:40Z</time>
      </trkpt>
      <trkpt lat="45.55309" lon="6.01605">
        <ele>596</ele>
        <time>2014-11-22T10:29:47Z</time>
      </trkpt>
      <trkpt lat="45.55322" lon="6.01624">
        <ele>596</ele>
        <time>2014-11-22T10:29:54Z</time>
      </trkpt>
      <trkpt lat="45.55335" lon="6.01644">
        <ele>596</ele>
        <time>2014-11-22T10:30:01Z</time>
      </trkpt>
      <trkpt lat="45.55351" lon="6.01663">
        <ele>596</ele>
        <time>2014-11-22T10:30:08Z</time>
      </trkpt>
      <trkpt lat="45.55366" lon="6.0168">
        <ele>599</ele>
        <time>2014-11-22T10:30:15Z</time>
      </trkpt>
      <trkpt lat="45.55383" lon="6.01695">
        <ele>600</ele>
        <time>2014-11-22T10:35:43Z</time>
      </trkpt>
      <trkpt lat="45.55401" lon="6.01706">
        <ele>601</ele>
        <time>2014-11-22T10:35:50Z</time>
      </trkpt>
      <trkpt lat="45.55419" lon="6.01714">
        <ele>602</ele>
        <time>2014-11-22T10:35:57Z</time>
      </trkpt>
      <trkpt lat="45.55437" lon="6.01722">
        <ele>603</ele>
        <time>2014-11-22T10:36:04Z</time>
      </trkpt>
      <trkpt lat="45.55454" lon="6.01734">
        <ele>603</ele>
        <time>2014-11-22T10:36:11Z</time>
      </trkpt>
      <trkpt lat="45.55472" lon="6.01748">
        <ele>604</ele>
        <time>2014-11-22T10:36:19Z</time>
      </trkpt>
      <trkpt lat="45.55489" lon="6.01758">
        <ele>607</ele>
        <time>2014-11-22T10:36:26Z</time>
      </trkpt>
      <trkpt lat="45.55509" lon="6.01764">
        <ele>608</ele>
        <time>2014-11-22T10:36:34Z</time>
      </trkpt>
      <trkpt lat="45.55527" lon="6.01767">
        <ele>609</ele>
        <time>2014-11-22T10:36:42Z</time>
      </trkpt>
      <trkpt lat="45.55546" lon="6.01767">
        <ele>609</ele>
        <time>2014-11-22T10:36:50Z</time>
      </trkpt>
      <trkpt lat="45.55566" lon="6.01767">
        <ele>610</ele>
        <time>2014-11-22T10:36:59Z</time>
      </trkpt>
      <trkpt lat="45.55585" lon="6.01768">
        <ele>611</ele>
        <time>2014-11-22T10:37:06Z</time>
      </trkpt>
      <trkpt lat="45.55602" lon="6.01777">
        <ele>612</ele>
        <time>2014-11-22T10:37:13Z</time>
      </trkpt>
      <trkpt lat="45.5562" lon="6.01791">
        <ele>613</ele>
        <time>2014-11-22T10:37:21Z</time>
      </trkpt>
      <trkpt lat="45.55637" lon="6.01801">
        <ele>614</ele>
        <time>2014-11-22T10:37:28Z</time>
      </trkpt>
      <trkpt lat="45.55655" lon="6.0181">
        <ele>615</ele>
        <time>2014-11-22T10:37:35Z</time>
      </trkpt>
      <trkpt lat="45.55674" lon="6.01817">
        <ele>618</ele>
        <time>2014-11-22T10:37:42Z</time>
      </trkpt>
      <trkpt lat="45.55692" lon="6.01824">
        <ele>619</ele>
        <time>2014-11-22T10:37:49Z</time>
      </trkpt>
      <trkpt lat="45.55709" lon="6.01831">
        <ele>620</ele>
        <time>2014-11-22T10:37:56Z</time>
      </trkpt>
      <trkpt lat="45.55729" lon="6.01839">
        <ele>623</ele>
        <time>2014-11-22T10:38:04Z</time>
      </trkpt>
      <trkpt lat="45.55748" lon="6.01846">
        <ele>623</ele>
        <time>2014-11-22T10:38:13Z</time>
      </trkpt>
      <trkpt lat="45.55766" lon="6.0185">
        <ele>628</ele>
        <time>2014-11-22T10:38:21Z</time>
      </trkpt>
      <trkpt lat="45.55785" lon="6.01855">
        <ele>631</ele>
        <time>2014-11-22T10:38:30Z</time>
      </trkpt>
      <trkpt lat="45.55804" lon="6.01863">
        <ele>632</ele>
        <time>2014-11-22T10:38:40Z</time>
      </trkpt>
      <trkpt lat="45.55822" lon="6.01876">
        <ele>633</ele>
        <time>2014-11-22T10:38:50Z</time>
      </trkpt>
      <trkpt lat="45.55839" lon="6.01887">
        <ele>639</ele>
        <time>2014-11-22T10:38:59Z</time>
      </trkpt>
      <trkpt lat="45.55855" lon="6.01899">
        <ele>639</ele>
        <time>2014-11-22T10:39:08Z</time>
      </trkpt>
      <trkpt lat="45.55872" lon="6.01911">
        <ele>640</ele>
        <time>2014-11-22T10:39:17Z</time>
      </trkpt>
      <trkpt lat="45.5589" lon="6.01923">
        <ele>642</ele>
        <time>2014-11-22T10:39:27Z</time>
      </trkpt>
      <trkpt lat="45.55908" lon="6.01929">
        <ele>642</ele>
        <time>2014-11-22T10:39:37Z</time>
      </trkpt>
      <trkpt lat="45.55928" lon="6.01931">
        <ele>646</ele>
        <time>2014-11-22T10:39:48Z</time>
      </trkpt>
      <trkpt lat="45.55946" lon="6.01935">
        <ele>647</ele>
        <time>2014-11-22T10:39:58Z</time>
      </trkpt>
      <trkpt lat="45.55962" lon="6.01949">
        <ele>649</ele>
        <time>2014-11-22T10:40:08Z</time>
      </trkpt>
      <trkpt lat="45.55977" lon="6.01966">
        <ele>649</ele>
        <time>2014-11-22T10:40:17Z</time>
      </trkpt>
      <trkpt lat="45.55993" lon="6.01981">
        <ele>650</ele>
        <time>2014-11-22T10:40:26Z</time>
      </trkpt>
      <trkpt lat="45.56009" lon="6.01996">
        <ele>653</ele>
        <time>2014-11-22T10:40:35Z</time>
      </trkpt>
      <trkpt lat="45.56025" lon="6.0201">
        <ele>654</ele>
        <time>2014-11-22T10:40:44Z</time>
      </trkpt>
      <trkpt lat="45.56043" lon="6.02023">
        <ele>656</ele>
        <time>2014-11-22T10:40:53Z</time>
      </trkpt>
      <trkpt lat="45.56061" lon="6.02032">
        <ele>657</ele>
        <time>2014-11-22T10:41:02Z</time>
      </trkpt>
      <trkpt lat="45.56079" lon="6.02036">
        <ele>658</ele>
        <time>2014-11-22T10:41:10Z</time>
      </trkpt>
      <trkpt lat="45.56098" lon="6.0204">
        <ele>661</ele>
        <time>2014-11-22T10:41:19Z</time>
      </trkpt>
      <trkpt lat="45.56116" lon="6.02046">
        <ele>661</ele>
        <time>2014-11-22T10:41:28Z</time>
      </trkpt>
      <trkpt lat="45.56133" lon="6.02055">
        <ele>661</ele>
        <time>2014-11-22T10:41:36Z</time>
      </trkpt>
      <trkpt lat="45.5614" lon="6.02079">
        <ele>660</ele>
        <time>2014-11-22T10:41:44Z</time>
      </trkpt>
      <trkpt lat="45.5613" lon="6.02103">
        <ele>658</ele>
        <time>2014-11-22T10:41:54Z</time>
      </trkpt>
      <trkpt lat="45.56115" lon="6.02122">
        <ele>659</ele>
        <time>2014-11-22T10:42:03Z</time>
      </trkpt>
      <trkpt lat="45.56101" lon="6.02142">
        <ele>660</ele>
        <time>2014-11-22T10:42:12Z</time>
      </trkpt>
      <trkpt lat="45.56087" lon="6.02161">
        <ele>663</ele>
        <time>2014-11-22T10:42:21Z</time>
      </trkpt>
      <trkpt lat="45.56072" lon="6.02177">
        <ele>665</ele>
        <time>2014-11-22T10:42:30Z</time>
      </trkpt>
      <trkpt lat="45.56056" lon="6.02193">
        <ele>665</ele>
        <time>2014-11-22T10:42:39Z</time>
      </trkpt>
      <trkpt lat="45.56039" lon="6.02209">
        <ele>665</ele>
        <time>2014-11-22T10:42:48Z</time>
      </trkpt>
      <trkpt lat="45.56024" lon="6.02225">
        <ele>667</ele>
        <time>2014-11-22T10:42:56Z</time>
      </trkpt>
      <trkpt lat="45.56009" lon="6.02241">
        <ele>670</ele>
        <time>2014-11-22T10:43:04Z</time>
      </trkpt>
      <trkpt lat="45.55995" lon="6.02257">
        <ele>674</ele>
        <time>2014-11-22T10:43:12Z</time>
      </trkpt>
      <trkpt lat="45.5598" lon="6.02272">
        <ele>673</ele>
        <time>2014-11-22T10:43:20Z</time>
      </trkpt>
      <trkpt lat="45.55964" lon="6.02288">
        <ele>674</ele>
        <time>2014-11-22T10:43:29Z</time>
      </trkpt>
      <trkpt lat="45.55948" lon="6.02302">
        <ele>674</ele>
        <time>2014-11-22T10:43:37Z</time>
      </trkpt>
      <trkpt lat="45.55932" lon="6.02315">
        <ele>676</ele>
        <time>2014-11-22T10:43:45Z</time>
      </trkpt>
      <trkpt lat="45.55917" lon="6.02329">
        <ele>680</ele>
        <time>2014-11-22T10:43:53Z</time>
      </trkpt>
      <trkpt lat="45.55901" lon="6.02346">
        <ele>680</ele>
        <time>2014-11-22T10:44:02Z</time>
      </trkpt>
      <trkpt lat="45.55887" lon="6.02366">
        <ele>679</ele>
        <time>2014-11-22T10:44:10Z</time>
      </trkpt>
      <trkpt lat="45.55874" lon="6.02385">
        <ele>680</ele>
        <time>2014-11-22T10:44:18Z</time>
      </trkpt>
      <trkpt lat="45.55858" lon="6.02402">
        <ele>681</ele>
        <time>2014-11-22T10:44:26Z</time>
      </trkpt>
      <trkpt lat="45.5584" lon="6.02411">
        <ele>685</ele>
        <time>2014-11-22T10:44:34Z</time>
      </trkpt>
      <trkpt lat="45.55821" lon="6.02415">
        <ele>687</ele>
        <time>2014-11-22T10:44:42Z</time>
      </trkpt>
      <trkpt lat="45.55801" lon="6.02413">
        <ele>687</ele>
        <time>2014-11-22T10:44:51Z</time>
      </trkpt>
      <trkpt lat="45.55781" lon="6.0241">
        <ele>688</ele>
        <time>2014-11-22T10:45:00Z</time>
      </trkpt>
      <trkpt lat="45.55763" lon="6.02407">
        <ele>690</ele>
        <time>2014-11-22T10:45:08Z</time>
      </trkpt>
      <trkpt lat="45.55746" lon="6.02401">
        <ele>694</ele>
        <time>2014-11-22T10:45:16Z</time>
      </trkpt>
      <trkpt lat="45.55727" lon="6.02392">
        <ele>695</ele>
        <time>2014-11-22T10:45:25Z</time>
      </trkpt>
      <trkpt lat="45.5571" lon="6.02399">
        <ele>696</ele>
        <time>2014-11-22T10:45:34Z</time>
      </trkpt>
      <trkpt lat="45.55718" lon="6.02423">
        <ele>701</ele>
        <time>2014-11-22T10:45:43Z</time>
      </trkpt>
      <trkpt lat="45.5573" lon="6.02443">
        <ele>701</ele>
        <time>2014-11-22T10:45:51Z</time>
      </trkpt>
      <trkpt lat="45.5574" lon="6.02467">
        <ele>703</ele>
        <time>2014-11-22T10:46:00Z</time>
      </trkpt>
      <trkpt lat="45.55742" lon="6.02493">
        <ele>704</ele>
        <time>2014-11-22T10:46:08Z</time>
      </trkpt>
      <trkpt lat="45.55737" lon="6.02519">
        <ele>707</ele>
        <time>2014-11-22T10:46:17Z</time>
      </trkpt>
      <trkpt lat="45.55729" lon="6.02543">
        <ele>708</ele>
        <time>2014-11-22T10:46:25Z</time>
      </trkpt>
      <trkpt lat="45.55721" lon="6.02567">
        <ele>708</ele>
        <time>2014-11-22T10:46:33Z</time>
      </trkpt>
      <trkpt lat="45.55713" lon="6.02591">
        <ele>710</ele>
        <time>2014-11-22T10:46:41Z</time>
      </trkpt>
      <trkpt lat="45.55705" lon="6.02615">
        <ele>710</ele>
        <time>2014-11-22T10:46:49Z</time>
      </trkpt>
      <trkpt lat="45.55697" lon="6.0264">
        <ele>711</ele>
        <time>2014-11-22T10:46:57Z</time>
      </trkpt>
      <trkpt lat="45.55689" lon="6.02664">
        <ele>712</ele>
        <time>2014-11-22T10:47:05Z</time>
      </trkpt>
      <trkpt lat="45.55676" lon="6.02683">
        <ele>716</ele>
        <time>2014-11-22T10:47:14Z</time>
      </trkpt>
      <trkpt lat="45.55657" lon="6.02689">
        <ele>725</ele>
        <time>2014-11-22T10:47:23Z</time>
      </trkpt>
      <trkpt lat="45.55638" lon="6.0269">
        <ele>727</ele>
        <time>2014-11-22T10:47:32Z</time>
      </trkpt>
      <trkpt lat="45.55619" lon="6.0269">
        <ele>729</ele>
        <time>2014-11-22T10:47:40Z</time>
      </trkpt>
      <trkpt lat="45.55601" lon="6.02688">
        <ele>728</ele>
        <time>2014-11-22T10:47:48Z</time>
      </trkpt>
      <trkpt lat="45.55582" lon="6.02685">
        <ele>734</ele>
        <time>2014-11-22T10:47:56Z</time>
      </trkpt>
      <trkpt lat="45.55563" lon="6.02683">
        <ele>738</ele>
        <time>2014-11-22T10:48:04Z</time>
      </trkpt>
      <trkpt lat="45.55545" lon="6.0268">
        <ele>741</ele>
        <time>2014-11-22T10:48:12Z</time>
      </trkpt>
      <trkpt lat="45.55527" lon="6.02676">
        <ele>742</ele>
        <time>2014-11-22T10:48:20Z</time>
      </trkpt>
      <trkpt lat="45.55508" lon="6.02667">
        <ele>734</ele>
        <time>2014-11-22T10:48:29Z</time>
      </trkpt>
      <trkpt lat="45.5549" lon="6.02658">
        <ele>737</ele>
        <time>2014-11-22T10:48:37Z</time>
      </trkpt>
      <trkpt lat="45.5547" lon="6.02654">
        <ele>736</ele>
        <time>2014-11-22T10:48:46Z</time>
      </trkpt>
      <trkpt lat="45.55453" lon="6.02646">
        <ele>737</ele>
        <time>2014-11-22T10:48:54Z</time>
      </trkpt>
      <trkpt lat="45.55435" lon="6.02635">
        <ele>737</ele>
        <time>2014-11-22T10:49:02Z</time>
      </trkpt>
      <trkpt lat="45.55417" lon="6.02624">
        <ele>735</ele>
        <time>2014-11-22T10:49:10Z</time>
      </trkpt>
      <trkpt lat="45.55401" lon="6.0261">
        <ele>743</ele>
        <time>2014-11-22T10:49:18Z</time>
      </trkpt>
      <trkpt lat="45.55383" lon="6.02602">
        <ele>744</ele>
        <time>2014-11-22T10:49:25Z</time>
      </trkpt>
      <trkpt lat="45.55364" lon="6.02598">
        <ele>746</ele>
        <time>2014-11-22T10:49:32Z</time>
      </trkpt>
      <trkpt lat="45.55345" lon="6.02595">
        <ele>745</ele>
        <time>2014-11-22T10:49:39Z</time>
      </trkpt>
      <trkpt lat="45.55327" lon="6.02592">
        <ele>750</ele>
        <time>2014-11-22T10:49:46Z</time>
      </trkpt>
      <trkpt lat="45.55309" lon="6.02586">
        <ele>757</ele>
        <time>2014-11-22T10:49:53Z</time>
      </trkpt>
      <trkpt lat="45.55292" lon="6.02575">
        <ele>741</ele>
        <time>2014-11-22T10:50:01Z</time>
      </trkpt>
      <trkpt lat="45.55275" lon="6.02563">
        <ele>743</ele>
        <time>2014-11-22T10:50:08Z</time>
      </trkpt>
      <trkpt lat="45.55259" lon="6.02578">
        <ele>749</ele>
        <time>2014-11-22T10:50:17Z</time>
      </trkpt>
      <trkpt lat="45.55273" lon="6.02595">
        <ele>762</ele>
        <time>2014-11-22T10:50:25Z</time>
      </trkpt>
      <trkpt lat="45.55291" lon="6.02603">
        <ele>763</ele>
        <time>2014-11-22T10:50:34Z</time>
      </trkpt>
      <trkpt lat="45.55309" lon="6.02614">
        <ele>763</ele>
        <time>2014-11-22T10:50:44Z</time>
      </trkpt>
      <trkpt lat="45.55327" lon="6.02626">
        <ele>765</ele>
        <time>2014-11-22T10:50:53Z</time>
      </trkpt>
      <trkpt lat="45.55344" lon="6.0264">
        <ele>758</ele>
        <time>2014-11-22T10:51:01Z</time>
      </trkpt>
      <trkpt lat="45.55359" lon="6.02658">
        <ele>759</ele>
        <time>2014-11-22T10:51:08Z</time>
      </trkpt>
      <trkpt lat="45.55375" lon="6.02674">
        <ele>781</ele>
        <time>2014-11-22T10:51:17Z</time>
      </trkpt>
      <trkpt lat="45.55392" lon="6.02686">
        <ele>779</ele>
        <time>2014-11-22T10:51:25Z</time>
      </trkpt>
      <trkpt lat="45.55409" lon="6.02698">
        <ele>780</ele>
        <time>2014-11-22T10:51:35Z</time>
      </trkpt>
      <trkpt lat="45.55426" lon="6.02711">
        <ele>771</ele>
        <time>2014-11-22T10:51:43Z</time>
      </trkpt>
      <trkpt lat="45.55443" lon="6.02724">
        <ele>773</ele>
        <time>2014-11-22T10:51:53Z</time>
      </trkpt>
      <trkpt lat="45.55462" lon="6.02734">
        <ele>771</ele>
        <time>2014-11-22T10:52:03Z</time>
      </trkpt>
      <trkpt lat="45.55478" lon="6.02745">
        <ele>771</ele>
        <time>2014-11-22T10:52:11Z</time>
      </trkpt>
      <trkpt lat="45.55495" lon="6.02756">
        <ele>781</ele>
        <time>2014-11-22T10:52:19Z</time>
      </trkpt>
      <trkpt lat="45.55511" lon="6.02768">
        <ele>777</ele>
        <time>2014-11-22T10:52:28Z</time>
      </trkpt>
      <trkpt lat="45.55529" lon="6.0278">
        <ele>778</ele>
        <time>2014-11-22T10:52:37Z</time>
      </trkpt>
      <trkpt lat="45.55545" lon="6.02793">
        <ele>778</ele>
        <time>2014-11-22T10:52:45Z</time>
      </trkpt>
      <trkpt lat="45.55561" lon="6.02807">
        <ele>779</ele>
        <time>2014-11-22T10:52:54Z</time>
      </trkpt>
      <trkpt lat="45.55578" lon="6.02822">
        <ele>782</ele>
        <time>2014-11-22T10:53:03Z</time>
      </trkpt>
      <trkpt lat="45.55593" lon="6.02837">
        <ele>782</ele>
        <time>2014-11-22T10:53:11Z</time>
      </trkpt>
      <trkpt lat="45.55608" lon="6.02855">
        <ele>781</ele>
        <time>2014-11-22T10:53:20Z</time>
      </trkpt>
      <trkpt lat="45.55621" lon="6.02877">
        <ele>781</ele>
        <time>2014-11-22T10:53:29Z</time>
      </trkpt>
      <trkpt lat="45.55634" lon="6.02897">
        <ele>781</ele>
        <time>2014-11-22T10:53:38Z</time>
      </trkpt>
      <trkpt lat="45.55649" lon="6.02914">
        <ele>779</ele>
        <time>2014-11-22T10:53:48Z</time>
      </trkpt>
      <trkpt lat="45.55662" lon="6.02933">
        <ele>783</ele>
        <time>2014-11-22T10:53:58Z</time>
      </trkpt>
      <trkpt lat="45.55661" lon="6.02959">
        <ele>786</ele>
        <time>2014-11-22T10:54:09Z</time>
      </trkpt>
      <trkpt lat="45.55648" lon="6.02979">
        <ele>787</ele>
        <time>2014-11-22T10:54:21Z</time>
      </trkpt>
      <trkpt lat="45.55633" lon="6.02993">
        <ele>789</ele>
        <time>2014-11-22T10:54:31Z</time>
      </trkpt>
      <trkpt lat="45.55614" lon="6.02998">
        <ele>792</ele>
        <time>2014-11-22T10:54:41Z</time>
      </trkpt>
      <trkpt lat="45.55596" lon="6.03002">
        <ele>792</ele>
        <time>2014-11-22T10:54:50Z</time>
      </trkpt>
      <trkpt lat="45.55576" lon="6.03002">
        <ele>797</ele>
        <time>2014-11-22T10:54:58Z</time>
      </trkpt>
      <trkpt lat="45.55556" lon="6.03">
        <ele>805</ele>
        <time>2014-11-22T10:55:06Z</time>
      </trkpt>
      <trkpt lat="45.55536" lon="6.03001">
        <ele>797</ele>
        <time>2014-11-22T10:55:14Z</time>
      </trkpt>
      <trkpt lat="45.55516" lon="6.03003">
        <ele>801</ele>
        <time>2014-11-22T10:55:22Z</time>
      </trkpt>
      <trkpt lat="45.55497" lon="6.03004">
        <ele>805</ele>
        <time>2014-11-22T10:55:30Z</time>
      </trkpt>
      <trkpt lat="45.55478" lon="6.03007">
        <ele>802</ele>
        <time>2014-11-22T10:55:39Z</time>
      </trkpt>
      <trkpt lat="45.5546" lon="6.03014">
        <ele>801</ele>
        <time>2014-11-22T10:55:49Z</time>
      </trkpt>
      <trkpt lat="45.55441" lon="6.03021">
        <ele>802</ele>
        <time>2014-11-22T10:55:59Z</time>
      </trkpt>
      <trkpt lat="45.55421" lon="6.03023">
        <ele>803</ele>
        <time>2014-11-22T10:56:08Z</time>
      </trkpt>
      <trkpt lat="45.55402" lon="6.03021">
        <ele>804</ele>
        <time>2014-11-22T10:56:13Z</time>
      </trkpt>
      <trkpt lat="45.55381" lon="6.03022">
        <ele>802</ele>
        <time>2014-11-22T10:56:17Z</time>
      </trkpt>
      <trkpt lat="45.55361" lon="6.03029">
        <ele>802</ele>
        <time>2014-11-22T10:56:20Z</time>
      </trkpt>
      <trkpt lat="45.55339" lon="6.03034">
        <ele>801</ele>
        <time>2014-11-22T10:56:23Z</time>
      </trkpt>
      <trkpt lat="45.55313" lon="6.03032">
        <ele>807</ele>
        <time>2014-11-22T10:56:26Z</time>
      </trkpt>
      <trkpt lat="45.5529" lon="6.03038">
        <ele>808</ele>
        <time>2014-11-22T10:56:29Z</time>
      </trkpt>
      <trkpt lat="45.55275" lon="6.03055">
        <ele>807</ele>
        <time>2014-11-22T10:56:32Z</time>
      </trkpt>
      <trkpt lat="45.55262" lon="6.03077">
        <ele>804</ele>
        <time>2014-11-22T10:56:36Z</time>
      </trkpt>
      <trkpt lat="45.55248" lon="6.03094">
        <ele>799</ele>
        <time>2014-11-22T10:56:41Z</time>
      </trkpt>
      <trkpt lat="45.55229" lon="6.03108">
        <ele>797</ele>
        <time>2014-11-22T10:56:47Z</time>
      </trkpt>
      <trkpt lat="45.55209" lon="6.03111">
        <ele>798</ele>
        <time>2014-11-22T10:56:52Z</time>
      </trkpt>
      <trkpt lat="45.55188" lon="6.03112">
        <ele>799</ele>
        <time>2014-11-22T10:56:57Z</time>
      </trkpt>
      <trkpt lat="45.55168" lon="6.03119">
        <ele>799</ele>
        <time>2014-11-22T10:57:01Z</time>
      </trkpt>
      <trkpt lat="45.55149" lon="6.03134">
        <ele>802</ele>
        <time>2014-11-22T10:57:05Z</time>
      </trkpt>
      <trkpt lat="45.55131" lon="6.0315">
        <ele>801</ele>
        <time>2014-11-22T10:57:09Z</time>
      </trkpt>
      <trkpt lat="45.55115" lon="6.03163">
        <ele>801</ele>
        <time>2014-11-22T10:57:13Z</time>
      </trkpt>
      <trkpt lat="45.55097" lon="6.0318">
        <ele>791</ele>
        <time>2014-11-22T10:57:18Z</time>
      </trkpt>
      <trkpt lat="45.55082" lon="6.03196">
        <ele>791</ele>
        <time>2014-11-22T10:57:22Z</time>
      </trkpt>
      <trkpt lat="45.55061" lon="6.03203">
        <ele>790</ele>
        <time>2014-11-22T10:57:27Z</time>
      </trkpt>
      <trkpt lat="45.55045" lon="6.03187">
        <ele>791</ele>
        <time>2014-11-22T10:57:31Z</time>
      </trkpt>
      <trkpt lat="45.55029" lon="6.03168">
        <ele>792</ele>
        <time>2014-11-22T10:57:35Z</time>
      </trkpt>
      <trkpt lat="45.55012" lon="6.03152">
        <ele>803</ele>
        <time>2014-11-22T10:57:39Z</time>
      </trkpt>
      <trkpt lat="45.54992" lon="6.03147">
        <ele>807</ele>
        <time>2014-11-22T10:57:43Z</time>
      </trkpt>
      <trkpt lat="45.54974" lon="6.03154">
        <ele>809</ele>
        <time>2014-11-22T10:57:47Z</time>
      </trkpt>
      <trkpt lat="45.54956" lon="6.03171">
        <ele>800</ele>
        <time>2014-11-22T10:57:52Z</time>
      </trkpt>
      <trkpt lat="45.54945" lon="6.03196">
        <ele>800</ele>
        <time>2014-11-22T10:57:58Z</time>
      </trkpt>
      <trkpt lat="45.54925" lon="6.03203">
        <ele>801</ele>
        <time>2014-11-22T10:58:06Z</time>
      </trkpt>
      <trkpt lat="45.54907" lon="6.03208">
        <ele>815</ele>
        <time>2014-11-22T10:58:13Z</time>
      </trkpt>
      <trkpt lat="45.54904" lon="6.03235">
        <ele>811</ele>
        <time>2014-11-22T10:58:20Z</time>
      </trkpt>
      <trkpt lat="45.54905" lon="6.03265">
        <ele>804</ele>
        <time>2014-11-22T10:58:26Z</time>
      </trkpt>
      <trkpt lat="45.549" lon="6.03292">
        <ele>804</ele>
        <time>2014-11-22T10:58:33Z</time>
      </trkpt>
      <trkpt lat="45.54894" lon="6.03318">
        <ele>801</ele>
        <time>2014-11-22T10:58:40Z</time>
      </trkpt>
      <trkpt lat="45.54875" lon="6.03328">
        <ele>804</ele>
        <time>2014-11-22T10:58:48Z</time>
      </trkpt>
      <trkpt lat="45.54856" lon="6.03333">
        <ele>807</ele>
        <time>2014-11-22T10:58:56Z</time>
      </trkpt>
      <trkpt lat="45.54839" lon="6.0335">
        <ele>800</ele>
        <time>2014-11-22T10:59:04Z</time>
      </trkpt>
      <trkpt lat="45.54824" lon="6.03367">
        <ele>804</ele>
        <time>2014-11-22T10:59:11Z</time>
      </trkpt>
      <trkpt lat="45.54805" lon="6.03358">
        <ele>805</ele>
        <time>2014-11-22T10:59:19Z</time>
      </trkpt>
      <trkpt lat="45.54792" lon="6.03339">
        <ele>807</ele>
        <time>2014-11-22T10:59:26Z</time>
      </trkpt>
      <trkpt lat="45.54776" lon="6.0332">
        <ele>821</ele>
        <time>2014-11-22T10:59:34Z</time>
      </trkpt>
      <trkpt lat="45.54761" lon="6.03304">
        <ele>823</ele>
        <time>2014-11-22T10:59:41Z</time>
      </trkpt>
      <trkpt lat="45.54742" lon="6.03296">
        <ele>831</ele>
        <time>2014-11-22T10:59:49Z</time>
      </trkpt>
      <trkpt lat="45.54724" lon="6.03306">
        <ele>831</ele>
        <time>2014-11-22T10:59:56Z</time>
      </trkpt>
      <trkpt lat="45.54716" lon="6.0333">
        <ele>830</ele>
        <time>2014-11-22T11:00:03Z</time>
      </trkpt>
      <trkpt lat="45.54712" lon="6.03359">
        <ele>815</ele>
        <time>2014-11-22T11:00:12Z</time>
      </trkpt>
      <trkpt lat="45.54706" lon="6.03389">
        <ele>811</ele>
        <time>2014-11-22T11:00:18Z</time>
      </trkpt>
      <trkpt lat="45.54691" lon="6.03407">
        <ele>810</ele>
        <time>2014-11-22T11:00:22Z</time>
      </trkpt>
      <trkpt lat="45.54673" lon="6.0341">
        <ele>808</ele>
        <time>2014-11-22T11:00:25Z</time>
      </trkpt>
      <trkpt lat="45.54652" lon="6.03415">
        <ele>812</ele>
        <time>2014-11-22T11:00:28Z</time>
      </trkpt>
      <trkpt lat="45.54633" lon="6.03436">
        <ele>801</ele>
        <time>2014-11-22T11:00:31Z</time>
      </trkpt>
      <trkpt lat="45.54618" lon="6.03462">
        <ele>798</ele>
        <time>2014-11-22T11:00:34Z</time>
      </trkpt>
      <trkpt lat="45.54598" lon="6.03479">
        <ele>797</ele>
        <time>2014-11-22T11:00:37Z</time>
      </trkpt>
      <trkpt lat="45.54575" lon="6.0349">
        <ele>795</ele>
        <time>2014-11-22T11:00:40Z</time>
      </trkpt>
      <trkpt lat="45.5455" lon="6.03498">
        <ele>796</ele>
        <time>2014-11-22T11:00:43Z</time>
      </trkpt>
      <trkpt lat="45.54531" lon="6.03499">
        <ele>795</ele>
        <time>2014-11-22T11:00:45Z</time>
      </trkpt>
      <trkpt lat="45.54512" lon="6.03491">
        <ele>794</ele>
        <time>2014-11-22T11:00:47Z</time>
      </trkpt>
      <trkpt lat="45.54491" lon="6.03477">
        <ele>795</ele>
        <time>2014-11-22T11:00:50Z</time>
      </trkpt>
      <trkpt lat="45.54469" lon="6.03479">
        <ele>796</ele>
        <time>2014-11-22T11:00:53Z</time>
      </trkpt>
      <trkpt lat="45.54447" lon="6.03496">
        <ele>795</ele>
        <time>2014-11-22T11:00:56Z</time>
      </trkpt>
      <trkpt lat="45.54425" lon="6.03517">
        <ele>787</ele>
        <time>2014-11-22T11:00:59Z</time>
      </trkpt>
      <trkpt lat="45.5441" lon="6.03532">
        <ele>786</ele>
        <time>2014-11-22T11:01:01Z</time>
      </trkpt>
      <trkpt lat="45.54385" lon="6.03547">
        <ele>784</ele>
        <time>2014-11-22T11:01:04Z</time>
      </trkpt>
      <trkpt lat="45.5436" lon="6.0355">
        <ele>784</ele>
        <time>2014-11-22T11:01:07Z</time>
      </trkpt>
      <trkpt lat="45.5434" lon="6.03547">
        <ele>784</ele>
        <time>2014-11-22T11:01:10Z</time>
      </trkpt>
      <trkpt lat="45.5432" lon="6.03545">
        <ele>784</ele>
        <time>2014-11-22T11:01:13Z</time>
      </trkpt>
      <trkpt lat="45.54298" lon="6.0355">
        <ele>784</ele>
        <time>2014-11-22T11:01:16Z</time>
      </trkpt>
      <trkpt lat="45.54274" lon="6.03558">
        <ele>783</ele>
        <time>2014-11-22T11:01:19Z</time>
      </trkpt>
      <trkpt lat="45.54248" lon="6.03568">
        <ele>782</ele>
        <time>2014-11-22T11:01:22Z</time>
      </trkpt>
      <trkpt lat="45.5423" lon="6.03576">
        <ele>782</ele>
        <time>2014-11-22T11:01:24Z</time>
      </trkpt>
      <trkpt lat="45.54213" lon="6.03584">
        <ele>774</ele>
        <time>2014-11-22T11:01:26Z</time>
      </trkpt>
      <trkpt lat="45.54193" lon="6.03599">
        <ele>773</ele>
        <time>2014-11-22T11:01:29Z</time>
      </trkpt>
      <trkpt lat="45.54175" lon="6.03609">
        <ele>773</ele>
        <time>2014-11-22T11:01:33Z</time>
      </trkpt>
      <trkpt lat="45.54156" lon="6.03615">
        <ele>775</ele>
        <time>2014-11-22T11:01:37Z</time>
      </trkpt>
      <trkpt lat="45.54136" lon="6.03623">
        <ele>775</ele>
        <time>2014-11-22T11:01:42Z</time>
      </trkpt>
      <trkpt lat="45.54117" lon="6.03631">
        <ele>775</ele>
        <time>2014-11-22T11:01:47Z</time>
      </trkpt>
      <trkpt lat="45.54098" lon="6.03637">
        <ele>775</ele>
        <time>2014-11-22T11:01:52Z</time>
      </trkpt>
      <trkpt lat="45.54078" lon="6.03643">
        <ele>777</ele>
        <time>2014-11-22T11:01:57Z</time>
      </trkpt>
      <trkpt lat="45.54058" lon="6.03649">
        <ele>778</ele>
        <time>2014-11-22T11:02:02Z</time>
      </trkpt>
      <trkpt lat="45.54037" lon="6.03654">
        <ele>777</ele>
        <time>2014-11-22T11:02:07Z</time>
      </trkpt>
      <trkpt lat="45.54017" lon="6.03655">
        <ele>776</ele>
        <time>2014-11-22T11:02:12Z</time>
      </trkpt>
      <trkpt lat="45.53998" lon="6.03654">
        <ele>776</ele>
        <time>2014-11-22T11:02:16Z</time>
      </trkpt>
      <trkpt lat="45.5398" lon="6.0365">
        <ele>777</ele>
        <time>2014-11-22T11:02:20Z</time>
      </trkpt>
      <trkpt lat="45.53961" lon="6.0365">
        <ele>778</ele>
        <time>2014-11-22T11:02:24Z</time>
      </trkpt>
      <trkpt lat="45.53942" lon="6.03653">
        <ele>777</ele>
        <time>2014-11-22T11:02:28Z</time>
      </trkpt>
      <trkpt lat="45.53922" lon="6.03658">
        <ele>775</ele>
        <time>2014-11-22T11:02:32Z</time>
      </trkpt>
      <trkpt lat="45.53903" lon="6.03665">
        <ele>776</ele>
        <time>2014-11-22T11:02:36Z</time>
      </trkpt>
      <trkpt lat="45.53883" lon="6.03671">
        <ele>775</ele>
        <time>2014-11-22T11:02:40Z</time>
      </trkpt>
      <trkpt lat="45.53862" lon="6.03676">
        <ele>776</ele>
        <time>2014-11-22T11:02:45Z</time>
      </trkpt>
      <trkpt lat="45.53839" lon="6.03676">
        <ele>777</ele>
        <time>2014-11-22T11:02:50Z</time>
      </trkpt>
      <trkpt lat="45.5382" lon="6.03674">
        <ele>777</ele>
        <time>2014-11-22T11:02:54Z</time>
      </trkpt>
      <trkpt lat="45.53801" lon="6.03674">
        <ele>778</ele>
        <time>2014-11-22T11:02:58Z</time>
      </trkpt>
      <trkpt lat="45.53781" lon="6.03675">
        <ele>778</ele>
        <time>2014-11-22T11:03:02Z</time>
      </trkpt>
      <trkpt lat="45.53762" lon="6.03677">
        <ele>778</ele>
        <time>2014-11-22T11:03:06Z</time>
      </trkpt>
      <trkpt lat="45.53741" lon="6.03681">
        <ele>778</ele>
        <time>2014-11-22T11:03:11Z</time>
      </trkpt>
      <trkpt lat="45.5372" lon="6.03686">
        <ele>778</ele>
        <time>2014-11-22T11:03:16Z</time>
      </trkpt>
      <trkpt lat="45.53698" lon="6.03692">
        <ele>779</ele>
        <time>2014-11-22T11:03:21Z</time>
      </trkpt>
      <trkpt lat="45.53678" lon="6.03698">
        <ele>779</ele>
        <time>2014-11-22T11:03:26Z</time>
      </trkpt>
      <trkpt lat="45.53657" lon="6.03703">
        <ele>780</ele>
        <time>2014-11-22T11:03:31Z</time>
      </trkpt>
      <trkpt lat="45.53639" lon="6.03708">
        <ele>780</ele>
        <time>2014-11-22T11:03:36Z</time>
      </trkpt>
      <trkpt lat="45.53619" lon="6.0372">
        <ele>780</ele>
        <time>2014-11-22T11:03:42Z</time>
      </trkpt>
      <trkpt lat="45.536" lon="6.03731">
        <ele>780</ele>
        <time>2014-11-22T11:03:48Z</time>
      </trkpt>
      <trkpt lat="45.53582" lon="6.0374">
        <ele>780</ele>
        <time>2014-11-22T11:03:54Z</time>
      </trkpt>
      <trkpt lat="45.53599" lon="6.03749">
        <ele>779</ele>
        <time>2014-11-22T11:04:16Z</time>
      </trkpt>
      <trkpt lat="45.53606" lon="6.03777">
        <ele>779</ele>
        <time>2014-11-22T11:04:25Z</time>
      </trkpt>
      <trkpt lat="45.53611" lon="6.03806">
        <ele>780</ele>
        <time>2014-11-22T11:04:32Z</time>
      </trkpt>
      <trkpt lat="45.53613" lon="6.03835">
        <ele>781</ele>
        <time>2014-11-22T11:04:38Z</time>
      </trkpt>
      <trkpt lat="45.53623" lon="6.03859">
        <ele>781</ele>
        <time>2014-11-22T11:04:45Z</time>
      </trkpt>
      <trkpt lat="45.53637" lon="6.03877">
        <ele>781</ele>
        <time>2014-11-22T11:05:15Z</time>
      </trkpt>
      <trkpt lat="45.53649" lon="6.03896">
        <ele>782</ele>
        <time>2014-11-22T11:05:25Z</time>
      </trkpt>
      <trkpt lat="45.53662" lon="6.03916">
        <ele>783</ele>
        <time>2014-11-22T11:05:36Z</time>
      </trkpt>
      <trkpt lat="45.5367" lon="6.03939">
        <ele>785</ele>
        <time>2014-11-22T11:05:45Z</time>
      </trkpt>
      <trkpt lat="45.53679" lon="6.03963">
        <ele>786</ele>
        <time>2014-11-22T11:05:54Z</time>
      </trkpt>
      <trkpt lat="45.53682" lon="6.0399">
        <ele>787</ele>
        <time>2014-11-22T11:06:09Z</time>
      </trkpt>
      <trkpt lat="45.53671" lon="6.04011">
        <ele>790</ele>
        <time>2014-11-22T11:06:25Z</time>
      </trkpt>
      <trkpt lat="45.53658" lon="6.04031">
        <ele>791</ele>
        <time>2014-11-22T11:07:09Z</time>
      </trkpt>
      <trkpt lat="45.53639" lon="6.04032">
        <ele>791</ele>
        <time>2014-11-22T11:07:18Z</time>
      </trkpt>
      <trkpt lat="45.5362" lon="6.04034">
        <ele>791</ele>
        <time>2014-11-22T11:07:29Z</time>
      </trkpt>
      <trkpt lat="45.536" lon="6.04037">
        <ele>791</ele>
        <time>2014-11-22T11:07:38Z</time>
      </trkpt>
      <trkpt lat="45.53581" lon="6.04039">
        <ele>791</ele>
        <time>2014-11-22T11:07:44Z</time>
      </trkpt>
      <trkpt lat="45.53562" lon="6.0404">
        <ele>792</ele>
        <time>2014-11-22T11:07:49Z</time>
      </trkpt>
      <trkpt lat="45.53541" lon="6.04042">
        <ele>792</ele>
        <time>2014-11-22T11:07:54Z</time>
      </trkpt>
      <trkpt lat="45.5352" lon="6.04044">
        <ele>792</ele>
        <time>2014-11-22T11:08:00Z</time>
      </trkpt>
      <trkpt lat="45.53501" lon="6.04045">
        <ele>792</ele>
        <time>2014-11-22T11:08:06Z</time>
      </trkpt>
      <trkpt lat="45.53482" lon="6.0404">
        <ele>792</ele>
        <time>2014-11-22T11:08:12Z</time>
      </trkpt>
      <trkpt lat="45.53464" lon="6.0404">
        <ele>792</ele>
        <time>2014-11-22T11:08:18Z</time>
      </trkpt>
      <trkpt lat="45.53444" lon="6.04045">
        <ele>792</ele>
        <time>2014-11-22T11:08:26Z</time>
      </trkpt>
      <trkpt lat="45.53426" lon="6.04051">
        <ele>793</ele>
        <time>2014-11-22T11:08:34Z</time>
      </trkpt>
      <trkpt lat="45.53407" lon="6.04056">
        <ele>794</ele>
        <time>2014-11-22T11:08:42Z</time>
      </trkpt>
      <trkpt lat="45.5339" lon="6.04061">
        <ele>794</ele>
        <time>2014-11-22T11:08:51Z</time>
      </trkpt>
      <trkpt lat="45.53371" lon="6.04067">
        <ele>794</ele>
        <time>2014-11-22T11:09:00Z</time>
      </trkpt>
      <trkpt lat="45.53356" lon="6.04081">
        <ele>795</ele>
        <time>2014-11-22T11:09:10Z</time>
      </trkpt>
      <trkpt lat="45.53342" lon="6.04098">
        <ele>803</ele>
        <time>2014-11-22T11:09:21Z</time>
      </trkpt>
      <trkpt lat="45.53328" lon="6.04114">
        <ele>804</ele>
        <time>2014-11-22T11:09:34Z</time>
      </trkpt>
      <trkpt lat="45.53313" lon="6.04133">
        <ele>807</ele>
        <time>2014-11-22T11:09:47Z</time>
      </trkpt>
      <trkpt lat="45.53299" lon="6.04151">
        <ele>808</ele>
        <time>2014-11-22T11:10:01Z</time>
      </trkpt>
      <trkpt lat="45.53286" lon="6.0417">
        <ele>816</ele>
        <time>2014-11-22T11:10:14Z</time>
      </trkpt>
      <trkpt lat="45.53275" lon="6.0419">
        <ele>817</ele>
        <time>2014-11-22T11:10:26Z</time>
      </trkpt>
      <trkpt lat="45.53262" lon="6.04208">
        <ele>818</ele>
        <time>2014-11-22T11:10:39Z</time>
      </trkpt>
      <trkpt lat="45.53245" lon="6.04222">
        <ele>817</ele>
        <time>2014-11-22T11:10:53Z</time>
      </trkpt>
      <trkpt lat="45.53231" lon="6.04238">
        <ele>818</ele>
        <time>2014-11-22T11:11:06Z</time>
      </trkpt>
      <trkpt lat="45.53218" lon="6.04257">
        <ele>824</ele>
        <time>2014-11-22T11:11:21Z</time>
      </trkpt>
      <trkpt lat="45.53203" lon="6.04274">
        <ele>825</ele>
        <time>2014-11-22T11:11:34Z</time>
      </trkpt>
      <trkpt lat="45.53188" lon="6.04288">
        <ele>826</ele>
        <time>2014-11-22T11:11:45Z</time>
      </trkpt>
      <trkpt lat="45.53171" lon="6.04302">
        <ele>827</ele>
        <time>2014-11-22T11:11:57Z</time>
      </trkpt>
      <trkpt lat="45.53155" lon="6.04316">
        <ele>826</ele>
        <time>2014-11-22T11:12:06Z</time>
      </trkpt>
      <trkpt lat="45.53143" lon="6.04336">
        <ele>830</ele>
        <time>2014-11-22T11:12:16Z</time>
      </trkpt>
      <trkpt lat="45.53135" lon="6.0436">
        <ele>830</ele>
        <time>2014-11-22T11:12:26Z</time>
      </trkpt>
      <trkpt lat="45.53129" lon="6.04387">
        <ele>831</ele>
        <time>2014-11-22T11:12:36Z</time>
      </trkpt>
      <trkpt lat="45.53125" lon="6.04412">
        <ele>832</ele>
        <time>2014-11-22T11:12:45Z</time>
      </trkpt>
      <trkpt lat="45.5312" lon="6.04438">
        <ele>837</ele>
        <time>2014-11-22T11:12:55Z</time>
      </trkpt>
      <trkpt lat="45.53113" lon="6.04464">
        <ele>839</ele>
        <time>2014-11-22T11:13:05Z</time>
      </trkpt>
      <trkpt lat="45.53105" lon="6.0449">
        <ele>839</ele>
        <time>2014-11-22T11:13:16Z</time>
      </trkpt>
      <trkpt lat="45.53087" lon="6.04502">
        <ele>841</ele>
        <time>2014-11-22T11:13:26Z</time>
      </trkpt>
      <trkpt lat="45.53069" lon="6.04506">
        <ele>841</ele>
        <time>2014-11-22T11:13:33Z</time>
      </trkpt>
      <trkpt lat="45.53051" lon="6.04514">
        <ele>841</ele>
        <time>2014-11-22T11:13:40Z</time>
      </trkpt>
      <trkpt lat="45.53035" lon="6.0453">
        <ele>842</ele>
        <time>2014-11-22T11:13:48Z</time>
      </trkpt>
      <trkpt lat="45.53019" lon="6.04546">
        <ele>842</ele>
        <time>2014-11-22T11:13:58Z</time>
      </trkpt>
      <trkpt lat="45.53003" lon="6.04563">
        <ele>843</ele>
        <time>2014-11-22T11:14:08Z</time>
      </trkpt>
      <trkpt lat="45.52989" lon="6.04579">
        <ele>843</ele>
        <time>2014-11-22T11:14:17Z</time>
      </trkpt>
      <trkpt lat="45.52974" lon="6.04595">
        <ele>846</ele>
        <time>2014-11-22T11:14:26Z</time>
      </trkpt>
      <trkpt lat="45.52969" lon="6.04621">
        <ele>847</ele>
        <time>2014-11-22T11:14:36Z</time>
      </trkpt>
      <trkpt lat="45.52986" lon="6.04634">
        <ele>848</ele>
        <time>2014-11-22T11:14:46Z</time>
      </trkpt>
      <trkpt lat="45.53004" lon="6.04628">
        <ele>851</ele>
        <time>2014-11-22T11:14:54Z</time>
      </trkpt>
      <trkpt lat="45.53024" lon="6.04623">
        <ele>851</ele>
        <time>2014-11-22T11:15:03Z</time>
      </trkpt>
      <trkpt lat="45.53044" lon="6.04623">
        <ele>852</ele>
        <time>2014-11-22T11:15:12Z</time>
      </trkpt>
      <trkpt lat="45.53063" lon="6.04626">
        <ele>853</ele>
        <time>2014-11-22T11:15:21Z</time>
      </trkpt>
      <trkpt lat="45.53082" lon="6.04627">
        <ele>854</ele>
        <time>2014-11-22T11:16:12Z</time>
      </trkpt>
      <trkpt lat="45.531" lon="6.04619">
        <ele>860</ele>
        <time>2014-11-22T11:16:20Z</time>
      </trkpt>
      <trkpt lat="45.53117" lon="6.04607">
        <ele>860</ele>
        <time>2014-11-22T11:16:29Z</time>
      </trkpt>
      <trkpt lat="45.53135" lon="6.04596">
        <ele>861</ele>
        <time>2014-11-22T11:16:38Z</time>
      </trkpt>
      <trkpt lat="45.53151" lon="6.04579">
        <ele>856</ele>
        <time>2014-11-22T11:16:47Z</time>
      </trkpt>
      <trkpt lat="45.53164" lon="6.04561">
        <ele>854</ele>
        <time>2014-11-22T11:16:55Z</time>
      </trkpt>
      <trkpt lat="45.53182" lon="6.04554">
        <ele>861</ele>
        <time>2014-11-22T11:17:06Z</time>
      </trkpt>
      <trkpt lat="45.53174" lon="6.0458">
        <ele>862</ele>
        <time>2014-11-22T11:17:15Z</time>
      </trkpt>
      <trkpt lat="45.53162" lon="6.04603">
        <ele>863</ele>
        <time>2014-11-22T11:17:24Z</time>
      </trkpt>
      <trkpt lat="45.53151" lon="6.04625">
        <ele>865</ele>
        <time>2014-11-22T11:17:33Z</time>
      </trkpt>
      <trkpt lat="45.53139" lon="6.04644">
        <ele>866</ele>
        <time>2014-11-22T11:17:42Z</time>
      </trkpt>
      <trkpt lat="45.53126" lon="6.04662">
        <ele>865</ele>
        <time>2014-11-22T11:17:51Z</time>
      </trkpt>
      <trkpt lat="45.53113" lon="6.04683">
        <ele>873</ele>
        <time>2014-11-22T11:18:01Z</time>
      </trkpt>
      <trkpt lat="45.53104" lon="6.04705">
        <ele>875</ele>
        <time>2014-11-22T11:18:10Z</time>
      </trkpt>
      <trkpt lat="45.53095" lon="6.0473">
        <ele>876</ele>
        <time>2014-11-22T11:18:20Z</time>
      </trkpt>
      <trkpt lat="45.53087" lon="6.04753">
        <ele>877</ele>
        <time>2014-11-22T11:18:30Z</time>
      </trkpt>
      <trkpt lat="45.53078" lon="6.04776">
        <ele>876</ele>
        <time>2014-11-22T11:18:40Z</time>
      </trkpt>
      <trkpt lat="45.53067" lon="6.04798">
        <ele>878</ele>
        <time>2014-11-22T11:18:50Z</time>
      </trkpt>
      <trkpt lat="45.53054" lon="6.04817">
        <ele>879</ele>
        <time>2014-11-22T11:19:00Z</time>
      </trkpt>
      <trkpt lat="45.5304" lon="6.04838">
        <ele>887</ele>
        <time>2014-11-22T11:19:11Z</time>
      </trkpt>
      <trkpt lat="45.53028" lon="6.04857">
        <ele>887</ele>
        <time>2014-11-22T11:19:21Z</time>
      </trkpt>
      <trkpt lat="45.53015" lon="6.04875">
        <ele>888</ele>
        <time>2014-11-22T11:19:30Z</time>
      </trkpt>
      <trkpt lat="45.53002" lon="6.04896">
        <ele>889</ele>
        <time>2014-11-22T11:19:39Z</time>
      </trkpt>
      <trkpt lat="45.52989" lon="6.04917">
        <ele>887</ele>
        <time>2014-11-22T11:19:48Z</time>
      </trkpt>
      <trkpt lat="45.52981" lon="6.04941">
        <ele>892</ele>
        <time>2014-11-22T11:19:57Z</time>
      </trkpt>
      <trkpt lat="45.52976" lon="6.04968">
        <ele>893</ele>
        <time>2014-11-22T11:20:06Z</time>
      </trkpt>
      <trkpt lat="45.52977" lon="6.04995">
        <ele>894</ele>
        <time>2014-11-22T11:20:15Z</time>
      </trkpt>
      <trkpt lat="45.52979" lon="6.05023">
        <ele>897</ele>
        <time>2014-11-22T11:20:24Z</time>
      </trkpt>
      <trkpt lat="45.5298" lon="6.05049">
        <ele>898</ele>
        <time>2014-11-22T11:20:32Z</time>
      </trkpt>
      <trkpt lat="45.52981" lon="6.05076">
        <ele>899</ele>
        <time>2014-11-22T11:20:40Z</time>
      </trkpt>
      <trkpt lat="45.52981" lon="6.05102">
        <ele>899</ele>
        <time>2014-11-22T11:20:49Z</time>
      </trkpt>
      <trkpt lat="45.52963" lon="6.05106">
        <ele>899</ele>
        <time>2014-11-22T11:23:02Z</time>
      </trkpt>
      <trkpt lat="45.52952" lon="6.05128">
        <ele>899</ele>
        <time>2014-11-22T11:23:11Z</time>
      </trkpt>
      <trkpt lat="45.52935" lon="6.05144">
        <ele>900</ele>
        <time>2014-11-22T11:23:20Z</time>
      </trkpt>
      <trkpt lat="45.52919" lon="6.05156">
        <ele>900</ele>
        <time>2014-11-22T11:23:28Z</time>
      </trkpt>
      <trkpt lat="45.52909" lon="6.05178">
        <ele>904</ele>
        <time>2014-11-22T11:23:38Z</time>
      </trkpt>
      <trkpt lat="45.52901" lon="6.05202">
        <ele>906</ele>
        <time>2014-11-22T11:23:49Z</time>
      </trkpt>
      <trkpt lat="45.52891" lon="6.05224">
        <ele>907</ele>
        <time>2014-11-22T11:24:00Z</time>
      </trkpt>
      <trkpt lat="45.52877" lon="6.05241">
        <ele>908</ele>
        <time>2014-11-22T11:24:10Z</time>
      </trkpt>
      <trkpt lat="45.52863" lon="6.0526">
        <ele>908</ele>
        <time>2014-11-22T11:24:23Z</time>
      </trkpt>
      <trkpt lat="45.5285" lon="6.05278">
        <ele>908</ele>
        <time>2014-11-22T11:24:34Z</time>
      </trkpt>
      <trkpt lat="45.52832" lon="6.05293">
        <ele>914</ele>
        <time>2014-11-22T11:24:44Z</time>
      </trkpt>
      <trkpt lat="45.5282" lon="6.05311">
        <ele>913</ele>
        <time>2014-11-22T11:24:50Z</time>
      </trkpt>
      <trkpt lat="45.52808" lon="6.05332">
        <ele>913</ele>
        <time>2014-11-22T11:24:55Z</time>
      </trkpt>
      <trkpt lat="45.52795" lon="6.05356">
        <ele>911</ele>
        <time>2014-11-22T11:25:01Z</time>
      </trkpt>
      <trkpt lat="45.52782" lon="6.05377">
        <ele>911</ele>
        <time>2014-11-22T11:25:07Z</time>
      </trkpt>
      <trkpt lat="45.52765" lon="6.05393">
        <ele>912</ele>
        <time>2014-11-22T11:25:13Z</time>
      </trkpt>
      <trkpt lat="45.52746" lon="6.05403">
        <ele>918</ele>
        <time>2014-11-22T11:25:19Z</time>
      </trkpt>
      <trkpt lat="45.52739" lon="6.05428">
        <ele>920</ele>
        <time>2014-11-22T11:25:28Z</time>
      </trkpt>
      <trkpt lat="45.5274" lon="6.05455">
        <ele>924</ele>
        <time>2014-11-22T11:25:37Z</time>
      </trkpt>
      <trkpt lat="45.52741" lon="6.05483">
        <ele>923</ele>
        <time>2014-11-22T11:25:47Z</time>
      </trkpt>
      <trkpt lat="45.52744" lon="6.05511">
        <ele>923</ele>
        <time>2014-11-22T11:25:57Z</time>
      </trkpt>
      <trkpt lat="45.52743" lon="6.05538">
        <ele>926</ele>
        <time>2014-11-22T11:26:07Z</time>
      </trkpt>
      <trkpt lat="45.52732" lon="6.0556">
        <ele>926</ele>
        <time>2014-11-22T11:26:17Z</time>
      </trkpt>
      <trkpt lat="45.52716" lon="6.05572">
        <ele>928</ele>
        <time>2014-11-22T11:26:29Z</time>
      </trkpt>
      <trkpt lat="45.52699" lon="6.05584">
        <ele>926</ele>
        <time>2014-11-22T11:26:40Z</time>
      </trkpt>
      <trkpt lat="45.52685" lon="6.05602">
        <ele>928</ele>
        <time>2014-11-22T11:28:03Z</time>
      </trkpt>
      <trkpt lat="45.52673" lon="6.05623">
        <ele>926</ele>
        <time>2014-11-22T11:29:47Z</time>
      </trkpt>
      <trkpt lat="45.52658" lon="6.05639">
        <ele>937</ele>
        <time>2014-11-22T11:29:56Z</time>
      </trkpt>
      <trkpt lat="45.52642" lon="6.05653">
        <ele>937</ele>
        <time>2014-11-22T11:30:07Z</time>
      </trkpt>
      <trkpt lat="45.52626" lon="6.05666">
        <ele>939</ele>
        <time>2014-11-22T11:30:17Z</time>
      </trkpt>
      <trkpt lat="45.52609" lon="6.05677">
        <ele>936</ele>
        <time>2014-11-22T11:30:27Z</time>
      </trkpt>
      <trkpt lat="45.52591" lon="6.05684">
        <ele>938</ele>
        <time>2014-11-22T11:30:36Z</time>
      </trkpt>
      <trkpt lat="45.52571" lon="6.05691">
        <ele>945</ele>
        <time>2014-11-22T11:30:46Z</time>
      </trkpt>
      <trkpt lat="45.52552" lon="6.05697">
        <ele>945</ele>
        <time>2014-11-22T11:30:54Z</time>
      </trkpt>
      <trkpt lat="45.52534" lon="6.05707">
        <ele>945</ele>
        <time>2014-11-22T11:31:01Z</time>
      </trkpt>
      <trkpt lat="45.52517" lon="6.05717">
        <ele>945</ele>
        <time>2014-11-22T11:31:08Z</time>
      </trkpt>
      <trkpt lat="45.52499" lon="6.05727">
        <ele>951</ele>
        <time>2014-11-22T11:31:15Z</time>
      </trkpt>
      <trkpt lat="45.52482" lon="6.05737">
        <ele>951</ele>
        <time>2014-11-22T11:31:21Z</time>
      </trkpt>
      <trkpt lat="45.52464" lon="6.05741">
        <ele>954</ele>
        <time>2014-11-22T11:31:27Z</time>
      </trkpt>
      <trkpt lat="45.52446" lon="6.05749">
        <ele>956</ele>
        <time>2014-11-22T11:31:34Z</time>
      </trkpt>
      <trkpt lat="45.52437" lon="6.05775">
        <ele>951</ele>
        <time>2014-11-22T11:31:42Z</time>
      </trkpt>
      <trkpt lat="45.52434" lon="6.05801">
        <ele>950</ele>
        <time>2014-11-22T11:31:49Z</time>
      </trkpt>
      <trkpt lat="45.52432" lon="6.05828">
        <ele>951</ele>
        <time>2014-11-22T11:31:58Z</time>
      </trkpt>
      <trkpt lat="45.52419" lon="6.05853">
        <ele>948</ele>
        <time>2014-11-22T11:33:49Z</time>
      </trkpt>
      <trkpt lat="45.52403" lon="6.05868">
        <ele>955</ele>
        <time>2014-11-22T11:33:57Z</time>
      </trkpt>
      <trkpt lat="45.52384" lon="6.05865">
        <ele>956</ele>
        <time>2014-11-22T11:34:06Z</time>
      </trkpt>
      <trkpt lat="45.52366" lon="6.05869">
        <ele>958</ele>
        <time>2014-11-22T11:34:14Z</time>
      </trkpt>
      <trkpt lat="45.52348" lon="6.0588">
        <ele>958</ele>
        <time>2014-11-22T11:34:22Z</time>
      </trkpt>
      <trkpt lat="45.52329" lon="6.05884">
        <ele>967</ele>
        <time>2014-11-22T11:34:30Z</time>
      </trkpt>
      <trkpt lat="45.52309" lon="6.05884">
        <ele>969</ele>
        <time>2014-11-22T11:34:38Z</time>
      </trkpt>
      <trkpt lat="45.52291" lon="6.05882">
        <ele>971</ele>
        <time>2014-11-22T11:34:49Z</time>
      </trkpt>
      <trkpt lat="45.52273" lon="6.05879">
        <ele>972</ele>
        <time>2014-11-22T11:35:09Z</time>
      </trkpt>
      <trkpt lat="45.52256" lon="6.0589">
        <ele>974</ele>
        <time>2014-11-22T11:35:25Z</time>
      </trkpt>
      <trkpt lat="45.52249" lon="6.05913">
        <ele>980</ele>
        <time>2014-11-22T11:35:48Z</time>
      </trkpt>
      <trkpt lat="45.52246" lon="6.05939">
        <ele>987</ele>
        <time>2014-11-22T11:36:13Z</time>
      </trkpt>
      <trkpt lat="45.52235" lon="6.05961">
        <ele>991</ele>
        <time>2014-11-22T11:36:40Z</time>
      </trkpt>
      <trkpt lat="45.5223" lon="6.05986">
        <ele>993</ele>
        <time>2014-11-22T11:37:02Z</time>
      </trkpt>
      <trkpt lat="45.52216" lon="6.06003">
        <ele>1003</ele>
        <time>2014-11-22T11:37:32Z</time>
      </trkpt>
      <trkpt lat="45.52198" lon="6.06002">
        <ele>1005</ele>
        <time>2014-11-22T11:37:57Z</time>
      </trkpt>
      <trkpt lat="45.5218" lon="6.06005">
        <ele>1007</ele>
        <time>2014-11-22T11:38:25Z</time>
      </trkpt>
      <trkpt lat="45.52175" lon="6.06031">
        <ele>1008</ele>
        <time>2014-11-22T11:39:34Z</time>
      </trkpt>
      <trkpt lat="45.52171" lon="6.06057">
        <ele>1011</ele>
        <time>2014-11-22T11:39:55Z</time>
      </trkpt>
      <trkpt lat="45.52153" lon="6.06065">
        <ele>1015</ele>
        <time>2014-11-22T11:40:21Z</time>
      </trkpt>
      <trkpt lat="45.52136" lon="6.06075">
        <ele>1015</ele>
        <time>2014-11-22T11:41:50Z</time>
      </trkpt>
      <trkpt lat="45.52118" lon="6.06088">
        <ele>1017</ele>
        <time>2014-11-22T11:42:03Z</time>
      </trkpt>
      <trkpt lat="45.52102" lon="6.06103">
        <ele>1016</ele>
        <time>2014-11-22T11:42:14Z</time>
      </trkpt>
      <trkpt lat="45.52084" lon="6.06111">
        <ele>1016</ele>
        <time>2014-11-22T11:42:27Z</time>
      </trkpt>
      <trkpt lat="45.52066" lon="6.06115">
        <ele>1008</ele>
        <time>2014-11-22T11:48:03Z</time>
      </trkpt>
      <trkpt lat="45.52051" lon="6.06099">
        <ele>1008</ele>
        <time>2014-11-22T11:48:41Z</time>
      </trkpt>
      <trkpt lat="45.52034" lon="6.06086">
        <ele>1008</ele>
        <time>2014-11-22T11:48:48Z</time>
      </trkpt>
      <trkpt lat="45.52019" lon="6.06069">
        <ele>1015</ele>
        <time>2014-11-22T11:48:59Z</time>
      </trkpt>
      <trkpt lat="45.52012" lon="6.06045">
        <ele>1017</ele>
        <time>2014-11-22T11:49:15Z</time>
      </trkpt>
      <trkpt lat="45.52017" lon="6.06017">
        <ele>1020</ele>
        <time>2014-11-22T11:49:28Z</time>
      </trkpt>
      <trkpt lat="45.5202" lon="6.05991">
        <ele>1027</ele>
        <time>2014-11-22T11:49:46Z</time>
      </trkpt>
      <trkpt lat="45.52021" lon="6.05965">
        <ele>1029</ele>
        <time>2014-11-22T11:50:11Z</time>
      </trkpt>
      <trkpt lat="45.52033" lon="6.05945">
        <ele>1031</ele>
        <time>2014-11-22T11:50:36Z</time>
      </trkpt>
      <trkpt lat="45.52033" lon="6.05919">
        <ele>1033</ele>
        <time>2014-11-22T11:51:15Z</time>
      </trkpt>
      <trkpt lat="45.52017" lon="6.05906">
        <ele>1040</ele>
        <time>2014-11-22T11:52:10Z</time>
      </trkpt>
      <trkpt lat="45.52" lon="6.05895">
        <ele>1040</ele>
        <time>2014-11-22T11:52:37Z</time>
      </trkpt>
      <trkpt lat="45.51983" lon="6.05886">
        <ele>1034</ele>
        <time>2014-11-22T11:53:09Z</time>
      </trkpt>
      <trkpt lat="45.51971" lon="6.05866">
        <ele>1032</ele>
        <time>2014-11-22T11:53:36Z</time>
      </trkpt>
      <trkpt lat="45.51956" lon="6.05851">
        <ele>1031</ele>
        <time>2014-11-22T11:53:54Z</time>
      </trkpt>
      <trkpt lat="45.51938" lon="6.05837">
        <ele>1028</ele>
        <time>2014-11-22T11:54:38Z</time>
      </trkpt>
      <trkpt lat="45.51946" lon="6.0581">
        <ele>1032</ele>
        <time>2014-11-22T11:54:55Z</time>
      </trkpt>
      <trkpt lat="45.51956" lon="6.05786">
        <ele>1033</ele>
        <time>2014-11-22T11:55:01Z</time>
      </trkpt>
      <trkpt lat="45.5195" lon="6.05757">
        <ele>1032</ele>
        <time>2014-11-22T11:55:08Z</time>
      </trkpt>
      <trkpt lat="45.51938" lon="6.0573">
        <ele>1033</ele>
        <time>2014-11-22T11:55:12Z</time>
      </trkpt>
      <trkpt lat="45.51928" lon="6.05703">
        <ele>1035</ele>
        <time>2014-11-22T11:55:16Z</time>
      </trkpt>
      <trkpt lat="45.51918" lon="6.05679">
        <ele>1036</ele>
        <time>2014-11-22T11:55:23Z</time>
      </trkpt>
      <trkpt lat="45.51914" lon="6.05654">
        <ele>1035</ele>
        <time>2014-11-22T11:55:45Z</time>
      </trkpt>
      <trkpt lat="45.51919" lon="6.05628">
        <ele>1048</ele>
        <time>2014-11-22T11:56:22Z</time>
      </trkpt>
      <trkpt lat="45.51904" lon="6.05614">
        <ele>1040</ele>
        <time>2014-11-22T11:56:48Z</time>
      </trkpt>
      <trkpt lat="45.51895" lon="6.05591">
        <ele>1044</ele>
        <time>2014-11-22T11:57:08Z</time>
      </trkpt>
      <trkpt lat="45.51882" lon="6.05572">
        <ele>1062</ele>
        <time>2014-11-22T11:57:32Z</time>
      </trkpt>
      <trkpt lat="45.51863" lon="6.05559">
        <ele>1062</ele>
        <time>2014-11-22T11:57:50Z</time>
      </trkpt>
      <trkpt lat="45.51846" lon="6.05547">
        <ele>1063</ele>
        <time>2014-11-22T11:57:55Z</time>
      </trkpt>
      <trkpt lat="45.51829" lon="6.05536">
        <ele>1042</ele>
        <time>2014-11-22T11:58:03Z</time>
      </trkpt>
      <trkpt lat="45.5182" lon="6.05511">
        <ele>1053</ele>
        <time>2014-11-22T11:58:08Z</time>
      </trkpt>
      <trkpt lat="45.5181" lon="6.05486">
        <ele>1058</ele>
        <time>2014-11-22T11:58:13Z</time>
      </trkpt>
      <trkpt lat="45.51802" lon="6.05463">
        <ele>1054</ele>
        <time>2014-11-22T11:58:19Z</time>
      </trkpt>
      <trkpt lat="45.51791" lon="6.05435">
        <ele>1052</ele>
        <time>2014-11-22T11:58:37Z</time>
      </trkpt>
      <trkpt lat="45.51782" lon="6.0546">
        <ele>1045</ele>
        <time>2014-11-22T11:59:35Z</time>
      </trkpt>
      <trkpt lat="45.51783" lon="6.05488">
        <ele>1041</ele>
        <time>2014-11-22T11:59:39Z</time>
      </trkpt>
      <trkpt lat="45.51779" lon="6.05516">
        <ele>1026</ele>
        <time>2014-11-22T11:59:43Z</time>
      </trkpt>
      <trkpt lat="45.51774" lon="6.05489">
        <ele>1035</ele>
        <time>2014-11-22T12:00:00Z</time>
      </trkpt>
      <trkpt lat="45.51768" lon="6.05464">
        <ele>1039</ele>
        <time>2014-11-22T12:00:12Z</time>
      </trkpt>
      <trkpt lat="45.51751" lon="6.05477">
        <ele>1029</ele>
        <time>2014-11-22T12:00:42Z</time>
      </trkpt>
      <trkpt lat="45.51745" lon="6.05505">
        <ele>995</ele>
        <time>2014-11-22T12:00:49Z</time>
      </trkpt>
      <trkpt lat="45.51742" lon="6.05531">
        <ele>977</ele>
        <time>2014-11-22T12:00:59Z</time>
      </trkpt>
      <trkpt lat="45.51731" lon="6.0551">
        <ele>979</ele>
        <time>2014-11-22T12:01:10Z</time>
      </trkpt>
      <trkpt lat="45.51723" lon="6.05482">
        <ele>981</ele>
        <time>2014-11-22T12:01:26Z</time>
      </trkpt>
      <trkpt lat="45.51708" lon="6.05467">
        <ele>974</ele>
        <time>2014-11-22T12:01:34Z</time>
      </trkpt>
      <trkpt lat="45.51692" lon="6.05449">
        <ele>969</ele>
        <time>2014-11-22T12:02:00Z</time>
      </trkpt>
      <trkpt lat="45.51687" lon="6.05422">
        <ele>966</ele>
        <time>2014-11-22T12:02:09Z</time>
      </trkpt>
      <trkpt lat="45.51674" lon="6.05405">
        <ele>969</ele>
        <time>2014-11-22T12:03:00Z</time>
      </trkpt>
      <trkpt lat="45.51672" lon="6.05379">
        <ele>981</ele>
        <time>2014-11-22T12:03:09Z</time>
      </trkpt>
      <trkpt lat="45.51666" lon="6.0535">
        <ele>948</ele>
        <time>2014-11-22T12:03:14Z</time>
      </trkpt>
      <trkpt lat="45.51659" lon="6.05326">
        <ele>960</ele>
        <time>2014-11-22T12:03:19Z</time>
      </trkpt>
      <trkpt lat="45.51643" lon="6.05314">
        <ele>951</ele>
        <time>2014-11-22T12:03:36Z</time>
      </trkpt>
      <trkpt lat="45.51635" lon="6.0529">
        <ele>949</ele>
        <time>2014-11-22T12:03:55Z</time>
      </trkpt>
      <trkpt lat="45.51628" lon="6.05265">
        <ele>950</ele>
        <time>2014-11-22T12:04:15Z</time>
      </trkpt>
      <trkpt lat="45.51628" lon="6.05239">
        <ele>971</ele>
        <time>2014-11-22T12:04:37Z</time>
      </trkpt>
      <trkpt lat="45.51625" lon="6.05214">
        <ele>975</ele>
        <time>2014-11-22T12:04:57Z</time>
      </trkpt>
      <trkpt lat="45.51612" lon="6.05191">
        <ele>974</ele>
        <time>2014-11-22T12:05:43Z</time>
      </trkpt>
      <trkpt lat="45.51604" lon="6.05168">
        <ele>971</ele>
        <time>2014-11-22T12:06:23Z</time>
      </trkpt>
      <trkpt lat="45.5159" lon="6.05148">
        <ele>990</ele>
        <time>2014-11-22T12:06:59Z</time>
      </trkpt>
      <trkpt lat="45.51577" lon="6.05125">
        <ele>960</ele>
        <time>2014-11-22T12:08:07Z</time>
      </trkpt>
      <trkpt lat="45.51559" lon="6.05111">
        <ele>960</ele>
        <time>2014-11-22T12:08:11Z</time>
      </trkpt>
      <trkpt lat="45.51551" lon="6.05136">
        <ele>953</ele>
        <time>2014-11-22T12:08:24Z</time>
      </trkpt>
      <trkpt lat="45.51533" lon="6.05139">
        <ele>947</ele>
        <time>2014-11-22T12:08:36Z</time>
      </trkpt>
      <trkpt lat="45.51517" lon="6.05122">
        <ele>946</ele>
        <time>2014-11-22T12:08:40Z</time>
      </trkpt>
      <trkpt lat="45.51502" lon="6.05104">
        <ele>944</ele>
        <time>2014-11-22T12:08:44Z</time>
      </trkpt>
      <trkpt lat="45.51485" lon="6.05081">
        <ele>937</ele>
        <time>2014-11-22T12:08:48Z</time>
      </trkpt>
      <trkpt lat="45.51471" lon="6.05061">
        <ele>936</ele>
        <time>2014-11-22T12:08:52Z</time>
      </trkpt>
      <trkpt lat="45.51452" lon="6.05045">
        <ele>935</ele>
        <time>2014-11-22T12:08:57Z</time>
      </trkpt>
      <trkpt lat="45.51435" lon="6.05054">
        <ele>930</ele>
        <time>2014-11-22T12:09:00Z</time>
      </trkpt>
      <trkpt lat="45.51417" lon="6.05068">
        <ele>922</ele>
        <time>2014-11-22T12:09:03Z</time>
      </trkpt>
      <trkpt lat="45.51398" lon="6.0506">
        <ele>906</ele>
        <time>2014-11-22T12:09:08Z</time>
      </trkpt>
      <trkpt lat="45.51379" lon="6.05051">
        <ele>903</ele>
        <time>2014-11-22T12:09:11Z</time>
      </trkpt>
      <trkpt lat="45.51375" lon="6.05081">
        <ele>900</ele>
        <time>2014-11-22T12:09:21Z</time>
      </trkpt>
      <trkpt lat="45.51383" lon="6.05109">
        <ele>884</ele>
        <time>2014-11-22T12:09:26Z</time>
      </trkpt>
      <trkpt lat="45.51393" lon="6.05135">
        <ele>881</ele>
        <time>2014-11-22T12:09:30Z</time>
      </trkpt>
      <trkpt lat="45.514" lon="6.05161">
        <ele>879</ele>
        <time>2014-11-22T12:09:34Z</time>
      </trkpt>
      <trkpt lat="45.51382" lon="6.05176">
        <ele>851</ele>
        <time>2014-11-22T12:09:46Z</time>
      </trkpt>
      <trkpt lat="45.51362" lon="6.05172">
        <ele>846</ele>
        <time>2014-11-22T12:09:50Z</time>
      </trkpt>
      <trkpt lat="45.51344" lon="6.05165">
        <ele>857</ele>
        <time>2014-11-22T12:09:56Z</time>
      </trkpt>
      <trkpt lat="45.51325" lon="6.05156">
        <ele>842</ele>
        <time>2014-11-22T12:10:00Z</time>
      </trkpt>
      <trkpt lat="45.51306" lon="6.05146">
        <ele>836</ele>
        <time>2014-11-22T12:10:03Z</time>
      </trkpt>
      <trkpt lat="45.51287" lon="6.0514">
        <ele>830</ele>
        <time>2014-11-22T12:10:06Z</time>
      </trkpt>
      <trkpt lat="45.51266" lon="6.0513">
        <ele>826</ele>
        <time>2014-11-22T12:10:10Z</time>
      </trkpt>
      <trkpt lat="45.51253" lon="6.05102">
        <ele>826</ele>
        <time>2014-11-22T12:10:14Z</time>
      </trkpt>
      <trkpt lat="45.51238" lon="6.05085">
        <ele>800</ele>
        <time>2014-11-22T12:10:18Z</time>
      </trkpt>
      <trkpt lat="45.51221" lon="6.05095">
        <ele>782</ele>
        <time>2014-11-22T12:10:41Z</time>
      </trkpt>
      <trkpt lat="45.51235" lon="6.05116">
        <ele>783</ele>
        <time>2014-11-22T12:10:49Z</time>
      </trkpt>
      <trkpt lat="45.51237" lon="6.05147">
        <ele>781</ele>
        <time>2014-11-22T12:10:54Z</time>
      </trkpt>
      <trkpt lat="45.51252" lon="6.05169">
        <ele>794</ele>
        <time>2014-11-22T12:10:58Z</time>
      </trkpt>
      <trkpt lat="45.51232" lon="6.05168">
        <ele>767</ele>
        <time>2014-11-22T12:11:19Z</time>
      </trkpt>
      <trkpt lat="45.51213" lon="6.05162">
        <ele>769</ele>
        <time>2014-11-22T12:11:25Z</time>
      </trkpt>
      <trkpt lat="45.51195" lon="6.0516">
        <ele>758</ele>
        <time>2014-11-22T12:11:31Z</time>
      </trkpt>
      <trkpt lat="45.51211" lon="6.05169">
        <ele>751</ele>
        <time>2014-11-22T12:11:39Z</time>
      </trkpt>
      <trkpt lat="45.51217" lon="6.05198">
        <ele>748</ele>
        <time>2014-11-22T12:11:46Z</time>
      </trkpt>
      <trkpt lat="45.51224" lon="6.05222">
        <ele>745</ele>
        <time>2014-11-22T12:11:50Z</time>
      </trkpt>
      <trkpt lat="45.51234" lon="6.05247">
        <ele>747</ele>
        <time>2014-11-22T12:11:56Z</time>
      </trkpt>
      <trkpt lat="45.51231" lon="6.05276">
        <ele>719</ele>
        <time>2014-11-22T12:12:02Z</time>
      </trkpt>
      <trkpt lat="45.51245" lon="6.05298">
        <ele>714</ele>
        <time>2014-11-22T12:12:06Z</time>
      </trkpt>
      <trkpt lat="45.5126" lon="6.05313">
        <ele>738</ele>
        <time>2014-11-22T12:12:10Z</time>
      </trkpt>
      <trkpt lat="45.51272" lon="6.05333">
        <ele>738</ele>
        <time>2014-11-22T12:12:19Z</time>
      </trkpt>
      <trkpt lat="45.51282" lon="6.05356">
        <ele>714</ele>
        <time>2014-11-22T12:12:22Z</time>
      </trkpt>
      <trkpt lat="45.51296" lon="6.05375">
        <ele>712</ele>
        <time>2014-11-22T12:12:25Z</time>
      </trkpt>
      <trkpt lat="45.51284" lon="6.05397">
        <ele>704</ele>
        <time>2014-11-22T12:12:35Z</time>
      </trkpt>
      <trkpt lat="45.51265" lon="6.05391">
        <ele>700</ele>
        <time>2014-11-22T12:12:40Z</time>
      </trkpt>
      <trkpt lat="45.51245" lon="6.05387">
        <ele>675</ele>
        <time>2014-11-22T12:12:47Z</time>
      </trkpt>
      <trkpt lat="45.51226" lon="6.05389">
        <ele>672</ele>
        <time>2014-11-22T12:12:52Z</time>
      </trkpt>
      <trkpt lat="45.51207" lon="6.05383">
        <ele>668</ele>
        <time>2014-11-22T12:12:55Z</time>
      </trkpt>
      <trkpt lat="45.5119" lon="6.05372">
        <ele>666</ele>
        <time>2014-11-22T12:12:58Z</time>
      </trkpt>
      <trkpt lat="45.51178" lon="6.05353">
        <ele>666</ele>
        <time>2014-11-22T12:13:02Z</time>
      </trkpt>
      <trkpt lat="45.51165" lon="6.05335">
        <ele>659</ele>
        <time>2014-11-22T12:13:06Z</time>
      </trkpt>
      <trkpt lat="45.51147" lon="6.05326">
        <ele>655</ele>
        <time>2014-11-22T12:13:11Z</time>
      </trkpt>
      <trkpt lat="45.51124" lon="6.05321">
        <ele>646</ele>
        <time>2014-11-22T12:13:15Z</time>
      </trkpt>
      <trkpt lat="45.51107" lon="6.05301">
        <ele>644</ele>
        <time>2014-11-22T12:13:19Z</time>
      </trkpt>
      <trkpt lat="45.51095" lon="6.05275">
        <ele>645</ele>
        <time>2014-11-22T12:13:22Z</time>
      </trkpt>
      <trkpt lat="45.51082" lon="6.05251">
        <ele>634</ele>
        <time>2014-11-22T12:13:26Z</time>
      </trkpt>
      <trkpt lat="45.5106" lon="6.05245">
        <ele>622</ele>
        <time>2014-11-22T12:13:30Z</time>
      </trkpt>
      <trkpt lat="45.51045" lon="6.0523">
        <ele>615</ele>
        <time>2014-11-22T12:13:34Z</time>
      </trkpt>
      <trkpt lat="45.51037" lon="6.05202">
        <ele>615</ele>
        <time>2014-11-22T12:13:38Z</time>
      </trkpt>
      <trkpt lat="45.51027" lon="6.0518">
        <ele>610</ele>
        <time>2014-11-22T12:13:42Z</time>
      </trkpt>
      <trkpt lat="45.5102" lon="6.05154">
        <ele>615</ele>
        <time>2014-11-22T12:13:45Z</time>
      </trkpt>
      <trkpt lat="45.51015" lon="6.05128">
        <ele>619</ele>
        <time>2014-11-22T12:13:47Z</time>
      </trkpt>
      <trkpt lat="45.51011" lon="6.05099">
        <ele>614</ele>
        <time>2014-11-22T12:13:51Z</time>
      </trkpt>
      <trkpt lat="45.51008" lon="6.05074">
        <ele>613</ele>
        <time>2014-11-22T12:13:59Z</time>
      </trkpt>
      <trkpt lat="45.51001" lon="6.05046">
        <ele>625</ele>
        <time>2014-11-22T12:14:06Z</time>
      </trkpt>
      <trkpt lat="45.50987" lon="6.05021">
        <ele>589</ele>
        <time>2014-11-22T12:14:12Z</time>
      </trkpt>
      <trkpt lat="45.50971" lon="6.05004">
        <ele>585</ele>
        <time>2014-11-22T12:14:16Z</time>
      </trkpt>
      <trkpt lat="45.50958" lon="6.04985">
        <ele>581</ele>
        <time>2014-11-22T12:14:19Z</time>
      </trkpt>
      <trkpt lat="45.50945" lon="6.04965">
        <ele>575</ele>
        <time>2014-11-22T12:14:22Z</time>
      </trkpt>
      <trkpt lat="45.50943" lon="6.04937">
        <ele>572</ele>
        <time>2014-11-22T12:14:25Z</time>
      </trkpt>
      <trkpt lat="45.50951" lon="6.04914">
        <ele>565</ele>
        <time>2014-11-22T12:14:29Z</time>
      </trkpt>
      <trkpt lat="45.50933" lon="6.04917">
        <ele>563</ele>
        <time>2014-11-22T12:14:37Z</time>
      </trkpt>
      <trkpt lat="45.5092" lon="6.0494">
        <ele>565</ele>
        <time>2014-11-22T12:14:40Z</time>
      </trkpt>
      <trkpt lat="45.5091" lon="6.04969">
        <ele>531</ele>
        <time>2014-11-22T12:14:43Z</time>
      </trkpt>
      <trkpt lat="45.50916" lon="6.04995">
        <ele>548</ele>
        <time>2014-11-22T12:14:48Z</time>
      </trkpt>
      <trkpt lat="45.50931" lon="6.05016">
        <ele>566</ele>
        <time>2014-11-22T12:14:52Z</time>
      </trkpt>
      <trkpt lat="45.50931" lon="6.05044">
        <ele>564</ele>
        <time>2014-11-22T12:14:55Z</time>
      </trkpt>
      <trkpt lat="45.50937" lon="6.05074">
        <ele>556</ele>
        <time>2014-11-22T12:14:59Z</time>
      </trkpt>
      <trkpt lat="45.50936" lon="6.051">
        <ele>550</ele>
        <time>2014-11-22T12:15:03Z</time>
      </trkpt>
      <trkpt lat="45.50929" lon="6.05127">
        <ele>550</ele>
        <time>2014-11-22T12:15:08Z</time>
      </trkpt>
      <trkpt lat="45.50932" lon="6.0516">
        <ele>543</ele>
        <time>2014-11-22T12:15:12Z</time>
      </trkpt>
      <trkpt lat="45.50931" lon="6.05186">
        <ele>539</ele>
        <time>2014-11-22T12:15:15Z</time>
      </trkpt>
      <trkpt lat="45.50932" lon="6.0522">
        <ele>537</ele>
        <time>2014-11-22T12:15:19Z</time>
      </trkpt>
      <trkpt lat="45.50932" lon="6.05248">
        <ele>526</ele>
        <time>2014-11-22T12:15:22Z</time>
      </trkpt>
      <trkpt lat="45.50932" lon="6.05281">
        <ele>521</ele>
        <time>2014-11-22T12:15:26Z</time>
      </trkpt>
      <trkpt lat="45.50939" lon="6.05308">
        <ele>518</ele>
        <time>2014-11-22T12:15:29Z</time>
      </trkpt>
      <trkpt lat="45.50948" lon="6.05333">
        <ele>519</ele>
        <time>2014-11-22T12:15:33Z</time>
      </trkpt>
      <trkpt lat="45.50949" lon="6.05363">
        <ele>507</ele>
        <time>2014-11-22T12:15:41Z</time>
      </trkpt>
      <trkpt lat="45.50957" lon="6.05396">
        <ele>506</ele>
        <time>2014-11-22T12:15:45Z</time>
      </trkpt>
      <trkpt lat="45.50964" lon="6.05422">
        <ele>495</ele>
        <time>2014-11-22T12:15:48Z</time>
      </trkpt>
      <trkpt lat="45.50976" lon="6.05443">
        <ele>497</ele>
        <time>2014-11-22T12:15:52Z</time>
      </trkpt>
      <trkpt lat="45.50972" lon="6.05469">
        <ele>491</ele>
        <time>2014-11-22T12:16:48Z</time>
      </trkpt>
      <trkpt lat="45.50978" lon="6.05498">
        <ele>493</ele>
        <time>2014-11-22T12:16:53Z</time>
      </trkpt>
      <trkpt lat="45.50986" lon="6.05527">
        <ele>476</ele>
        <time>2014-11-22T12:16:57Z</time>
      </trkpt>
      <trkpt lat="45.50996" lon="6.05555">
        <ele>470</ele>
        <time>2014-11-22T12:17:02Z</time>
      </trkpt>
      <trkpt lat="45.50974" lon="6.05551">
        <ele>467</ele>
        <time>2014-11-22T12:17:16Z</time>
      </trkpt>
      <trkpt lat="45.50958" lon="6.05531">
        <ele>466</ele>
        <time>2014-11-22T12:17:20Z</time>
      </trkpt>
      <trkpt lat="45.50942" lon="6.05514">
        <ele>462</ele>
        <time>2014-11-22T12:17:23Z</time>
      </trkpt>
      <trkpt lat="45.50929" lon="6.05496">
        <ele>467</ele>
        <time>2014-11-22T12:17:26Z</time>
      </trkpt>
      <trkpt lat="45.50919" lon="6.05472">
        <ele>475</ele>
        <time>2014-11-22T12:17:29Z</time>
      </trkpt>
      <trkpt lat="45.50912" lon="6.05499">
        <ele>448</ele>
        <time>2014-11-22T12:17:38Z</time>
      </trkpt>
      <trkpt lat="45.50919" lon="6.05524">
        <ele>458</ele>
        <time>2014-11-22T12:17:42Z</time>
      </trkpt>
      <trkpt lat="45.50927" lon="6.05549">
        <ele>455</ele>
        <time>2014-11-22T12:17:45Z</time>
      </trkpt>
      <trkpt lat="45.50932" lon="6.0558">
        <ele>446</ele>
        <time>2014-11-22T12:17:48Z</time>
      </trkpt>
      <trkpt lat="45.50931" lon="6.05607">
        <ele>439</ele>
        <time>2014-11-22T12:17:53Z</time>
      </trkpt>
      <trkpt lat="45.50917" lon="6.05584">
        <ele>431</ele>
        <time>2014-11-22T12:17:58Z</time>
      </trkpt>
      <trkpt lat="45.50905" lon="6.05566">
        <ele>424</ele>
        <time>2014-11-22T12:18:02Z</time>
      </trkpt>
      <trkpt lat="45.50883" lon="6.05554">
        <ele>419</ele>
        <time>2014-11-22T12:21:04Z</time>
      </trkpt>
      <trkpt lat="45.50866" lon="6.05527">
        <ele>416</ele>
        <time>2014-11-22T12:21:07Z</time>
      </trkpt>
      <trkpt lat="45.5085" lon="6.05506">
        <ele>411</ele>
        <time>2014-11-22T12:21:10Z</time>
      </trkpt>
      <trkpt lat="45.50836" lon="6.05485">
        <ele>415</ele>
        <time>2014-11-22T12:21:14Z</time>
      </trkpt>
      <trkpt lat="45.50825" lon="6.05458">
        <ele>391</ele>
        <time>2014-11-22T12:21:17Z</time>
      </trkpt>
      <trkpt lat="45.50814" lon="6.0543">
        <ele>393</ele>
        <time>2014-11-22T12:21:20Z</time>
      </trkpt>
      <trkpt lat="45.50806" lon="6.05404">
        <ele>394</ele>
        <time>2014-11-22T12:21:23Z</time>
      </trkpt>
      <trkpt lat="45.508" lon="6.05378">
        <ele>393</ele>
        <time>2014-11-22T12:21:26Z</time>
      </trkpt>
      <trkpt lat="45.50794" lon="6.05348">
        <ele>393</ele>
        <time>2014-11-22T12:21:29Z</time>
      </trkpt>
      <trkpt lat="45.50791" lon="6.05318">
        <ele>401</ele>
        <time>2014-11-22T12:21:33Z</time>
      </trkpt>
      <trkpt lat="45.50783" lon="6.05294">
        <ele>401</ele>
        <time>2014-11-22T12:21:38Z</time>
      </trkpt>
      <trkpt lat="45.50774" lon="6.05272">
        <ele>400</ele>
        <time>2014-11-22T12:21:43Z</time>
      </trkpt>
      <trkpt lat="45.50765" lon="6.05246">
        <ele>404</ele>
        <time>2014-11-22T12:21:48Z</time>
      </trkpt>
      <trkpt lat="45.50758" lon="6.05218">
        <ele>410</ele>
        <time>2014-11-22T12:21:53Z</time>
      </trkpt>
      <trkpt lat="45.50748" lon="6.05196">
        <ele>382</ele>
        <time>2014-11-22T12:21:57Z</time>
      </trkpt>
      <trkpt lat="45.50742" lon="6.05166">
        <ele>395</ele>
        <time>2014-11-22T12:22:02Z</time>
      </trkpt>
      <trkpt lat="45.50739" lon="6.0514">
        <ele>388</ele>
        <time>2014-11-22T12:22:07Z</time>
      </trkpt>
      <trkpt lat="45.50738" lon="6.05112">
        <ele>390</ele>
        <time>2014-11-22T12:22:12Z</time>
      </trkpt>
      <trkpt lat="45.50736" lon="6.05086">
        <ele>398</ele>
        <time>2014-11-22T12:22:17Z</time>
      </trkpt>
      <trkpt lat="45.50726" lon="6.05057">
        <ele>394</ele>
        <time>2014-11-22T12:22:22Z</time>
      </trkpt>
      <trkpt lat="45.50709" lon="6.05079">
        <ele>387</ele>
        <time>2014-11-22T12:22:32Z</time>
      </trkpt>
      <trkpt lat="45.50707" lon="6.05108">
        <ele>379</ele>
        <time>2014-11-22T12:22:35Z</time>
      </trkpt>
      <trkpt lat="45.5071" lon="6.05139">
        <ele>379</ele>
        <time>2014-11-22T12:22:39Z</time>
      </trkpt>
      <trkpt lat="45.50713" lon="6.05165">
        <ele>380</ele>
        <time>2014-11-22T12:22:44Z</time>
      </trkpt>
      <trkpt lat="45.50718" lon="6.05195">
        <ele>373</ele>
        <time>2014-11-22T12:22:50Z</time>
      </trkpt>
      <trkpt lat="45.50724" lon="6.05222">
        <ele>374</ele>
        <time>2014-11-22T12:22:55Z</time>
      </trkpt>
      <trkpt lat="45.50731" lon="6.05247">
        <ele>378</ele>
        <time>2014-11-22T12:22:59Z</time>
      </trkpt>
      <trkpt lat="45.50738" lon="6.05272">
        <ele>370</ele>
        <time>2014-11-22T12:23:03Z</time>
      </trkpt>
      <trkpt lat="45.50744" lon="6.053">
        <ele>365</ele>
        <time>2014-11-22T12:23:08Z</time>
      </trkpt>
      <trkpt lat="45.50745" lon="6.05326">
        <ele>368</ele>
        <time>2014-11-22T12:23:13Z</time>
      </trkpt>
      <trkpt lat="45.50729" lon="6.05313">
        <ele>362</ele>
        <time>2014-11-22T12:23:18Z</time>
      </trkpt>
      <trkpt lat="45.50716" lon="6.05289">
        <ele>359</ele>
        <time>2014-11-22T12:23:21Z</time>
      </trkpt>
      <trkpt lat="45.50708" lon="6.05262">
        <ele>359</ele>
        <time>2014-11-22T12:23:24Z</time>
      </trkpt>
      <trkpt lat="45.50701" lon="6.05232">
        <ele>365</ele>
        <time>2014-11-22T12:23:28Z</time>
      </trkpt>
      <trkpt lat="45.50698" lon="6.05204">
        <ele>366</ele>
        <time>2014-11-22T12:23:32Z</time>
      </trkpt>
      <trkpt lat="45.50694" lon="6.05179">
        <ele>365</ele>
        <time>2014-11-22T12:23:36Z</time>
      </trkpt>
      <trkpt lat="45.50689" lon="6.0515">
        <ele>369</ele>
        <time>2014-11-22T12:23:40Z</time>
      </trkpt>
      <trkpt lat="45.50684" lon="6.05119">
        <ele>372</ele>
        <time>2014-11-22T12:23:44Z</time>
      </trkpt>
      <trkpt lat="45.50678" lon="6.05091">
        <ele>365</ele>
        <time>2014-11-22T12:23:48Z</time>
      </trkpt>
      <trkpt lat="45.50669" lon="6.05067">
        <ele>371</ele>
        <time>2014-11-22T12:23:54Z</time>
      </trkpt>
      <trkpt lat="45.50662" lon="6.05093">
        <ele>347</ele>
        <time>2014-11-22T12:23:59Z</time>
      </trkpt>
      <trkpt lat="45.50664" lon="6.05129">
        <ele>338</ele>
        <time>2014-11-22T12:24:02Z</time>
      </trkpt>
      <trkpt lat="45.50668" lon="6.05163">
        <ele>352</ele>
        <time>2014-11-22T12:24:05Z</time>
      </trkpt>
      <trkpt lat="45.50672" lon="6.05197">
        <ele>360</ele>
        <time>2014-11-22T12:24:08Z</time>
      </trkpt>
      <trkpt lat="45.50675" lon="6.05228">
        <ele>356</ele>
        <time>2014-11-22T12:24:11Z</time>
      </trkpt>
      <trkpt lat="45.50677" lon="6.05256">
        <ele>345</ele>
        <time>2014-11-22T12:24:14Z</time>
      </trkpt>
      <trkpt lat="45.50683" lon="6.05283">
        <ele>350</ele>
        <time>2014-11-22T12:24:18Z</time>
      </trkpt>
      <trkpt lat="45.5069" lon="6.05307">
        <ele>350</ele>
        <time>2014-11-22T12:24:22Z</time>
      </trkpt>
      <trkpt lat="45.50676" lon="6.05287">
        <ele>349</ele>
        <time>2014-11-22T12:24:37Z</time>
      </trkpt>
      <trkpt lat="45.50663" lon="6.05259">
        <ele>330</ele>
        <time>2014-11-22T12:24:40Z</time>
      </trkpt>
      <trkpt lat="45.50656" lon="6.05234">
        <ele>330</ele>
        <time>2014-11-22T12:24:42Z</time>
      </trkpt>
      <trkpt lat="45.50649" lon="6.05206">
        <ele>328</ele>
        <time>2014-11-22T12:24:44Z</time>
      </trkpt>
      <trkpt lat="45.50638" lon="6.05177">
        <ele>329</ele>
        <time>2014-11-22T12:24:46Z</time>
      </trkpt>
      <trkpt lat="45.50625" lon="6.05149">
        <ele>330</ele>
        <time>2014-11-22T12:24:48Z</time>
      </trkpt>
      <trkpt lat="45.50614" lon="6.05119">
        <ele>328</ele>
        <time>2014-11-22T12:24:50Z</time>
      </trkpt>
      <trkpt lat="45.50609" lon="6.05086">
        <ele>326</ele>
        <time>2014-11-22T12:24:52Z</time>
      </trkpt>
      <trkpt lat="45.50607" lon="6.05059">
        <ele>334</ele>
        <time>2014-11-22T12:24:54Z</time>
      </trkpt>
      <trkpt lat="45.50591" lon="6.05039">
        <ele>334</ele>
        <time>2014-11-22T12:24:58Z</time>
      </trkpt>
      <trkpt lat="45.50576" lon="6.05023">
        <ele>318</ele>
        <time>2014-11-22T12:25:05Z</time>
      </trkpt>
      <trkpt lat="45.50568" lon="6.04998">
        <ele>325</ele>
        <time>2014-11-22T12:25:13Z</time>
      </trkpt>
      <trkpt lat="45.50561" lon="6.04973">
        <ele>325</ele>
        <time>2014-11-22T12:25:21Z</time>
      </trkpt>
      <trkpt lat="45.5055" lon="6.04951">
        <ele>325</ele>
        <time>2014-11-22T12:25:28Z</time>
      </trkpt>
      <trkpt lat="45.5055" lon="6.04923">
        <ele>327</ele>
        <time>2014-11-22T12:25:37Z</time>
      </trkpt>
      <trkpt lat="45.50545" lon="6.04898">
        <ele>333</ele>
        <time>2014-11-22T12:25:46Z</time>
      </trkpt>
      <trkpt lat="45.5054" lon="6.04871">
        <ele>333</ele>
        <time>2014-11-22T12:25:55Z</time>
      </trkpt>
      <trkpt lat="45.50536" lon="6.04846">
        <ele>333</ele>
        <time>2014-11-22T12:26:03Z</time>
      </trkpt>
      <trkpt lat="45.50528" lon="6.04823">
        <ele>335</ele>
        <time>2014-11-22T12:26:10Z</time>
      </trkpt>
      <trkpt lat="45.50521" lon="6.04797">
        <ele>336</ele>
        <time>2014-11-22T12:26:17Z</time>
      </trkpt>
      <trkpt lat="45.50515" lon="6.04773">
        <ele>336</ele>
        <time>2014-11-22T12:26:24Z</time>
      </trkpt>
      <trkpt lat="45.5051" lon="6.04747">
        <ele>335</ele>
        <time>2014-11-22T12:26:32Z</time>
      </trkpt>
      <trkpt lat="45.50511" lon="6.04721">
        <ele>340</ele>
        <time>2014-11-22T12:26:41Z</time>
      </trkpt>
      <trkpt lat="45.50517" lon="6.04696">
        <ele>341</ele>
        <time>2014-11-22T12:26:51Z</time>
      </trkpt>
      <trkpt lat="45.50523" lon="6.04672">
        <ele>341</ele>
        <time>2014-11-22T12:27:01Z</time>
      </trkpt>
      <trkpt lat="45.50531" lon="6.04646">
        <ele>343</ele>
        <time>2014-11-22T12:27:12Z</time>
      </trkpt>
      <trkpt lat="45.50539" lon="6.04621">
        <ele>345</ele>
        <time>2014-11-22T12:27:23Z</time>
      </trkpt>
      <trkpt lat="45.50545" lon="6.04595">
        <ele>346</ele>
        <time>2014-11-22T12:27:34Z</time>
      </trkpt>
      <trkpt lat="45.50547" lon="6.04568">
        <ele>343</ele>
        <time>2014-11-22T12:27:42Z</time>
      </trkpt>
      <trkpt lat="45.50544" lon="6.04534">
        <ele>341</ele>
        <time>2014-11-22T12:27:47Z</time>
      </trkpt>
      <trkpt lat="45.50546" lon="6.04507">
        <ele>341</ele>
        <time>2014-11-22T12:27:50Z</time>
      </trkpt>
      <trkpt lat="45.50554" lon="6.04478">
        <ele>336</ele>
        <time>2014-11-22T12:27:53Z</time>
      </trkpt>
      <trkpt lat="45.50563" lon="6.04448">
        <ele>336</ele>
        <time>2014-11-22T12:27:56Z</time>
      </trkpt>
      <trkpt lat="45.50572" lon="6.04416">
        <ele>336</ele>
        <time>2014-11-22T12:27:59Z</time>
      </trkpt>
      <trkpt lat="45.50579" lon="6.04381">
        <ele>331</ele>
        <time>2014-11-22T12:28:02Z</time>
      </trkpt>
      <trkpt lat="45.50585" lon="6.0435">
        <ele>344</ele>
        <time>2014-11-22T12:28:05Z</time>
      </trkpt>
      <trkpt lat="45.50592" lon="6.04323">
        <ele>340</ele>
        <time>2014-11-22T12:28:10Z</time>
      </trkpt>
      <trkpt lat="45.50598" lon="6.04297">
        <ele>343</ele>
        <time>2014-11-22T12:28:17Z</time>
      </trkpt>
      <trkpt lat="45.50607" lon="6.04273">
        <ele>342</ele>
        <time>2014-11-22T12:28:23Z</time>
      </trkpt>
      <trkpt lat="45.50616" lon="6.04244">
        <ele>338</ele>
        <time>2014-11-22T12:28:27Z</time>
      </trkpt>
      <trkpt lat="45.5062" lon="6.04208">
        <ele>338</ele>
        <time>2014-11-22T12:28:30Z</time>
      </trkpt>
      <trkpt lat="45.50622" lon="6.04172">
        <ele>336</ele>
        <time>2014-11-22T12:28:33Z</time>
      </trkpt>
      <trkpt lat="45.5062" lon="6.04141">
        <ele>331</ele>
        <time>2014-11-22T12:28:36Z</time>
      </trkpt>
      <trkpt lat="45.50614" lon="6.04111">
        <ele>329</ele>
        <time>2014-11-22T12:28:39Z</time>
      </trkpt>
      <trkpt lat="45.50599" lon="6.04095">
        <ele>323</ele>
        <time>2014-11-22T12:28:44Z</time>
      </trkpt>
      <trkpt lat="45.50582" lon="6.04117">
        <ele>305</ele>
        <time>2014-11-22T12:28:48Z</time>
      </trkpt>
      <trkpt lat="45.50561" lon="6.04132">
        <ele>304</ele>
        <time>2014-11-22T12:28:51Z</time>
      </trkpt>
      <trkpt lat="45.50544" lon="6.04141">
        <ele>302</ele>
        <time>2014-11-22T12:28:54Z</time>
      </trkpt>
      <trkpt lat="45.50526" lon="6.04151">
        <ele>299</ele>
        <time>2014-11-22T12:28:58Z</time>
      </trkpt>
      <trkpt lat="45.50508" lon="6.04167">
        <ele>297</ele>
        <time>2014-11-22T12:29:01Z</time>
      </trkpt>
      <trkpt lat="45.50489" lon="6.04188">
        <ele>294</ele>
        <time>2014-11-22T12:29:04Z</time>
      </trkpt>
      <trkpt lat="45.50471" lon="6.04208">
        <ele>295</ele>
        <time>2014-11-22T12:29:07Z</time>
      </trkpt>
      <trkpt lat="45.50457" lon="6.04223">
        <ele>295</ele>
        <time>2014-11-22T12:29:10Z</time>
      </trkpt>
      <trkpt lat="45.50435" lon="6.0422">
        <ele>294</ele>
        <time>2014-11-22T12:29:14Z</time>
      </trkpt>
      <trkpt lat="45.50422" lon="6.04194">
        <ele>292</ele>
        <time>2014-11-22T12:29:18Z</time>
      </trkpt>
      <trkpt lat="45.50408" lon="6.04178">
        <ele>288</ele>
        <time>2014-11-22T12:29:21Z</time>
      </trkpt>
      <trkpt lat="45.50396" lon="6.04157">
        <ele>287</ele>
        <time>2014-11-22T12:33:00Z</time>
      </trkpt>
      <trkpt lat="45.50405" lon="6.04132">
        <ele>286</ele>
        <time>2014-11-22T12:33:17Z</time>
      </trkpt>
      <trkpt lat="45.50414" lon="6.04105">
        <ele>284</ele>
        <time>2014-11-22T12:33:22Z</time>
      </trkpt>
      <trkpt lat="45.50425" lon="6.04076">
        <ele>283</ele>
        <time>2014-11-22T12:33:26Z</time>
      </trkpt>
      <trkpt lat="45.50433" lon="6.04051">
        <ele>285</ele>
        <time>2014-11-22T12:33:29Z</time>
      </trkpt>
      <trkpt lat="45.50443" lon="6.04025">
        <ele>285</ele>
        <time>2014-11-22T12:33:32Z</time>
      </trkpt>
      <trkpt lat="45.50451" lon="6.04">
        <ele>285</ele>
        <time>2014-11-22T12:33:35Z</time>
      </trkpt>
      <trkpt lat="45.50434" lon="6.03975">
        <ele>286</ele>
        <time>2014-11-22T12:33:39Z</time>
      </trkpt>
      <trkpt lat="45.50417" lon="6.03964">
        <ele>284</ele>
        <time>2014-11-22T12:33:42Z</time>
      </trkpt>
      <trkpt lat="45.50415" lon="6.03934">
        <ele>284</ele>
        <time>2014-11-22T12:33:48Z</time>
      </trkpt>
      <trkpt lat="45.50419" lon="6.03906">
        <ele>284</ele>
        <time>2014-11-22T12:33:58Z</time>
      </trkpt>
      <trkpt lat="45.5041" lon="6.03881">
        <ele>283</ele>
        <time>2014-11-22T12:34:03Z</time>
      </trkpt>
      <trkpt lat="45.50389" lon="6.03874">
        <ele>283</ele>
        <time>2014-11-22T12:34:07Z</time>
      </trkpt>
      <trkpt lat="45.50373" lon="6.03895">
        <ele>283</ele>
        <time>2014-11-22T12:34:11Z</time>
      </trkpt>
      <trkpt lat="45.50356" lon="6.03915">
        <ele>283</ele>
        <time>2014-11-22T12:34:15Z</time>
      </trkpt>
      <trkpt lat="45.50337" lon="6.03915">
        <ele>284</ele>
        <time>2014-11-22T12:34:19Z</time>
      </trkpt>
      <trkpt lat="45.5032" lon="6.03902">
        <ele>284</ele>
        <time>2014-11-22T12:34:23Z</time>
      </trkpt>
      <trkpt lat="45.50306" lon="6.03881">
        <ele>284</ele>
        <time>2014-11-22T12:34:39Z</time>
      </trkpt>
      <trkpt lat="45.50294" lon="6.03861">
        <ele>284</ele>
        <time>2014-11-22T12:34:45Z</time>
      </trkpt>
      <trkpt lat="45.50282" lon="6.03841">
        <ele>284</ele>
        <time>2014-11-22T12:34:50Z</time>
      </trkpt>
      <trkpt lat="45.50269" lon="6.03819">
        <ele>283</ele>
        <time>2014-11-22T12:34:55Z</time>
      </trkpt>
      <trkpt lat="45.5025" lon="6.03815">
        <ele>284</ele>
        <time>2014-11-22T12:35:00Z</time>
      </trkpt>
      <trkpt lat="45.50232" lon="6.03826">
        <ele>285</ele>
        <time>2014-11-22T12:35:04Z</time>
      </trkpt>
      <trkpt lat="45.50215" lon="6.03836">
        <ele>285</ele>
        <time>2014-11-22T12:35:08Z</time>
      </trkpt>
      <trkpt lat="45.50197" lon="6.03847">
        <ele>286</ele>
        <time>2014-11-22T12:35:12Z</time>
      </trkpt>
      <trkpt lat="45.50179" lon="6.03858">
        <ele>286</ele>
        <time>2014-11-22T12:35:16Z</time>
      </trkpt>
      <trkpt lat="45.50161" lon="6.0387">
        <ele>288</ele>
        <time>2014-11-22T12:35:20Z</time>
      </trkpt>
      <trkpt lat="45.50144" lon="6.03881">
        <ele>288</ele>
        <time>2014-11-22T12:35:24Z</time>
      </trkpt>
      <trkpt lat="45.50127" lon="6.03891">
        <ele>288</ele>
        <time>2014-11-22T12:35:28Z</time>
      </trkpt>
      <trkpt lat="45.50108" lon="6.03904">
        <ele>289</ele>
        <time>2014-11-22T12:35:33Z</time>
      </trkpt>
      <trkpt lat="45.50091" lon="6.03914">
        <ele>290</ele>
        <time>2014-11-22T12:35:38Z</time>
      </trkpt>
      <trkpt lat="45.50074" lon="6.03925">
        <ele>290</ele>
        <time>2014-11-22T12:35:43Z</time>
      </trkpt>
      <trkpt lat="45.50058" lon="6.03935">
        <ele>291</ele>
        <time>2014-11-22T12:35:48Z</time>
      </trkpt>
      <trkpt lat="45.50041" lon="6.03945">
        <ele>291</ele>
        <time>2014-11-22T12:35:53Z</time>
      </trkpt>
      <trkpt lat="45.50022" lon="6.03952">
        <ele>291</ele>
        <time>2014-11-22T12:35:58Z</time>
      </trkpt>
      <trkpt lat="45.49999" lon="6.03954">
        <ele>288</ele>
        <time>2014-11-22T12:36:03Z</time>
      </trkpt>
      <trkpt lat="45.4998" lon="6.03952">
        <ele>288</ele>
        <time>2014-11-22T12:36:07Z</time>
      </trkpt>
      <trkpt lat="45.49959" lon="6.03944">
        <ele>287</ele>
        <time>2014-11-22T12:36:11Z</time>
      </trkpt>
      <trkpt lat="45.49937" lon="6.03929">
        <ele>285</ele>
        <time>2014-11-22T12:36:15Z</time>
      </trkpt>
      <trkpt lat="45.49921" lon="6.03911">
        <ele>285</ele>
        <time>2014-11-22T12:36:18Z</time>
      </trkpt>
      <trkpt lat="45.49904" lon="6.03886">
        <ele>280</ele>
        <time>2014-11-22T12:36:21Z</time>
      </trkpt>
      <trkpt lat="45.49895" lon="6.03864">
        <ele>281</ele>
        <time>2014-11-22T12:36:23Z</time>
      </trkpt>
      <trkpt lat="45.49885" lon="6.03839">
        <ele>281</ele>
        <time>2014-11-22T12:36:25Z</time>
      </trkpt>
      <trkpt lat="45.49875" lon="6.03812">
        <ele>280</ele>
        <time>2014-11-22T12:36:27Z</time>
      </trkpt>
      <trkpt lat="45.49865" lon="6.03784">
        <ele>279</ele>
        <time>2014-11-22T12:36:29Z</time>
      </trkpt>
      <trkpt lat="45.49855" lon="6.03756">
        <ele>276</ele>
        <time>2014-11-22T12:36:31Z</time>
      </trkpt>
      <trkpt lat="45.49846" lon="6.03726">
        <ele>276</ele>
        <time>2014-11-22T12:36:33Z</time>
      </trkpt>
      <trkpt lat="45.49839" lon="6.03693">
        <ele>275</ele>
        <time>2014-11-22T12:36:35Z</time>
      </trkpt>
      <trkpt lat="45.49831" lon="6.0366">
        <ele>269</ele>
        <time>2014-11-22T12:36:37Z</time>
      </trkpt>
      <trkpt lat="45.49823" lon="6.03626">
        <ele>267</ele>
        <time>2014-11-22T12:36:39Z</time>
      </trkpt>
      <trkpt lat="45.49815" lon="6.03595">
        <ele>267</ele>
        <time>2014-11-22T12:36:41Z</time>
      </trkpt>
      <trkpt lat="45.49809" lon="6.03566">
        <ele>266</ele>
        <time>2014-11-22T12:36:43Z</time>
      </trkpt>
      <trkpt lat="45.49805" lon="6.03538">
        <ele>266</ele>
        <time>2014-11-22T12:36:45Z</time>
      </trkpt>
      <trkpt lat="45.49802" lon="6.03512">
        <ele>266</ele>
        <time>2014-11-22T12:36:47Z</time>
      </trkpt>
      <trkpt lat="45.49798" lon="6.03476">
        <ele>265</ele>
        <time>2014-11-22T12:36:50Z</time>
      </trkpt>
      <trkpt lat="45.49795" lon="6.03446">
        <ele>265</ele>
        <time>2014-11-22T12:36:53Z</time>
      </trkpt>
      <trkpt lat="45.49792" lon="6.03417">
        <ele>265</ele>
        <time>2014-11-22T12:36:56Z</time>
      </trkpt>
      <trkpt lat="45.49789" lon="6.0339">
        <ele>265</ele>
        <time>2014-11-22T12:36:59Z</time>
      </trkpt>
      <trkpt lat="45.49785" lon="6.03364">
        <ele>265</ele>
        <time>2014-11-22T12:37:02Z</time>
      </trkpt>
      <trkpt lat="45.49779" lon="6.03332">
        <ele>264</ele>
        <time>2014-11-22T12:37:06Z</time>
      </trkpt>
      <trkpt lat="45.49768" lon="6.03303">
        <ele>264</ele>
        <time>2014-11-22T12:37:10Z</time>
      </trkpt>
      <trkpt lat="45.49752" lon="6.03279">
        <ele>263</ele>
        <time>2014-11-22T12:37:14Z</time>
      </trkpt>
      <trkpt lat="45.49734" lon="6.03257">
        <ele>261</ele>
        <time>2014-11-22T12:37:18Z</time>
      </trkpt>
      <trkpt lat="45.49717" lon="6.03236">
        <ele>261</ele>
        <time>2014-11-22T12:37:22Z</time>
      </trkpt>
      <trkpt lat="45.49699" lon="6.03216">
        <ele>261</ele>
        <time>2014-11-22T12:37:26Z</time>
      </trkpt>
      <trkpt lat="45.49681" lon="6.03195">
        <ele>262</ele>
        <time>2014-11-22T12:37:30Z</time>
      </trkpt>
      <trkpt lat="45.49663" lon="6.03176">
        <ele>262</ele>
        <time>2014-11-22T12:37:34Z</time>
      </trkpt>
      <trkpt lat="45.49645" lon="6.03156">
        <ele>262</ele>
        <time>2014-11-22T12:37:38Z</time>
      </trkpt>
      <trkpt lat="45.49627" lon="6.03135">
        <ele>262</ele>
        <time>2014-11-22T12:37:42Z</time>
      </trkpt>
      <trkpt lat="45.49609" lon="6.03114">
        <ele>262</ele>
        <time>2014-11-22T12:37:46Z</time>
      </trkpt>
      <trkpt lat="45.49591" lon="6.03093">
        <ele>262</ele>
        <time>2014-11-22T12:37:50Z</time>
      </trkpt>
      <trkpt lat="45.49574" lon="6.03072">
        <ele>262</ele>
        <time>2014-11-22T12:37:54Z</time>
      </trkpt>
      <trkpt lat="45.49556" lon="6.03052">
        <ele>262</ele>
        <time>2014-11-22T12:37:58Z</time>
      </trkpt>
      <trkpt lat="45.49539" lon="6.03033">
        <ele>262</ele>
        <time>2014-11-22T12:38:02Z</time>
      </trkpt>
      <trkpt lat="45.49522" lon="6.03012">
        <ele>262</ele>
        <time>2014-11-22T12:38:06Z</time>
      </trkpt>
      <trkpt lat="45.49506" lon="6.02992">
        <ele>262</ele>
        <time>2014-11-22T12:38:10Z</time>
      </trkpt>
      <trkpt lat="45.49489" lon="6.02973">
        <ele>263</ele>
        <time>2014-11-22T12:38:14Z</time>
      </trkpt>
      <trkpt lat="45.49473" lon="6.02953">
        <ele>263</ele>
        <time>2014-11-22T12:38:18Z</time>
      </trkpt>
      <trkpt lat="45.49456" lon="6.02932">
        <ele>263</ele>
        <time>2014-11-22T12:38:22Z</time>
      </trkpt>
      <trkpt lat="45.49439" lon="6.02912">
        <ele>263</ele>
        <time>2014-11-22T12:38:26Z</time>
      </trkpt>
      <trkpt lat="45.49423" lon="6.02891">
        <ele>263</ele>
        <time>2014-11-22T12:38:30Z</time>
      </trkpt>
      <trkpt lat="45.49407" lon="6.02872">
        <ele>264</ele>
        <time>2014-11-22T12:38:34Z</time>
      </trkpt>
      <trkpt lat="45.4939" lon="6.02852">
        <ele>263</ele>
        <time>2014-11-22T12:38:38Z</time>
      </trkpt>
      <trkpt lat="45.49372" lon="6.02833">
        <ele>263</ele>
        <time>2014-11-22T12:38:42Z</time>
      </trkpt>
      <trkpt lat="45.49353" lon="6.02814">
        <ele>263</ele>
        <time>2014-11-22T12:38:46Z</time>
      </trkpt>
      <trkpt lat="45.49335" lon="6.02794">
        <ele>263</ele>
        <time>2014-11-22T12:38:50Z</time>
      </trkpt>
      <trkpt lat="45.49317" lon="6.02775">
        <ele>263</ele>
        <time>2014-11-22T12:38:54Z</time>
      </trkpt>
      <trkpt lat="45.49298" lon="6.02755">
        <ele>263</ele>
        <time>2014-11-22T12:38:58Z</time>
      </trkpt>
      <trkpt lat="45.4928" lon="6.02735">
        <ele>262</ele>
        <time>2014-11-22T12:39:02Z</time>
      </trkpt>
      <trkpt lat="45.49263" lon="6.02714">
        <ele>262</ele>
        <time>2014-11-22T12:39:06Z</time>
      </trkpt>
      <trkpt lat="45.49245" lon="6.02694">
        <ele>261</ele>
        <time>2014-11-22T12:39:10Z</time>
      </trkpt>
      <trkpt lat="45.49227" lon="6.02674">
        <ele>261</ele>
        <time>2014-11-22T12:39:14Z</time>
      </trkpt>
      <trkpt lat="45.49209" lon="6.02654">
        <ele>261</ele>
        <time>2014-11-22T12:39:18Z</time>
      </trkpt>
      <trkpt lat="45.49191" lon="6.02634">
        <ele>262</ele>
        <time>2014-11-22T12:39:22Z</time>
      </trkpt>
      <trkpt lat="45.49174" lon="6.02613">
        <ele>262</ele>
        <time>2014-11-22T12:39:26Z</time>
      </trkpt>
      <trkpt lat="45.49155" lon="6.02592">
        <ele>263</ele>
        <time>2014-11-22T12:39:30Z</time>
      </trkpt>
      <trkpt lat="45.49141" lon="6.02576">
        <ele>263</ele>
        <time>2014-11-22T12:39:33Z</time>
      </trkpt>
      <trkpt lat="45.49123" lon="6.02554">
        <ele>263</ele>
        <time>2014-11-22T12:39:37Z</time>
      </trkpt>
      <trkpt lat="45.49105" lon="6.02534">
        <ele>263</ele>
        <time>2014-11-22T12:39:41Z</time>
      </trkpt>
      <trkpt lat="45.49089" lon="6.02515">
        <ele>263</ele>
        <time>2014-11-22T12:39:45Z</time>
      </trkpt>
      <trkpt lat="45.49072" lon="6.02497">
        <ele>263</ele>
        <time>2014-11-22T12:39:50Z</time>
      </trkpt>
      <trkpt lat="45.49057" lon="6.0248">
        <ele>262</ele>
        <time>2014-11-22T12:39:55Z</time>
      </trkpt>
      <trkpt lat="45.49043" lon="6.02464">
        <ele>262</ele>
        <time>2014-11-22T12:40:00Z</time>
      </trkpt>
      <trkpt lat="45.49029" lon="6.02447">
        <ele>262</ele>
        <time>2014-11-22T12:40:05Z</time>
      </trkpt>
      <trkpt lat="45.49015" lon="6.0243">
        <ele>262</ele>
        <time>2014-11-22T12:40:10Z</time>
      </trkpt>
      <trkpt lat="45.49002" lon="6.02409">
        <ele>262</ele>
        <time>2014-11-22T12:40:15Z</time>
      </trkpt>
      <trkpt lat="45.4899" lon="6.02386">
        <ele>262</ele>
        <time>2014-11-22T12:40:20Z</time>
      </trkpt>
      <trkpt lat="45.48979" lon="6.02361">
        <ele>262</ele>
        <time>2014-11-22T12:40:25Z</time>
      </trkpt>
      <trkpt lat="45.48968" lon="6.02334">
        <ele>262</ele>
        <time>2014-11-22T12:40:30Z</time>
      </trkpt>
      <trkpt lat="45.48958" lon="6.02311">
        <ele>262</ele>
        <time>2014-11-22T12:40:34Z</time>
      </trkpt>
      <trkpt lat="45.48948" lon="6.02287">
        <ele>262</ele>
        <time>2014-11-22T12:40:38Z</time>
      </trkpt>
      <trkpt lat="45.48938" lon="6.0226">
        <ele>262</ele>
        <time>2014-11-22T12:40:42Z</time>
      </trkpt>
      <trkpt lat="45.48925" lon="6.02234">
        <ele>262</ele>
        <time>2014-11-22T12:40:46Z</time>
      </trkpt>
      <trkpt lat="45.48912" lon="6.02214">
        <ele>262</ele>
        <time>2014-11-22T12:40:49Z</time>
      </trkpt>
      <trkpt lat="45.48897" lon="6.02195">
        <ele>262</ele>
        <time>2014-11-22T12:40:52Z</time>
      </trkpt>
      <trkpt lat="45.4888" lon="6.02177">
        <ele>262</ele>
        <time>2014-11-22T12:40:55Z</time>
      </trkpt>
      <trkpt lat="45.48861" lon="6.02162">
        <ele>261</ele>
        <time>2014-11-22T12:40:58Z</time>
      </trkpt>
      <trkpt lat="45.48838" lon="6.02151">
        <ele>261</ele>
        <time>2014-11-22T12:41:01Z</time>
      </trkpt>
      <trkpt lat="45.48815" lon="6.02142">
        <ele>261</ele>
        <time>2014-11-22T12:41:04Z</time>
      </trkpt>
      <trkpt lat="45.48792" lon="6.02133">
        <ele>261</ele>
        <time>2014-11-22T12:41:07Z</time>
      </trkpt>
      <trkpt lat="45.48769" lon="6.02125">
        <ele>261</ele>
        <time>2014-11-22T12:41:10Z</time>
      </trkpt>
      <trkpt lat="45.48748" lon="6.02116">
        <ele>261</ele>
        <time>2014-11-22T12:41:13Z</time>
      </trkpt>
      <trkpt lat="45.4873" lon="6.02105">
        <ele>261</ele>
        <time>2014-11-22T12:41:16Z</time>
      </trkpt>
      <trkpt lat="45.48712" lon="6.02092">
        <ele>261</ele>
        <time>2014-11-22T12:41:19Z</time>
      </trkpt>
      <trkpt lat="45.48695" lon="6.02076">
        <ele>262</ele>
        <time>2014-11-22T12:41:22Z</time>
      </trkpt>
      <trkpt lat="45.48679" lon="6.02061">
        <ele>262</ele>
        <time>2014-11-22T12:41:25Z</time>
      </trkpt>
      <trkpt lat="45.48663" lon="6.02045">
        <ele>261</ele>
        <time>2014-11-22T12:41:28Z</time>
      </trkpt>
      <trkpt lat="45.48646" lon="6.02029">
        <ele>261</ele>
        <time>2014-11-22T12:41:31Z</time>
      </trkpt>
      <trkpt lat="45.48631" lon="6.02014">
        <ele>261</ele>
        <time>2014-11-22T12:41:34Z</time>
      </trkpt>
      <trkpt lat="45.48615" lon="6.01999">
        <ele>260</ele>
        <time>2014-11-22T12:41:37Z</time>
      </trkpt>
      <trkpt lat="45.486" lon="6.01986">
        <ele>260</ele>
        <time>2014-11-22T12:41:40Z</time>
      </trkpt>
      <trkpt lat="45.48585" lon="6.01971">
        <ele>260</ele>
        <time>2014-11-22T12:41:43Z</time>
      </trkpt>
      <trkpt lat="45.4857" lon="6.01955">
        <ele>260</ele>
        <time>2014-11-22T12:41:46Z</time>
      </trkpt>
      <trkpt lat="45.48555" lon="6.01941">
        <ele>260</ele>
        <time>2014-11-22T12:41:49Z</time>
      </trkpt>
      <trkpt lat="45.4854" lon="6.01926">
        <ele>261</ele>
        <time>2014-11-22T12:41:52Z</time>
      </trkpt>
      <trkpt lat="45.4852" lon="6.01906">
        <ele>261</ele>
        <time>2014-11-22T12:41:56Z</time>
      </trkpt>
      <trkpt lat="45.485" lon="6.01888">
        <ele>261</ele>
        <time>2014-11-22T12:42:00Z</time>
      </trkpt>
      <trkpt lat="45.48486" lon="6.01872">
        <ele>261</ele>
        <time>2014-11-22T12:42:03Z</time>
      </trkpt>
      <trkpt lat="45.48471" lon="6.01857">
        <ele>261</ele>
        <time>2014-11-22T12:42:06Z</time>
      </trkpt>
      <trkpt lat="45.48465" lon="6.0183">
        <ele>261</ele>
        <time>2014-11-22T12:42:11Z</time>
      </trkpt>
      <trkpt lat="45.48479" lon="6.01813">
        <ele>261</ele>
        <time>2014-11-22T12:42:16Z</time>
      </trkpt>
      <trkpt lat="45.48498" lon="6.01798">
        <ele>261</ele>
        <time>2014-11-22T12:42:22Z</time>
      </trkpt>
      <trkpt lat="45.48515" lon="6.01781">
        <ele>260</ele>
        <time>2014-11-22T12:42:28Z</time>
      </trkpt>
      <trkpt lat="45.4853" lon="6.01763">
        <ele>260</ele>
        <time>2014-11-22T12:42:35Z</time>
      </trkpt>
      <trkpt lat="45.48547" lon="6.0175">
        <ele>260</ele>
        <time>2014-11-22T12:42:40Z</time>
      </trkpt>
      <trkpt lat="45.4856" lon="6.01724">
        <ele>260</ele>
        <time>2014-11-22T12:42:45Z</time>
      </trkpt>
      <trkpt lat="45.48568" lon="6.01696">
        <ele>260</ele>
        <time>2014-11-22T12:42:50Z</time>
      </trkpt>
      <trkpt lat="45.48573" lon="6.01668">
        <ele>260</ele>
        <time>2014-11-22T12:42:56Z</time>
      </trkpt>
      <trkpt lat="45.4858" lon="6.01641">
        <ele>260</ele>
        <time>2014-11-22T12:43:03Z</time>
      </trkpt>
      <trkpt lat="45.48588" lon="6.01613">
        <ele>260</ele>
        <time>2014-11-22T12:43:08Z</time>
      </trkpt>
      <trkpt lat="45.48596" lon="6.01588">
        <ele>260</ele>
        <time>2014-11-22T12:43:12Z</time>
      </trkpt>
      <trkpt lat="45.48603" lon="6.0156">
        <ele>260</ele>
        <time>2014-11-22T12:43:17Z</time>
      </trkpt>
      <trkpt lat="45.48608" lon="6.01534">
        <ele>260</ele>
        <time>2014-11-22T12:43:24Z</time>
      </trkpt>
      <trkpt lat="45.48616" lon="6.0151">
        <ele>260</ele>
        <time>2014-11-22T12:43:30Z</time>
      </trkpt>
      <trkpt lat="45.48623" lon="6.01483">
        <ele>260</ele>
        <time>2014-11-22T12:43:35Z</time>
      </trkpt>
      <trkpt lat="45.48631" lon="6.01453">
        <ele>259</ele>
        <time>2014-11-22T12:43:40Z</time>
      </trkpt>
      <trkpt lat="45.48634" lon="6.01424">
        <ele>259</ele>
        <time>2014-11-22T12:43:45Z</time>
      </trkpt>
      <trkpt lat="45.48641" lon="6.01396">
        <ele>259</ele>
        <time>2014-11-22T12:43:50Z</time>
      </trkpt>
      <trkpt lat="45.48652" lon="6.01371">
        <ele>259</ele>
        <time>2014-11-22T12:43:55Z</time>
      </trkpt>
      <trkpt lat="45.48665" lon="6.01352">
        <ele>259</ele>
        <time>2014-11-22T12:43:59Z</time>
      </trkpt>
      <trkpt lat="45.48677" lon="6.01332">
        <ele>259</ele>
        <time>2014-11-22T12:44:03Z</time>
      </trkpt>
      <trkpt lat="45.48691" lon="6.01314">
        <ele>260</ele>
        <time>2014-11-22T12:44:07Z</time>
      </trkpt>
      <trkpt lat="45.48705" lon="6.01296">
        <ele>260</ele>
        <time>2014-11-22T12:44:11Z</time>
      </trkpt>
      <trkpt lat="45.48719" lon="6.01275">
        <ele>260</ele>
        <time>2014-11-22T12:44:16Z</time>
      </trkpt>
      <trkpt lat="45.48732" lon="6.0125">
        <ele>259</ele>
        <time>2014-11-22T12:44:22Z</time>
      </trkpt>
      <trkpt lat="45.4873" lon="6.01222">
        <ele>259</ele>
        <time>2014-11-22T12:44:27Z</time>
      </trkpt>
      <trkpt lat="45.48713" lon="6.01201">
        <ele>259</ele>
        <time>2014-11-22T12:44:32Z</time>
      </trkpt>
      <trkpt lat="45.48698" lon="6.01187">
        <ele>259</ele>
        <time>2014-11-22T12:44:36Z</time>
      </trkpt>
      <trkpt lat="45.48683" lon="6.01171">
        <ele>259</ele>
        <time>2014-11-22T12:44:40Z</time>
      </trkpt>
      <trkpt lat="45.48669" lon="6.01155">
        <ele>259</ele>
        <time>2014-11-22T12:44:44Z</time>
      </trkpt>
      <trkpt lat="45.48655" lon="6.01138">
        <ele>260</ele>
        <time>2014-11-22T12:44:48Z</time>
      </trkpt>
      <trkpt lat="45.4864" lon="6.01122">
        <ele>260</ele>
        <time>2014-11-22T12:44:52Z</time>
      </trkpt>
      <trkpt lat="45.48626" lon="6.01105">
        <ele>260</ele>
        <time>2014-11-22T12:44:56Z</time>
      </trkpt>
      <trkpt lat="45.48612" lon="6.01089">
        <ele>261</ele>
        <time>2014-11-22T12:45:00Z</time>
      </trkpt>
      <trkpt lat="45.48598" lon="6.01071">
        <ele>261</ele>
        <time>2014-11-22T12:45:04Z</time>
      </trkpt>
      <trkpt lat="45.48586" lon="6.01048">
        <ele>261</ele>
        <time>2014-11-22T12:45:09Z</time>
      </trkpt>
      <trkpt lat="45.48575" lon="6.01021">
        <ele>264</ele>
        <time>2014-11-22T12:45:14Z</time>
      </trkpt>
      <trkpt lat="45.48565" lon="6.00999">
        <ele>264</ele>
        <time>2014-11-22T12:45:18Z</time>
      </trkpt>
      <trkpt lat="45.48555" lon="6.00977">
        <ele>265</ele>
        <time>2014-11-22T12:45:22Z</time>
      </trkpt>
      <trkpt lat="45.48544" lon="6.00951">
        <ele>266</ele>
        <time>2014-11-22T12:45:27Z</time>
      </trkpt>
      <trkpt lat="45.48534" lon="6.00929">
        <ele>267</ele>
        <time>2014-11-22T12:45:32Z</time>
      </trkpt>
      <trkpt lat="45.48528" lon="6.00905">
        <ele>268</ele>
        <time>2014-11-22T12:45:37Z</time>
      </trkpt>
      <trkpt lat="45.48523" lon="6.00877">
        <ele>268</ele>
        <time>2014-11-22T12:45:42Z</time>
      </trkpt>
      <trkpt lat="45.48518" lon="6.0085">
        <ele>268</ele>
        <time>2014-11-22T12:45:47Z</time>
      </trkpt>
      <trkpt lat="45.48513" lon="6.00825">
        <ele>267</ele>
        <time>2014-11-22T12:45:52Z</time>
      </trkpt>
      <trkpt lat="45.48508" lon="6.00796">
        <ele>266</ele>
        <time>2014-11-22T12:45:57Z</time>
      </trkpt>
      <trkpt lat="45.48505" lon="6.0077">
        <ele>266</ele>
        <time>2014-11-22T12:46:01Z</time>
      </trkpt>
      <trkpt lat="45.48499" lon="6.0074">
        <ele>267</ele>
        <time>2014-11-22T12:46:06Z</time>
      </trkpt>
      <trkpt lat="45.48495" lon="6.00709">
        <ele>267</ele>
        <time>2014-11-22T12:46:11Z</time>
      </trkpt>
      <trkpt lat="45.48492" lon="6.00679">
        <ele>267</ele>
        <time>2014-11-22T12:46:16Z</time>
      </trkpt>
      <trkpt lat="45.48487" lon="6.00649">
        <ele>267</ele>
        <time>2014-11-22T12:46:21Z</time>
      </trkpt>
      <trkpt lat="45.48482" lon="6.0062">
        <ele>267</ele>
        <time>2014-11-22T12:46:26Z</time>
      </trkpt>
      <trkpt lat="45.48485" lon="6.00594">
        <ele>267</ele>
        <time>2014-11-22T12:46:31Z</time>
      </trkpt>
      <trkpt lat="45.48497" lon="6.00573">
        <ele>267</ele>
        <time>2014-11-22T12:46:36Z</time>
      </trkpt>
      <trkpt lat="45.48505" lon="6.0055">
        <ele>269</ele>
        <time>2014-11-22T12:46:41Z</time>
      </trkpt>
      <trkpt lat="45.4851" lon="6.00525">
        <ele>269</ele>
        <time>2014-11-22T12:46:47Z</time>
      </trkpt>
      <trkpt lat="45.48515" lon="6.00497">
        <ele>270</ele>
        <time>2014-11-22T12:46:54Z</time>
      </trkpt>
      <trkpt lat="45.48522" lon="6.00472">
        <ele>271</ele>
        <time>2014-11-22T12:47:00Z</time>
      </trkpt>
      <trkpt lat="45.48531" lon="6.00447">
        <ele>272</ele>
        <time>2014-11-22T12:47:06Z</time>
      </trkpt>
      <trkpt lat="45.4854" lon="6.00423">
        <ele>272</ele>
        <time>2014-11-22T12:47:12Z</time>
      </trkpt>
      <trkpt lat="45.48548" lon="6.00398">
        <ele>273</ele>
        <time>2014-11-22T12:47:18Z</time>
      </trkpt>
      <trkpt lat="45.48567" lon="6.00387">
        <ele>273</ele>
        <time>2014-11-22T12:47:24Z</time>
      </trkpt>
      <trkpt lat="45.48586" lon="6.00385">
        <ele>275</ele>
        <time>2014-11-22T12:47:30Z</time>
      </trkpt>
      <trkpt lat="45.48607" lon="6.00385">
        <ele>275</ele>
        <time>2014-11-22T12:47:37Z</time>
      </trkpt>
      <trkpt lat="45.48625" lon="6.00382">
        <ele>276</ele>
        <time>2014-11-22T12:47:43Z</time>
      </trkpt>
      <trkpt lat="45.48644" lon="6.00375">
        <ele>276</ele>
        <time>2014-11-22T12:47:49Z</time>
      </trkpt>
      <trkpt lat="45.48663" lon="6.0036">
        <ele>276</ele>
        <time>2014-11-22T12:47:55Z</time>
      </trkpt>
      <trkpt lat="45.48683" lon="6.00347">
        <ele>278</ele>
        <time>2014-11-22T12:48:01Z</time>
      </trkpt>
      <trkpt lat="45.48702" lon="6.00338">
        <ele>278</ele>
        <time>2014-11-22T12:48:07Z</time>
      </trkpt>
      <trkpt lat="45.48722" lon="6.00333">
        <ele>280</ele>
        <time>2014-11-22T12:48:14Z</time>
      </trkpt>
      <trkpt lat="45.48741" lon="6.00325">
        <ele>281</ele>
        <time>2014-11-22T12:48:21Z</time>
      </trkpt>
      <trkpt lat="45.48757" lon="6.00309">
        <ele>283</ele>
        <time>2014-11-22T12:48:28Z</time>
      </trkpt>
      <trkpt lat="45.48776" lon="6.003">
        <ele>284</ele>
        <time>2014-11-22T12:48:35Z</time>
      </trkpt>
      <trkpt lat="45.48794" lon="6.00292">
        <ele>284</ele>
        <time>2014-11-22T12:48:41Z</time>
      </trkpt>
      <trkpt lat="45.48813" lon="6.00285">
        <ele>285</ele>
        <time>2014-11-22T12:48:47Z</time>
      </trkpt>
      <trkpt lat="45.48832" lon="6.0028">
        <ele>285</ele>
        <time>2014-11-22T12:48:53Z</time>
      </trkpt>
      <trkpt lat="45.48851" lon="6.00275">
        <ele>288</ele>
        <time>2014-11-22T12:48:59Z</time>
      </trkpt>
      <trkpt lat="45.48869" lon="6.00261">
        <ele>288</ele>
        <time>2014-11-22T12:49:06Z</time>
      </trkpt>
      <trkpt lat="45.48883" lon="6.00244">
        <ele>289</ele>
        <time>2014-11-22T12:49:13Z</time>
      </trkpt>
      <trkpt lat="45.48898" lon="6.00225">
        <ele>289</ele>
        <time>2014-11-22T12:49:20Z</time>
      </trkpt>
      <trkpt lat="45.48915" lon="6.00209">
        <ele>289</ele>
        <time>2014-11-22T12:49:27Z</time>
      </trkpt>
      <trkpt lat="45.48932" lon="6.00198">
        <ele>290</ele>
        <time>2014-11-22T12:49:35Z</time>
      </trkpt>
      <trkpt lat="45.48949" lon="6.00189">
        <ele>291</ele>
        <time>2014-11-22T12:49:48Z</time>
      </trkpt>
      <trkpt lat="45.48931" lon="6.0018">
        <ele>290</ele>
        <time>2014-11-22T12:49:59Z</time>
      </trkpt>
      <trkpt lat="45.4892" lon="6.00155">
        <ele>289</ele>
        <time>2014-11-22T12:50:03Z</time>
      </trkpt>
      <trkpt lat="45.4891" lon="6.00128">
        <ele>287</ele>
        <time>2014-11-22T12:50:08Z</time>
      </trkpt>
      <trkpt lat="45.4889" lon="6.00126">
        <ele>287</ele>
        <time>2014-11-22T12:50:16Z</time>
      </trkpt>
      <trkpt lat="45.48871" lon="6.00121">
        <ele>286</ele>
        <time>2014-11-22T12:50:22Z</time>
      </trkpt>
      <trkpt lat="45.48851" lon="6.00103">
        <ele>286</ele>
        <time>2014-11-22T12:50:27Z</time>
      </trkpt>
      <trkpt lat="45.48832" lon="6.00082">
        <ele>284</ele>
        <time>2014-11-22T12:50:31Z</time>
      </trkpt>
      <trkpt lat="45.48824" lon="6.00056">
        <ele>282</ele>
        <time>2014-11-22T12:50:34Z</time>
      </trkpt>
      <trkpt lat="45.48817" lon="6.00028">
        <ele>281</ele>
        <time>2014-11-22T12:50:37Z</time>
      </trkpt>
      <trkpt lat="45.48803" lon="6.00006">
        <ele>281</ele>
        <time>2014-11-22T12:50:40Z</time>
      </trkpt>
      <trkpt lat="45.48782" lon="5.99997">
        <ele>279</ele>
        <time>2014-11-22T12:50:43Z</time>
      </trkpt>
      <trkpt lat="45.48763" lon="5.9999">
        <ele>279</ele>
        <time>2014-11-22T12:50:46Z</time>
      </trkpt>
      <trkpt lat="45.48745" lon="5.99984">
        <ele>277</ele>
        <time>2014-11-22T12:50:49Z</time>
      </trkpt>
      <trkpt lat="45.48721" lon="5.99981">
        <ele>277</ele>
        <time>2014-11-22T12:50:53Z</time>
      </trkpt>
      <trkpt lat="45.48703" lon="5.99983">
        <ele>277</ele>
        <time>2014-11-22T12:50:56Z</time>
      </trkpt>
      <trkpt lat="45.48685" lon="5.99986">
        <ele>276</ele>
        <time>2014-11-22T12:50:59Z</time>
      </trkpt>
      <trkpt lat="45.48667" lon="5.99992">
        <ele>276</ele>
        <time>2014-11-22T12:51:02Z</time>
      </trkpt>
      <trkpt lat="45.4865" lon="5.99999">
        <ele>276</ele>
        <time>2014-11-22T12:51:05Z</time>
      </trkpt>
      <trkpt lat="45.48628" lon="6.00009">
        <ele>276</ele>
        <time>2014-11-22T12:51:09Z</time>
      </trkpt>
      <trkpt lat="45.48609" lon="6.00001">
        <ele>276</ele>
        <time>2014-11-22T12:51:13Z</time>
      </trkpt>
      <trkpt lat="45.48593" lon="5.99981">
        <ele>276</ele>
        <time>2014-11-22T12:51:17Z</time>
      </trkpt>
      <trkpt lat="45.48582" lon="5.99957">
        <ele>275</ele>
        <time>2014-11-22T12:51:21Z</time>
      </trkpt>
      <trkpt lat="45.48574" lon="5.9993">
        <ele>275</ele>
        <time>2014-11-22T12:51:25Z</time>
      </trkpt>
      <trkpt lat="45.48563" lon="5.99905">
        <ele>275</ele>
        <time>2014-11-22T12:51:29Z</time>
      </trkpt>
      <trkpt lat="45.4855" lon="5.99884">
        <ele>275</ele>
        <time>2014-11-22T12:51:33Z</time>
      </trkpt>
      <trkpt lat="45.48537" lon="5.99858">
        <ele>275</ele>
        <time>2014-11-22T12:51:37Z</time>
      </trkpt>
      <trkpt lat="45.48531" lon="5.99828">
        <ele>276</ele>
        <time>2014-11-22T12:51:41Z</time>
      </trkpt>
      <trkpt lat="45.48523" lon="5.99797">
        <ele>275</ele>
        <time>2014-11-22T12:51:45Z</time>
      </trkpt>
      <trkpt lat="45.4851" lon="5.99769">
        <ele>275</ele>
        <time>2014-11-22T12:51:49Z</time>
      </trkpt>
      <trkpt lat="45.48496" lon="5.99746">
        <ele>274</ele>
        <time>2014-11-22T12:51:53Z</time>
      </trkpt>
      <trkpt lat="45.48482" lon="5.99725">
        <ele>274</ele>
        <time>2014-11-22T12:51:57Z</time>
      </trkpt>
      <trkpt lat="45.48462" lon="5.9972">
        <ele>274</ele>
        <time>2014-11-22T12:52:01Z</time>
      </trkpt>
      <trkpt lat="45.48443" lon="5.99731">
        <ele>274</ele>
        <time>2014-11-22T12:52:05Z</time>
      </trkpt>
      <trkpt lat="45.48425" lon="5.99743">
        <ele>274</ele>
        <time>2014-11-22T12:52:09Z</time>
      </trkpt>
      <trkpt lat="45.48404" lon="5.99757">
        <ele>274</ele>
        <time>2014-11-22T12:52:13Z</time>
      </trkpt>
      <trkpt lat="45.48381" lon="5.99762">
        <ele>274</ele>
        <time>2014-11-22T12:52:17Z</time>
      </trkpt>
      <trkpt lat="45.48361" lon="5.99748">
        <ele>274</ele>
        <time>2014-11-22T12:52:21Z</time>
      </trkpt>
      <trkpt lat="45.4834" lon="5.99734">
        <ele>274</ele>
        <time>2014-11-22T12:52:25Z</time>
      </trkpt>
      <trkpt lat="45.48321" lon="5.9972">
        <ele>273</ele>
        <time>2014-11-22T12:52:29Z</time>
      </trkpt>
      <trkpt lat="45.48302" lon="5.99707">
        <ele>273</ele>
        <time>2014-11-22T12:52:33Z</time>
      </trkpt>
      <trkpt lat="45.48287" lon="5.99688">
        <ele>272</ele>
        <time>2014-11-22T12:52:37Z</time>
      </trkpt>
      <trkpt lat="45.48272" lon="5.9967">
        <ele>272</ele>
        <time>2014-11-22T12:52:41Z</time>
      </trkpt>
      <trkpt lat="45.48257" lon="5.99651">
        <ele>272</ele>
        <time>2014-11-22T12:52:45Z</time>
      </trkpt>
      <trkpt lat="45.48243" lon="5.99634">
        <ele>271</ele>
        <time>2014-11-22T12:52:49Z</time>
      </trkpt>
      <trkpt lat="45.48221" lon="5.99624">
        <ele>271</ele>
        <time>2014-11-22T12:52:54Z</time>
      </trkpt>
      <trkpt lat="45.48201" lon="5.99621">
        <ele>271</ele>
        <time>2014-11-22T12:52:58Z</time>
      </trkpt>
      <trkpt lat="45.48179" lon="5.99622">
        <ele>271</ele>
        <time>2014-11-22T12:53:02Z</time>
      </trkpt>
      <trkpt lat="45.48157" lon="5.99622">
        <ele>269</ele>
        <time>2014-11-22T12:53:06Z</time>
      </trkpt>
      <trkpt lat="45.48134" lon="5.99618">
        <ele>269</ele>
        <time>2014-11-22T12:53:10Z</time>
      </trkpt>
      <trkpt lat="45.48112" lon="5.99609">
        <ele>269</ele>
        <time>2014-11-22T12:53:14Z</time>
      </trkpt>
      <trkpt lat="45.48091" lon="5.996">
        <ele>269</ele>
        <time>2014-11-22T12:53:18Z</time>
      </trkpt>
      <trkpt lat="45.48071" lon="5.99593">
        <ele>268</ele>
        <time>2014-11-22T12:53:22Z</time>
      </trkpt>
      <trkpt lat="45.48051" lon="5.99585">
        <ele>269</ele>
        <time>2014-11-22T12:53:26Z</time>
      </trkpt>
      <trkpt lat="45.48031" lon="5.99577">
        <ele>269</ele>
        <time>2014-11-22T12:53:30Z</time>
      </trkpt>
      <trkpt lat="45.4801" lon="5.99568">
        <ele>269</ele>
        <time>2014-11-22T12:53:34Z</time>
      </trkpt>
      <trkpt lat="45.4799" lon="5.99559">
        <ele>269</ele>
        <time>2014-11-22T12:53:38Z</time>
      </trkpt>
      <trkpt lat="45.4797" lon="5.9955">
        <ele>269</ele>
        <time>2014-11-22T12:53:42Z</time>
      </trkpt>
      <trkpt lat="45.47949" lon="5.99541">
        <ele>268</ele>
        <time>2014-11-22T12:53:46Z</time>
      </trkpt>
      <trkpt lat="45.47932" lon="5.99531">
        <ele>269</ele>
        <time>2014-11-22T12:53:50Z</time>
      </trkpt>
      <trkpt lat="45.47934" lon="5.99503">
        <ele>269</ele>
        <time>2014-11-22T12:53:55Z</time>
      </trkpt>
      <trkpt lat="45.47942" lon="5.9948">
        <ele>269</ele>
        <time>2014-11-22T12:53:59Z</time>
      </trkpt>
      <trkpt lat="45.47953" lon="5.99452">
        <ele>269</ele>
        <time>2014-11-22T12:54:04Z</time>
      </trkpt>
      <trkpt lat="45.47962" lon="5.99426">
        <ele>269</ele>
        <time>2014-11-22T12:54:09Z</time>
      </trkpt>
      <trkpt lat="45.47971" lon="5.99399">
        <ele>268</ele>
        <time>2014-11-22T12:54:14Z</time>
      </trkpt>
      <trkpt lat="45.47979" lon="5.9937">
        <ele>268</ele>
        <time>2014-11-22T12:54:19Z</time>
      </trkpt>
      <trkpt lat="45.47987" lon="5.99347">
        <ele>268</ele>
        <time>2014-11-22T12:54:23Z</time>
      </trkpt>
      <trkpt lat="45.47995" lon="5.99323">
        <ele>268</ele>
        <time>2014-11-22T12:54:27Z</time>
      </trkpt>
      <trkpt lat="45.48003" lon="5.993">
        <ele>268</ele>
        <time>2014-11-22T12:54:31Z</time>
      </trkpt>
      <trkpt lat="45.4801" lon="5.99276">
        <ele>268</ele>
        <time>2014-11-22T12:54:35Z</time>
      </trkpt>
      <trkpt lat="45.48017" lon="5.99251">
        <ele>267</ele>
        <time>2014-11-22T12:54:39Z</time>
      </trkpt>
      <trkpt lat="45.48025" lon="5.99227">
        <ele>267</ele>
        <time>2014-11-22T12:54:43Z</time>
      </trkpt>
      <trkpt lat="45.48033" lon="5.99204">
        <ele>267</ele>
        <time>2014-11-22T12:54:47Z</time>
      </trkpt>
      <trkpt lat="45.48042" lon="5.9918">
        <ele>267</ele>
        <time>2014-11-22T12:54:51Z</time>
      </trkpt>
      <trkpt lat="45.4805" lon="5.99155">
        <ele>268</ele>
        <time>2014-11-22T12:54:55Z</time>
      </trkpt>
      <trkpt lat="45.48057" lon="5.9913">
        <ele>268</ele>
        <time>2014-11-22T12:54:59Z</time>
      </trkpt>
      <trkpt lat="45.48065" lon="5.99105">
        <ele>268</ele>
        <time>2014-11-22T12:55:03Z</time>
      </trkpt>
      <trkpt lat="45.48075" lon="5.9908">
        <ele>269</ele>
        <time>2014-11-22T12:55:07Z</time>
      </trkpt>
      <trkpt lat="45.48083" lon="5.99054">
        <ele>269</ele>
        <time>2014-11-22T12:55:11Z</time>
      </trkpt>
      <trkpt lat="45.48091" lon="5.99026">
        <ele>271</ele>
        <time>2014-11-22T12:55:16Z</time>
      </trkpt>
      <trkpt lat="45.48087" lon="5.99001">
        <ele>271</ele>
        <time>2014-11-22T12:55:24Z</time>
      </trkpt>
      <trkpt lat="45.48068" lon="5.98986">
        <ele>270</ele>
        <time>2014-11-22T12:55:29Z</time>
      </trkpt>
      <trkpt lat="45.4805" lon="5.98972">
        <ele>270</ele>
        <time>2014-11-22T12:55:33Z</time>
      </trkpt>
      <trkpt lat="45.48032" lon="5.98956">
        <ele>269</ele>
        <time>2014-11-22T12:55:37Z</time>
      </trkpt>
      <trkpt lat="45.48013" lon="5.9894">
        <ele>269</ele>
        <time>2014-11-22T12:55:41Z</time>
      </trkpt>
      <trkpt lat="45.47994" lon="5.98924">
        <ele>269</ele>
        <time>2014-11-22T12:55:45Z</time>
      </trkpt>
      <trkpt lat="45.47975" lon="5.98908">
        <ele>269</ele>
        <time>2014-11-22T12:55:49Z</time>
      </trkpt>
      <trkpt lat="45.47955" lon="5.98891">
        <ele>269</ele>
        <time>2014-11-22T12:55:53Z</time>
      </trkpt>
      <trkpt lat="45.47935" lon="5.98876">
        <ele>269</ele>
        <time>2014-11-22T12:55:57Z</time>
      </trkpt>
      <trkpt lat="45.47914" lon="5.9886">
        <ele>268</ele>
        <time>2014-11-22T12:56:01Z</time>
      </trkpt>
      <trkpt lat="45.47893" lon="5.98846">
        <ele>268</ele>
        <time>2014-11-22T12:56:05Z</time>
      </trkpt>
      <trkpt lat="45.47871" lon="5.98832">
        <ele>268</ele>
        <time>2014-11-22T12:56:09Z</time>
      </trkpt>
      <trkpt lat="45.47854" lon="5.98821">
        <ele>268</ele>
        <time>2014-11-22T12:56:12Z</time>
      </trkpt>
      <trkpt lat="45.47836" lon="5.98811">
        <ele>267</ele>
        <time>2014-11-22T12:56:15Z</time>
      </trkpt>
      <trkpt lat="45.47817" lon="5.98803">
        <ele>267</ele>
        <time>2014-11-22T12:56:18Z</time>
      </trkpt>
      <trkpt lat="45.47799" lon="5.98795">
        <ele>266</ele>
        <time>2014-11-22T12:56:21Z</time>
      </trkpt>
      <trkpt lat="45.4778" lon="5.98788">
        <ele>266</ele>
        <time>2014-11-22T12:56:24Z</time>
      </trkpt>
      <trkpt lat="45.47762" lon="5.98783">
        <ele>266</ele>
        <time>2014-11-22T12:56:27Z</time>
      </trkpt>
      <trkpt lat="45.47744" lon="5.98779">
        <ele>266</ele>
        <time>2014-11-22T12:56:30Z</time>
      </trkpt>
      <trkpt lat="45.47721" lon="5.98775">
        <ele>266</ele>
        <time>2014-11-22T12:56:34Z</time>
      </trkpt>
      <trkpt lat="45.47702" lon="5.98773">
        <ele>267</ele>
        <time>2014-11-22T12:56:37Z</time>
      </trkpt>
      <trkpt lat="45.47679" lon="5.98772">
        <ele>267</ele>
        <time>2014-11-22T12:56:41Z</time>
      </trkpt>
      <trkpt lat="45.47661" lon="5.98766">
        <ele>268</ele>
        <time>2014-11-22T12:56:47Z</time>
      </trkpt>
      <trkpt lat="45.47642" lon="5.98774">
        <ele>267</ele>
        <time>2014-11-22T12:56:57Z</time>
      </trkpt>
      <trkpt lat="45.47622" lon="5.98776">
        <ele>267</ele>
        <time>2014-11-22T12:57:01Z</time>
      </trkpt>
      <trkpt lat="45.47602" lon="5.9878">
        <ele>267</ele>
        <time>2014-11-22T12:57:05Z</time>
      </trkpt>
      <trkpt lat="45.47582" lon="5.98785">
        <ele>266</ele>
        <time>2014-11-22T12:57:09Z</time>
      </trkpt>
      <trkpt lat="45.47562" lon="5.98791">
        <ele>266</ele>
        <time>2014-11-22T12:57:13Z</time>
      </trkpt>
      <trkpt lat="45.47543" lon="5.98799">
        <ele>266</ele>
        <time>2014-11-22T12:57:17Z</time>
      </trkpt>
      <trkpt lat="45.47523" lon="5.98808">
        <ele>266</ele>
        <time>2014-11-22T12:57:21Z</time>
      </trkpt>
      <trkpt lat="45.47504" lon="5.98817">
        <ele>265</ele>
        <time>2014-11-22T12:57:25Z</time>
      </trkpt>
      <trkpt lat="45.47484" lon="5.98824">
        <ele>265</ele>
        <time>2014-11-22T12:57:29Z</time>
      </trkpt>
      <trkpt lat="45.47463" lon="5.98832">
        <ele>265</ele>
        <time>2014-11-22T12:57:33Z</time>
      </trkpt>
      <trkpt lat="45.47443" lon="5.98842">
        <ele>264</ele>
        <time>2014-11-22T12:57:37Z</time>
      </trkpt>
      <trkpt lat="45.47423" lon="5.98836">
        <ele>264</ele>
        <time>2014-11-22T12:57:41Z</time>
      </trkpt>
      <trkpt lat="45.47401" lon="5.98837">
        <ele>264</ele>
        <time>2014-11-22T12:57:45Z</time>
      </trkpt>
      <trkpt lat="45.4738" lon="5.98842">
        <ele>264</ele>
        <time>2014-11-22T12:57:49Z</time>
      </trkpt>
      <trkpt lat="45.47358" lon="5.98846">
        <ele>264</ele>
        <time>2014-11-22T12:57:53Z</time>
      </trkpt>
      <trkpt lat="45.47335" lon="5.98851">
        <ele>264</ele>
        <time>2014-11-22T12:57:57Z</time>
      </trkpt>
      <trkpt lat="45.47313" lon="5.98855">
        <ele>264</ele>
        <time>2014-11-22T12:58:01Z</time>
      </trkpt>
      <trkpt lat="45.4729" lon="5.98859">
        <ele>264</ele>
        <time>2014-11-22T12:58:05Z</time>
      </trkpt>
      <trkpt lat="45.47268" lon="5.98863">
        <ele>264</ele>
        <time>2014-11-22T12:58:09Z</time>
      </trkpt>
      <trkpt lat="45.47246" lon="5.98868">
        <ele>265</ele>
        <time>2014-11-22T12:58:13Z</time>
      </trkpt>
      <trkpt lat="45.47223" lon="5.98872">
        <ele>265</ele>
        <time>2014-11-22T12:58:17Z</time>
      </trkpt>
      <trkpt lat="45.47201" lon="5.98876">
        <ele>266</ele>
        <time>2014-11-22T12:58:21Z</time>
      </trkpt>
      <trkpt lat="45.4718" lon="5.9888">
        <ele>266</ele>
        <time>2014-11-22T12:58:25Z</time>
      </trkpt>
      <trkpt lat="45.47161" lon="5.98884">
        <ele>266</ele>
        <time>2014-11-22T12:58:29Z</time>
      </trkpt>
      <trkpt lat="45.47139" lon="5.98888">
        <ele>267</ele>
        <time>2014-11-22T12:58:34Z</time>
      </trkpt>
      <trkpt lat="45.4712" lon="5.98892">
        <ele>267</ele>
        <time>2014-11-22T12:58:38Z</time>
      </trkpt>
      <trkpt lat="45.47099" lon="5.98896">
        <ele>267</ele>
        <time>2014-11-22T12:58:42Z</time>
      </trkpt>
      <trkpt lat="45.47079" lon="5.989">
        <ele>268</ele>
        <time>2014-11-22T12:58:46Z</time>
      </trkpt>
      <trkpt lat="45.4706" lon="5.98903">
        <ele>268</ele>
        <time>2014-11-22T12:58:50Z</time>
      </trkpt>
      <trkpt lat="45.47041" lon="5.98906">
        <ele>268</ele>
        <time>2014-11-22T12:58:54Z</time>
      </trkpt>
      <trkpt lat="45.47019" lon="5.98911">
        <ele>269</ele>
        <time>2014-11-22T12:58:59Z</time>
      </trkpt>
      <trkpt lat="45.46999" lon="5.98912">
        <ele>269</ele>
        <time>2014-11-22T12:59:04Z</time>
      </trkpt>
      <trkpt lat="45.46979" lon="5.98917">
        <ele>269</ele>
        <time>2014-11-22T12:59:09Z</time>
      </trkpt>
      <trkpt lat="45.46961" lon="5.98923">
        <ele>270</ele>
        <time>2014-11-22T12:59:14Z</time>
      </trkpt>
      <trkpt lat="45.46939" lon="5.98928">
        <ele>270</ele>
        <time>2014-11-22T12:59:20Z</time>
      </trkpt>
      <trkpt lat="45.46919" lon="5.98932">
        <ele>270</ele>
        <time>2014-11-22T12:59:26Z</time>
      </trkpt>
      <trkpt lat="45.46898" lon="5.98935">
        <ele>272</ele>
        <time>2014-11-22T12:59:32Z</time>
      </trkpt>
      <trkpt lat="45.46877" lon="5.98936">
        <ele>273</ele>
        <time>2014-11-22T12:59:38Z</time>
      </trkpt>
      <trkpt lat="45.4686" lon="5.98942">
        <ele>274</ele>
        <time>2014-11-22T12:59:43Z</time>
      </trkpt>
      <trkpt lat="45.46839" lon="5.98945">
        <ele>274</ele>
        <time>2014-11-22T12:59:49Z</time>
      </trkpt>
      <trkpt lat="45.46818" lon="5.98942">
        <ele>276</ele>
        <time>2014-11-22T12:59:55Z</time>
      </trkpt>
      <trkpt lat="45.46799" lon="5.98954">
        <ele>277</ele>
        <time>2014-11-22T13:00:01Z</time>
      </trkpt>
      <trkpt lat="45.46778" lon="5.98958">
        <ele>277</ele>
        <time>2014-11-22T13:00:07Z</time>
      </trkpt>
      <trkpt lat="45.46758" lon="5.98962">
        <ele>277</ele>
        <time>2014-11-22T13:00:13Z</time>
      </trkpt>
      <trkpt lat="45.46738" lon="5.98966">
        <ele>278</ele>
        <time>2014-11-22T13:00:19Z</time>
      </trkpt>
      <trkpt lat="45.46718" lon="5.9897">
        <ele>278</ele>
        <time>2014-11-22T13:00:25Z</time>
      </trkpt>
      <trkpt lat="45.46698" lon="5.98973">
        <ele>279</ele>
        <time>2014-11-22T13:00:31Z</time>
      </trkpt>
      <trkpt lat="45.46679" lon="5.98978">
        <ele>279</ele>
        <time>2014-11-22T13:00:37Z</time>
      </trkpt>
      <trkpt lat="45.46661" lon="5.98982">
        <ele>281</ele>
        <time>2014-11-22T13:00:43Z</time>
      </trkpt>
      <trkpt lat="45.46641" lon="5.98984">
        <ele>281</ele>
        <time>2014-11-22T13:00:49Z</time>
      </trkpt>
      <trkpt lat="45.46622" lon="5.98987">
        <ele>282</ele>
        <time>2014-11-22T13:00:55Z</time>
      </trkpt>
      <trkpt lat="45.46604" lon="5.98995">
        <ele>282</ele>
        <time>2014-11-22T13:01:01Z</time>
      </trkpt>
      <trkpt lat="45.46583" lon="5.98997">
        <ele>283</ele>
        <time>2014-11-22T13:01:07Z</time>
      </trkpt>
      <trkpt lat="45.46564" lon="5.98999">
        <ele>284</ele>
        <time>2014-11-22T13:01:14Z</time>
      </trkpt>
      <trkpt lat="45.46543" lon="5.99004">
        <ele>284</ele>
        <time>2014-11-22T13:01:20Z</time>
      </trkpt>
      <trkpt lat="45.46524" lon="5.99005">
        <ele>284</ele>
        <time>2014-11-22T13:01:25Z</time>
      </trkpt>
      <trkpt lat="45.46506" lon="5.9901">
        <ele>284</ele>
        <time>2014-11-22T13:01:30Z</time>
      </trkpt>
      <trkpt lat="45.46488" lon="5.99015">
        <ele>286</ele>
        <time>2014-11-22T13:01:35Z</time>
      </trkpt>
      <trkpt lat="45.4647" lon="5.99018">
        <ele>286</ele>
        <time>2014-11-22T13:01:40Z</time>
      </trkpt>
      <trkpt lat="45.4645" lon="5.99023">
        <ele>287</ele>
        <time>2014-11-22T13:01:47Z</time>
      </trkpt>
      <trkpt lat="45.46428" lon="5.99026">
        <ele>287</ele>
        <time>2014-11-22T13:01:53Z</time>
      </trkpt>
      <trkpt lat="45.46408" lon="5.99028">
        <ele>289</ele>
        <time>2014-11-22T13:01:59Z</time>
      </trkpt>
      <trkpt lat="45.46388" lon="5.99029">
        <ele>289</ele>
        <time>2014-11-22T13:02:04Z</time>
      </trkpt>
      <trkpt lat="45.46368" lon="5.99029">
        <ele>289</ele>
        <time>2014-11-22T13:02:09Z</time>
      </trkpt>
      <trkpt lat="45.4635" lon="5.9903">
        <ele>289</ele>
        <time>2014-11-22T13:02:14Z</time>
      </trkpt>
      <trkpt lat="45.46332" lon="5.99029">
        <ele>291</ele>
        <time>2014-11-22T13:02:18Z</time>
      </trkpt>
      <trkpt lat="45.46311" lon="5.99033">
        <ele>291</ele>
        <time>2014-11-22T13:02:23Z</time>
      </trkpt>
      <trkpt lat="45.46289" lon="5.99026">
        <ele>291</ele>
        <time>2014-11-22T13:02:28Z</time>
      </trkpt>
      <trkpt lat="45.4627" lon="5.99011">
        <ele>291</ele>
        <time>2014-11-22T13:02:33Z</time>
      </trkpt>
      <trkpt lat="45.46251" lon="5.98994">
        <ele>292</ele>
        <time>2014-11-22T13:02:38Z</time>
      </trkpt>
      <trkpt lat="45.46234" lon="5.98977">
        <ele>292</ele>
        <time>2014-11-22T13:02:43Z</time>
      </trkpt>
      <trkpt lat="45.46213" lon="5.98965">
        <ele>293</ele>
        <time>2014-11-22T13:02:48Z</time>
      </trkpt>
      <trkpt lat="45.46192" lon="5.98961">
        <ele>293</ele>
        <time>2014-11-22T13:02:53Z</time>
      </trkpt>
      <trkpt lat="45.46176" lon="5.9898">
        <ele>293</ele>
        <time>2014-11-22T13:02:58Z</time>
      </trkpt>
      <trkpt lat="45.4616" lon="5.98997">
        <ele>293</ele>
        <time>2014-11-22T13:03:03Z</time>
      </trkpt>
      <trkpt lat="45.46143" lon="5.99012">
        <ele>294</ele>
        <time>2014-11-22T13:03:08Z</time>
      </trkpt>
      <trkpt lat="45.46124" lon="5.99018">
        <ele>294</ele>
        <time>2014-11-22T13:03:13Z</time>
      </trkpt>
      <trkpt lat="45.46106" lon="5.99024">
        <ele>295</ele>
        <time>2014-11-22T13:03:20Z</time>
      </trkpt>
      <trkpt lat="45.46088" lon="5.9903">
        <ele>295</ele>
        <time>2014-11-22T13:03:28Z</time>
      </trkpt>
      <trkpt lat="45.4607" lon="5.99033">
        <ele>298</ele>
        <time>2014-11-22T13:03:35Z</time>
      </trkpt>
      <trkpt lat="45.46052" lon="5.99037">
        <ele>298</ele>
        <time>2014-11-22T13:03:42Z</time>
      </trkpt>
      <trkpt lat="45.46033" lon="5.9904">
        <ele>299</ele>
        <time>2014-11-22T13:03:49Z</time>
      </trkpt>
      <trkpt lat="45.46012" lon="5.99045">
        <ele>299</ele>
        <time>2014-11-22T13:03:57Z</time>
      </trkpt>
      <trkpt lat="45.45994" lon="5.9905">
        <ele>302</ele>
        <time>2014-11-22T13:04:03Z</time>
      </trkpt>
      <trkpt lat="45.45974" lon="5.99054">
        <ele>302</ele>
        <time>2014-11-22T13:04:09Z</time>
      </trkpt>
      <trkpt lat="45.45953" lon="5.99057">
        <ele>303</ele>
        <time>2014-11-22T13:04:15Z</time>
      </trkpt>
      <trkpt lat="45.45934" lon="5.9906">
        <ele>303</ele>
        <time>2014-11-22T13:04:21Z</time>
      </trkpt>
      <trkpt lat="45.45914" lon="5.99064">
        <ele>306</ele>
        <time>2014-11-22T13:04:27Z</time>
      </trkpt>
      <trkpt lat="45.45893" lon="5.99069">
        <ele>306</ele>
        <time>2014-11-22T13:04:33Z</time>
      </trkpt>
      <trkpt lat="45.45873" lon="5.99073">
        <ele>307</ele>
        <time>2014-11-22T13:04:39Z</time>
      </trkpt>
      <trkpt lat="45.45853" lon="5.99077">
        <ele>308</ele>
        <time>2014-11-22T13:04:45Z</time>
      </trkpt>
      <trkpt lat="45.45835" lon="5.99081">
        <ele>309</ele>
        <time>2014-11-22T13:04:52Z</time>
      </trkpt>
      <trkpt lat="45.45816" lon="5.99086">
        <ele>309</ele>
        <time>2014-11-22T13:04:59Z</time>
      </trkpt>
      <trkpt lat="45.45797" lon="5.9909">
        <ele>310</ele>
        <time>2014-11-22T13:05:06Z</time>
      </trkpt>
      <trkpt lat="45.45779" lon="5.99093">
        <ele>311</ele>
        <time>2014-11-22T13:05:13Z</time>
      </trkpt>
      <trkpt lat="45.45759" lon="5.99096">
        <ele>312</ele>
        <time>2014-11-22T13:05:21Z</time>
      </trkpt>
      <trkpt lat="45.45739" lon="5.991">
        <ele>314</ele>
        <time>2014-11-22T13:05:29Z</time>
      </trkpt>
      <trkpt lat="45.45719" lon="5.99105">
        <ele>315</ele>
        <time>2014-11-22T13:05:37Z</time>
      </trkpt>
      <trkpt lat="45.457" lon="5.9911">
        <ele>315</ele>
        <time>2014-11-22T13:05:44Z</time>
      </trkpt>
      <trkpt lat="45.45681" lon="5.99115">
        <ele>315</ele>
        <time>2014-11-22T13:05:51Z</time>
      </trkpt>
      <trkpt lat="45.45663" lon="5.99119">
        <ele>318</ele>
        <time>2014-11-22T13:05:58Z</time>
      </trkpt>
      <trkpt lat="45.45644" lon="5.99123">
        <ele>318</ele>
        <time>2014-11-22T13:06:05Z</time>
      </trkpt>
      <trkpt lat="45.45625" lon="5.99127">
        <ele>318</ele>
        <time>2014-11-22T13:06:11Z</time>
      </trkpt>
      <trkpt lat="45.45607" lon="5.99132">
        <ele>318</ele>
        <time>2014-11-22T13:06:17Z</time>
      </trkpt>
      <trkpt lat="45.45589" lon="5.99136">
        <ele>318</ele>
        <time>2014-11-22T13:06:23Z</time>
      </trkpt>
      <trkpt lat="45.45569" lon="5.99141">
        <ele>322</ele>
        <time>2014-11-22T13:06:29Z</time>
      </trkpt>
      <trkpt lat="45.4555" lon="5.99144">
        <ele>323</ele>
        <time>2014-11-22T13:06:35Z</time>
      </trkpt>
      <trkpt lat="45.45532" lon="5.99149">
        <ele>324</ele>
        <time>2014-11-22T13:06:42Z</time>
      </trkpt>
      <trkpt lat="45.45512" lon="5.99154">
        <ele>325</ele>
        <time>2014-11-22T13:06:49Z</time>
      </trkpt>
      <trkpt lat="45.45492" lon="5.99158">
        <ele>327</ele>
        <time>2014-11-22T13:06:56Z</time>
      </trkpt>
      <trkpt lat="45.45472" lon="5.99162">
        <ele>328</ele>
        <time>2014-11-22T13:07:03Z</time>
      </trkpt>
      <trkpt lat="45.45454" lon="5.99166">
        <ele>328</ele>
        <time>2014-11-22T13:07:09Z</time>
      </trkpt>
      <trkpt lat="45.45434" lon="5.99171">
        <ele>325</ele>
        <time>2014-11-22T13:07:15Z</time>
      </trkpt>
      <trkpt lat="45.45415" lon="5.99175">
        <ele>327</ele>
        <time>2014-11-22T13:07:21Z</time>
      </trkpt>
      <trkpt lat="45.45397" lon="5.9918">
        <ele>326</ele>
        <time>2014-11-22T13:07:29Z</time>
      </trkpt>
      <trkpt lat="45.45378" lon="5.99184">
        <ele>327</ele>
        <time>2014-11-22T13:07:36Z</time>
      </trkpt>
      <trkpt lat="45.45359" lon="5.99186">
        <ele>327</ele>
        <time>2014-11-22T13:07:43Z</time>
      </trkpt>
      <trkpt lat="45.45337" lon="5.99191">
        <ele>328</ele>
        <time>2014-11-22T13:07:49Z</time>
      </trkpt>
      <trkpt lat="45.45319" lon="5.99195">
        <ele>329</ele>
        <time>2014-11-22T13:07:54Z</time>
      </trkpt>
      <trkpt lat="45.453" lon="5.99199">
        <ele>329</ele>
        <time>2014-11-22T13:07:59Z</time>
      </trkpt>
      <trkpt lat="45.4528" lon="5.99204">
        <ele>328</ele>
        <time>2014-11-22T13:08:04Z</time>
      </trkpt>
      <trkpt lat="45.45258" lon="5.99207">
        <ele>328</ele>
        <time>2014-11-22T13:08:09Z</time>
      </trkpt>
      <trkpt lat="45.45236" lon="5.99211">
        <ele>330</ele>
        <time>2014-11-22T13:08:14Z</time>
      </trkpt>
      <trkpt lat="45.45214" lon="5.99215">
        <ele>331</ele>
        <time>2014-11-22T13:08:19Z</time>
      </trkpt>
      <trkpt lat="45.45193" lon="5.99219">
        <ele>331</ele>
        <time>2014-11-22T13:08:24Z</time>
      </trkpt>
      <trkpt lat="45.45172" lon="5.99225">
        <ele>331</ele>
        <time>2014-11-22T13:08:29Z</time>
      </trkpt>
      <trkpt lat="45.45152" lon="5.9923">
        <ele>333</ele>
        <time>2014-11-22T13:08:34Z</time>
      </trkpt>
      <trkpt lat="45.45132" lon="5.99234">
        <ele>334</ele>
        <time>2014-11-22T13:08:39Z</time>
      </trkpt>
      <trkpt lat="45.45113" lon="5.99238">
        <ele>334</ele>
        <time>2014-11-22T13:08:44Z</time>
      </trkpt>
      <trkpt lat="45.45092" lon="5.99243">
        <ele>333</ele>
        <time>2014-11-22T13:08:50Z</time>
      </trkpt>
      <trkpt lat="45.45072" lon="5.99246">
        <ele>334</ele>
        <time>2014-11-22T13:08:56Z</time>
      </trkpt>
      <trkpt lat="45.45051" lon="5.99247">
        <ele>336</ele>
        <time>2014-11-22T13:09:02Z</time>
      </trkpt>
      <trkpt lat="45.45032" lon="5.99247">
        <ele>337</ele>
        <time>2014-11-22T13:09:08Z</time>
      </trkpt>
      <trkpt lat="45.45014" lon="5.99244">
        <ele>337</ele>
        <time>2014-11-22T13:09:14Z</time>
      </trkpt>
      <trkpt lat="45.44995" lon="5.99239">
        <ele>337</ele>
        <time>2014-11-22T13:09:20Z</time>
      </trkpt>
      <trkpt lat="45.44977" lon="5.99231">
        <ele>337</ele>
        <time>2014-11-22T13:09:26Z</time>
      </trkpt>
      <trkpt lat="45.4496" lon="5.99221">
        <ele>338</ele>
        <time>2014-11-22T13:09:31Z</time>
      </trkpt>
      <trkpt lat="45.44943" lon="5.99209">
        <ele>338</ele>
        <time>2014-11-22T13:09:36Z</time>
      </trkpt>
      <trkpt lat="45.44926" lon="5.99194">
        <ele>338</ele>
        <time>2014-11-22T13:09:41Z</time>
      </trkpt>
      <trkpt lat="45.44912" lon="5.99179">
        <ele>338</ele>
        <time>2014-11-22T13:09:45Z</time>
      </trkpt>
      <trkpt lat="45.44897" lon="5.99162">
        <ele>339</ele>
        <time>2014-11-22T13:09:49Z</time>
      </trkpt>
      <trkpt lat="45.44882" lon="5.99145">
        <ele>339</ele>
        <time>2014-11-22T13:09:53Z</time>
      </trkpt>
      <trkpt lat="45.44867" lon="5.99127">
        <ele>339</ele>
        <time>2014-11-22T13:09:57Z</time>
      </trkpt>
      <trkpt lat="45.44852" lon="5.99111">
        <ele>339</ele>
        <time>2014-11-22T13:10:01Z</time>
      </trkpt>
      <trkpt lat="45.44837" lon="5.99095">
        <ele>338</ele>
        <time>2014-11-22T13:10:05Z</time>
      </trkpt>
      <trkpt lat="45.44819" lon="5.99076">
        <ele>338</ele>
        <time>2014-11-22T13:10:10Z</time>
      </trkpt>
      <trkpt lat="45.44802" lon="5.99059">
        <ele>338</ele>
        <time>2014-11-22T13:10:15Z</time>
      </trkpt>
      <trkpt lat="45.44785" lon="5.9904">
        <ele>338</ele>
        <time>2014-11-22T13:10:20Z</time>
      </trkpt>
      <trkpt lat="45.44768" lon="5.99022">
        <ele>337</ele>
        <time>2014-11-22T13:10:25Z</time>
      </trkpt>
      <trkpt lat="45.44755" lon="5.99005">
        <ele>337</ele>
        <time>2014-11-22T13:10:29Z</time>
      </trkpt>
      <trkpt lat="45.4474" lon="5.98988">
        <ele>336</ele>
        <time>2014-11-22T13:10:33Z</time>
      </trkpt>
      <trkpt lat="45.44725" lon="5.98971">
        <ele>336</ele>
        <time>2014-11-22T13:10:37Z</time>
      </trkpt>
      <trkpt lat="45.4471" lon="5.98954">
        <ele>336</ele>
        <time>2014-11-22T13:10:41Z</time>
      </trkpt>
      <trkpt lat="45.44694" lon="5.98937">
        <ele>335</ele>
        <time>2014-11-22T13:10:45Z</time>
      </trkpt>
      <trkpt lat="45.44679" lon="5.98921">
        <ele>335</ele>
        <time>2014-11-22T13:10:49Z</time>
      </trkpt>
      <trkpt lat="45.44664" lon="5.98904">
        <ele>334</ele>
        <time>2014-11-22T13:10:53Z</time>
      </trkpt>
      <trkpt lat="45.4465" lon="5.98888">
        <ele>335</ele>
        <time>2014-11-22T13:10:57Z</time>
      </trkpt>
      <trkpt lat="45.44635" lon="5.98872">
        <ele>335</ele>
        <time>2014-11-22T13:11:01Z</time>
      </trkpt>
      <trkpt lat="45.44618" lon="5.98852">
        <ele>335</ele>
        <time>2014-11-22T13:11:06Z</time>
      </trkpt>
      <trkpt lat="45.446" lon="5.98833">
        <ele>337</ele>
        <time>2014-11-22T13:11:11Z</time>
      </trkpt>
      <trkpt lat="45.44583" lon="5.98813">
        <ele>335</ele>
        <time>2014-11-22T13:11:16Z</time>
      </trkpt>
      <trkpt lat="45.44566" lon="5.98794">
        <ele>336</ele>
        <time>2014-11-22T13:11:21Z</time>
      </trkpt>
      <trkpt lat="45.44551" lon="5.98778">
        <ele>337</ele>
        <time>2014-11-22T13:11:25Z</time>
      </trkpt>
      <trkpt lat="45.44537" lon="5.98763">
        <ele>337</ele>
        <time>2014-11-22T13:11:29Z</time>
      </trkpt>
      <trkpt lat="45.44522" lon="5.98746">
        <ele>339</ele>
        <time>2014-11-22T13:11:33Z</time>
      </trkpt>
      <trkpt lat="45.44507" lon="5.9873">
        <ele>339</ele>
        <time>2014-11-22T13:11:37Z</time>
      </trkpt>
      <trkpt lat="45.44493" lon="5.98714">
        <ele>338</ele>
        <time>2014-11-22T13:11:41Z</time>
      </trkpt>
      <trkpt lat="45.44478" lon="5.98698">
        <ele>338</ele>
        <time>2014-11-22T13:11:45Z</time>
      </trkpt>
      <trkpt lat="45.44464" lon="5.98682">
        <ele>338</ele>
        <time>2014-11-22T13:11:49Z</time>
      </trkpt>
      <trkpt lat="45.44448" lon="5.98664">
        <ele>340</ele>
        <time>2014-11-22T13:11:54Z</time>
      </trkpt>
      <trkpt lat="45.44431" lon="5.98645">
        <ele>339</ele>
        <time>2014-11-22T13:11:59Z</time>
      </trkpt>
      <trkpt lat="45.44415" lon="5.98627">
        <ele>338</ele>
        <time>2014-11-22T13:12:03Z</time>
      </trkpt>
      <trkpt lat="45.44399" lon="5.98609">
        <ele>339</ele>
        <time>2014-11-22T13:12:07Z</time>
      </trkpt>
      <trkpt lat="45.44383" lon="5.98594">
        <ele>339</ele>
        <time>2014-11-22T13:12:11Z</time>
      </trkpt>
      <trkpt lat="45.44364" lon="5.98581">
        <ele>341</ele>
        <time>2014-11-22T13:12:16Z</time>
      </trkpt>
      <trkpt lat="45.44346" lon="5.98571">
        <ele>341</ele>
        <time>2014-11-22T13:12:21Z</time>
      </trkpt>
      <trkpt lat="45.44326" lon="5.98563">
        <ele>340</ele>
        <time>2014-11-22T13:12:26Z</time>
      </trkpt>
      <trkpt lat="45.44305" lon="5.98556">
        <ele>340</ele>
        <time>2014-11-22T13:12:31Z</time>
      </trkpt>
      <trkpt lat="45.44286" lon="5.9855">
        <ele>339</ele>
        <time>2014-11-22T13:12:35Z</time>
      </trkpt>
      <trkpt lat="45.44267" lon="5.98543">
        <ele>339</ele>
        <time>2014-11-22T13:12:39Z</time>
      </trkpt>
      <trkpt lat="45.44247" lon="5.98536">
        <ele>338</ele>
        <time>2014-11-22T13:12:43Z</time>
      </trkpt>
      <trkpt lat="45.44227" lon="5.98529">
        <ele>338</ele>
        <time>2014-11-22T13:12:47Z</time>
      </trkpt>
      <trkpt lat="45.44208" lon="5.98523">
        <ele>338</ele>
        <time>2014-11-22T13:12:51Z</time>
      </trkpt>
      <trkpt lat="45.44188" lon="5.98516">
        <ele>338</ele>
        <time>2014-11-22T13:12:55Z</time>
      </trkpt>
      <trkpt lat="45.4417" lon="5.9851">
        <ele>338</ele>
        <time>2014-11-22T13:12:59Z</time>
      </trkpt>
      <trkpt lat="45.44149" lon="5.98501">
        <ele>337</ele>
        <time>2014-11-22T13:13:04Z</time>
      </trkpt>
      <trkpt lat="45.44127" lon="5.98493">
        <ele>339</ele>
        <time>2014-11-22T13:13:09Z</time>
      </trkpt>
      <trkpt lat="45.44106" lon="5.98486">
        <ele>339</ele>
        <time>2014-11-22T13:13:14Z</time>
      </trkpt>
      <trkpt lat="45.44084" lon="5.98479">
        <ele>339</ele>
        <time>2014-11-22T13:13:19Z</time>
      </trkpt>
      <trkpt lat="45.44064" lon="5.98472">
        <ele>339</ele>
        <time>2014-11-22T13:13:23Z</time>
      </trkpt>
      <trkpt lat="45.44044" lon="5.98465">
        <ele>339</ele>
        <time>2014-11-22T13:13:27Z</time>
      </trkpt>
      <trkpt lat="45.44023" lon="5.98458">
        <ele>339</ele>
        <time>2014-11-22T13:13:31Z</time>
      </trkpt>
      <trkpt lat="45.44004" lon="5.98451">
        <ele>339</ele>
        <time>2014-11-22T13:13:35Z</time>
      </trkpt>
      <trkpt lat="45.43986" lon="5.98444">
        <ele>340</ele>
        <time>2014-11-22T13:13:39Z</time>
      </trkpt>
      <trkpt lat="45.43968" lon="5.98438">
        <ele>340</ele>
        <time>2014-11-22T13:13:44Z</time>
      </trkpt>
      <trkpt lat="45.4395" lon="5.98432">
        <ele>341</ele>
        <time>2014-11-22T13:13:49Z</time>
      </trkpt>
      <trkpt lat="45.43932" lon="5.98426">
        <ele>342</ele>
        <time>2014-11-22T13:13:54Z</time>
      </trkpt>
      <trkpt lat="45.43914" lon="5.9842">
        <ele>343</ele>
        <time>2014-11-22T13:13:59Z</time>
      </trkpt>
      <trkpt lat="45.43896" lon="5.98413">
        <ele>344</ele>
        <time>2014-11-22T13:14:04Z</time>
      </trkpt>
      <trkpt lat="45.43875" lon="5.98406">
        <ele>344</ele>
        <time>2014-11-22T13:14:09Z</time>
      </trkpt>
      <trkpt lat="45.43855" lon="5.98398">
        <ele>344</ele>
        <time>2014-11-22T13:14:14Z</time>
      </trkpt>
      <trkpt lat="45.43834" lon="5.98392">
        <ele>344</ele>
        <time>2014-11-22T13:14:19Z</time>
      </trkpt>
      <trkpt lat="45.43813" lon="5.98385">
        <ele>344</ele>
        <time>2014-11-22T13:14:24Z</time>
      </trkpt>
      <trkpt lat="45.43793" lon="5.98377">
        <ele>344</ele>
        <time>2014-11-22T13:14:29Z</time>
      </trkpt>
      <trkpt lat="45.43773" lon="5.9837">
        <ele>345</ele>
        <time>2014-11-22T13:14:34Z</time>
      </trkpt>
      <trkpt lat="45.43752" lon="5.98363">
        <ele>345</ele>
        <time>2014-11-22T13:14:39Z</time>
      </trkpt>
      <trkpt lat="45.43733" lon="5.98356">
        <ele>344</ele>
        <time>2014-11-22T13:14:44Z</time>
      </trkpt>
      <trkpt lat="45.43712" lon="5.9835">
        <ele>344</ele>
        <time>2014-11-22T13:14:49Z</time>
      </trkpt>
      <trkpt lat="45.43691" lon="5.98342">
        <ele>344</ele>
        <time>2014-11-22T13:14:54Z</time>
      </trkpt>
      <trkpt lat="45.4367" lon="5.98334">
        <ele>343</ele>
        <time>2014-11-22T13:14:59Z</time>
      </trkpt>
      <trkpt lat="45.43649" lon="5.98326">
        <ele>343</ele>
        <time>2014-11-22T13:15:04Z</time>
      </trkpt>
      <trkpt lat="45.4363" lon="5.98319">
        <ele>343</ele>
        <time>2014-11-22T13:15:09Z</time>
      </trkpt>
      <trkpt lat="45.43609" lon="5.98312">
        <ele>343</ele>
        <time>2014-11-22T13:15:14Z</time>
      </trkpt>
      <trkpt lat="45.43591" lon="5.98306">
        <ele>343</ele>
        <time>2014-11-22T13:15:18Z</time>
      </trkpt>
      <trkpt lat="45.43572" lon="5.98299">
        <ele>342</ele>
        <time>2014-11-22T13:15:22Z</time>
      </trkpt>
      <trkpt lat="45.43552" lon="5.98292">
        <ele>342</ele>
        <time>2014-11-22T13:15:26Z</time>
      </trkpt>
      <trkpt lat="45.43532" lon="5.98285">
        <ele>342</ele>
        <time>2014-11-22T13:15:30Z</time>
      </trkpt>
      <trkpt lat="45.43511" lon="5.98278">
        <ele>342</ele>
        <time>2014-11-22T13:15:34Z</time>
      </trkpt>
      <trkpt lat="45.43489" lon="5.9827">
        <ele>340</ele>
        <time>2014-11-22T13:15:38Z</time>
      </trkpt>
      <trkpt lat="45.43467" lon="5.98262">
        <ele>340</ele>
        <time>2014-11-22T13:15:42Z</time>
      </trkpt>
      <trkpt lat="45.43445" lon="5.98256">
        <ele>340</ele>
        <time>2014-11-22T13:15:46Z</time>
      </trkpt>
      <trkpt lat="45.43423" lon="5.98247">
        <ele>341</ele>
        <time>2014-11-22T13:15:50Z</time>
      </trkpt>
      <trkpt lat="45.43405" lon="5.98241">
        <ele>340</ele>
        <time>2014-11-22T13:15:53Z</time>
      </trkpt>
      <trkpt lat="45.43388" lon="5.98234">
        <ele>339</ele>
        <time>2014-11-22T13:15:56Z</time>
      </trkpt>
      <trkpt lat="45.43365" lon="5.98226">
        <ele>339</ele>
        <time>2014-11-22T13:16:00Z</time>
      </trkpt>
      <trkpt lat="45.43343" lon="5.98218">
        <ele>339</ele>
        <time>2014-11-22T13:16:04Z</time>
      </trkpt>
      <trkpt lat="45.43321" lon="5.98211">
        <ele>336</ele>
        <time>2014-11-22T13:16:08Z</time>
      </trkpt>
      <trkpt lat="45.433" lon="5.98203">
        <ele>336</ele>
        <time>2014-11-22T13:16:12Z</time>
      </trkpt>
      <trkpt lat="45.43278" lon="5.98197">
        <ele>336</ele>
        <time>2014-11-22T13:16:16Z</time>
      </trkpt>
      <trkpt lat="45.43257" lon="5.9819">
        <ele>336</ele>
        <time>2014-11-22T13:16:20Z</time>
      </trkpt>
      <trkpt lat="45.43234" lon="5.98181">
        <ele>334</ele>
        <time>2014-11-22T13:16:24Z</time>
      </trkpt>
      <trkpt lat="45.43211" lon="5.98173">
        <ele>333</ele>
        <time>2014-11-22T13:16:28Z</time>
      </trkpt>
      <trkpt lat="45.43193" lon="5.98167">
        <ele>333</ele>
        <time>2014-11-22T13:16:31Z</time>
      </trkpt>
      <trkpt lat="45.43175" lon="5.98161">
        <ele>333</ele>
        <time>2014-11-22T13:16:34Z</time>
      </trkpt>
      <trkpt lat="45.43158" lon="5.98155">
        <ele>332</ele>
        <time>2014-11-22T13:16:37Z</time>
      </trkpt>
      <trkpt lat="45.43136" lon="5.9815">
        <ele>332</ele>
        <time>2014-11-22T13:16:41Z</time>
      </trkpt>
      <trkpt lat="45.43122" lon="5.98172">
        <ele>331</ele>
        <time>2014-11-22T13:16:45Z</time>
      </trkpt>
      <trkpt lat="45.43107" lon="5.98197">
        <ele>331</ele>
        <time>2014-11-22T13:16:49Z</time>
      </trkpt>
      <trkpt lat="45.43095" lon="5.98218">
        <ele>331</ele>
        <time>2014-11-22T13:16:52Z</time>
      </trkpt>
      <trkpt lat="45.43082" lon="5.98239">
        <ele>331</ele>
        <time>2014-11-22T13:16:55Z</time>
      </trkpt>
      <trkpt lat="45.4307" lon="5.9826">
        <ele>331</ele>
        <time>2014-11-22T13:16:58Z</time>
      </trkpt>
      <trkpt lat="45.43058" lon="5.98281">
        <ele>331</ele>
        <time>2014-11-22T13:17:01Z</time>
      </trkpt>
      <trkpt lat="45.43043" lon="5.98306">
        <ele>331</ele>
        <time>2014-11-22T13:17:05Z</time>
      </trkpt>
      <trkpt lat="45.43028" lon="5.9833">
        <ele>330</ele>
        <time>2014-11-22T13:17:09Z</time>
      </trkpt>
      <trkpt lat="45.43009" lon="5.98338">
        <ele>331</ele>
        <time>2014-11-22T13:17:13Z</time>
      </trkpt>
      <trkpt lat="45.4299" lon="5.98323">
        <ele>330</ele>
        <time>2014-11-22T13:17:17Z</time>
      </trkpt>
      <trkpt lat="45.42971" lon="5.98307">
        <ele>330</ele>
        <time>2014-11-22T13:17:21Z</time>
      </trkpt>
      <trkpt lat="45.42953" lon="5.98303">
        <ele>330</ele>
        <time>2014-11-22T13:17:25Z</time>
      </trkpt>
      <trkpt lat="45.42939" lon="5.98321">
        <ele>330</ele>
        <time>2014-11-22T13:17:29Z</time>
      </trkpt>
      <trkpt lat="45.4293" lon="5.98343">
        <ele>330</ele>
        <time>2014-11-22T13:17:34Z</time>
      </trkpt>
      <trkpt lat="45.42921" lon="5.98367">
        <ele>330</ele>
        <time>2014-11-22T13:17:41Z</time>
      </trkpt>
      <trkpt lat="45.42913" lon="5.98391">
        <ele>329</ele>
        <time>2014-11-22T13:17:51Z</time>
      </trkpt>
      <trkpt lat="45.42917" lon="5.98417">
        <ele>330</ele>
        <time>2014-11-22T13:18:08Z</time>
      </trkpt>
    </trkseg>
  </trk>
</gpx>